LiveATC.Net - Listen to live air traffic control over the Internet!
Airport/ARTCC Code
Frequency Search
(e.g., 124.400, 128.75)
Site-wide search
 


Browse LiveATC Feeds
Top 50 LiveATC Feeds
LiveATC Feed Map
Bad Weather Areas

LiveATC FAQ
Offer LiveATC feed
Contact LiveATC.net
Press Inquiries

LiveATC on iPhone
LiveATC on Android

Windows Phone
Windows 8/10

LiveATC Mobile
(Mobile browser)

ATC Audio Archives
Interesting Recordings

LiveATC Forums

Home Page
About LiveATC.net
Make a Donation
Terms of Use
Privacy Policy

Canadian Air Freqs

AIRMETs/SIGMETs

FAA Airport Status
Nat'l Airspace Status
Arrival Demand Charts


Server Software By:
Icecast.org
Liquidsoap

Select an area of interest:
U.S. Feeds: Class B Airports | Class C Airports | Class D/Other Airports | ARTCC (Centers)
International Feeds: Canada | Europe | Oceania | Asia | South America | North/Central America | Africa
Misc Feeds: HF Feeds
Search by ICAO/IATA airport code:   (e.g., kbos, kjfk, lax, eham, etc.)


Currently Available Live Feeds: 2527
Status Updated: Thu Nov 14 2019 10:16:04 UTC


NOTICE

Unauthorized use prohibited. See LiveATC.net Terms of Service

International Airport Feeds

 

EFKK Tower (Archives)
Kronoby, Finland

Feed Status: UP
Listen in your browser - HTML5 player(in browser, HTML5)
Click here to listen with your own player(launches your MP3 player)

EFKK 140950Z AUTO VRB02KT 0900 R19/1300U SHRA //////CB 02/02 Q1005

EFKK Flight Activity (Flightaware)

Listeners: 1 out of 751 total

Kronoby Tower: 120.100

EFKU Tower/Approach (Archives)
Siilinjarvi, Finland

Feed Status: UP
Listen in your browser - HTML5 player(in browser, HTML5)
Click here to listen with your own player(launches your MP3 player)

EFKU 140950Z 14006KT 120V180 0300 R15/1000 FG VV002 05/05 Q1006

EFKU Flight Activity (Flightaware)

Listeners: 1 out of 751 total

Kuopio Approach: 130.600
Kuopio Tower: 120.150

Dutch Mil Radar (Archives)
Amsterdam, Netherlands

Feed Status: UP
Listen in your browser - HTML5 player(in browser, HTML5)
Click here to listen with your own player(launches your MP3 player)

EHLE 140955Z AUTO 12010KT 9999 // NSC 05/04 Q1001 RE// NOSIG

EHLE Flight Activity (Flightaware)

Listeners: 0 out of 751 total

Dutch Mil Flight Info: 264.325
Dutch Mil Radar: 128.355
Dutch Mil Radar: 132.350

EHAA Radar ARTIP (Archives)
Amsterdam, Netherlands

Feed Status: UP
Listen in your browser - HTML5 player(in browser, HTML5)
Click here to listen with your own player(launches your MP3 player)

EHAM 140955Z 11010KT CAVOK 06/04 Q1000 NOSIG

EHAM Flight Activity (Flightaware)

Listeners: 0 out of 751 total

EHAA Radar Sector 1 ARTIP: 120.550

EHAA Radar East Inbound
Amsterdam, Netherlands

Feed Status: DOWN
Offline since: 2019-03-13 16:57:02 UTC

EHAM 140955Z 11010KT CAVOK 06/04 Q1000 NOSIG

EHAA Radar Sector 2 East Inbound: 128.575

EHAA Radar East Outbound (Archives)
Amsterdam, Netherlands

Feed Status: UP
Listen in your browser - HTML5 player(in browser, HTML5)
Click here to listen with your own player(launches your MP3 player)

EHAM 140955Z 11010KT CAVOK 06/04 Q1000 NOSIG

EHAM Flight Activity (Flightaware)

Listeners: 1 out of 751 total

EHAA Radar Sector 2 East Outbound: 124.875

EHAA Radar North
Amsterdam, Netherlands

Feed Status: DOWN
Offline since: 2019-03-13 16:59:02 UTC

EHAM 140955Z 11010KT CAVOK 06/04 Q1000 NOSIG

EHAA Radar Sector 1 North: 134.375

EHAA Radar Northwest (Archives)
Amsterdam, Netherlands

Feed Status: UP
Listen in your browser - HTML5 player(in browser, HTML5)
Click here to listen with your own player(launches your MP3 player)

EHAM 140955Z 11010KT CAVOK 06/04 Q1000 NOSIG

EHAM Flight Activity (Flightaware)

Listeners: 1 out of 751 total

EHAA Radar Sector 5 Northwest: 123.7000

EHAA Radar RIVER
Amsterdam, Netherlands

Feed Status: DOWN
Offline since: 2019-03-13 16:57:02 UTC

EHAM 140955Z 11010KT CAVOK 06/04 Q1000 NOSIG

EHAA Radar Sector 3 RIVER: 130.950

EHAA Radar South (Archives)
Amsterdam, Netherlands

Feed Status: UP
Listen in your browser - HTML5 player(in browser, HTML5)
Click here to listen with your own player(launches your MP3 player)

EHAM 140955Z 11010KT CAVOK 06/04 Q1000 NOSIG

EHAM Flight Activity (Flightaware)

Listeners: 0 out of 751 total

EHAA Radar Sector 3 South: 123.850

EHAA Radar South (Backup) (Archives)
Amsterdam, Netherlands

Feed Status: UP
Listen in your browser - HTML5 player(in browser, HTML5)
Click here to listen with your own player(launches your MP3 player)

EHAM 140955Z 11010KT CAVOK 06/04 Q1000 NOSIG

EHAM Flight Activity (Flightaware)

Listeners: 0 out of 751 total

EHAA Radar Sector 3 South Backup : 127.775

EHAA Radar Southwest (Archives)
Amsterdam, Netherlands

Feed Status: UP
Listen in your browser - HTML5 player(in browser, HTML5)
Click here to listen with your own player(launches your MP3 player)

EHAM 140955Z 11010KT CAVOK 06/04 Q1000 NOSIG

EHAM Flight Activity (Flightaware)

Listeners: 0 out of 751 total

EHAA Radar Sector 4 Southwest: 125.750

EHAA Radar SUGOL (Archives)
Amsterdam, Netherlands

Feed Status: UP
Listen in your browser - HTML5 player(in browser, HTML5)
Click here to listen with your own player(launches your MP3 player)

EHAM 140955Z 11010KT CAVOK 06/04 Q1000 NOSIG

EHAM Flight Activity (Flightaware)

Listeners: 0 out of 751 total

EHAA Radar Sector 5 SUGOL: 118.800

EHAM Airside Ops Mgr (AOM)
Amsterdam, Netherlands

Feed Status: DOWN
Offline since: 2019-03-13 17:05:02 UTC

EHAM 140955Z 11010KT CAVOK 06/04 Q1000 NOSIG

Schiphol Airside Operations Manager: 130.475

EHAM App/Dep Backup (Archives)
Amsterdam, Netherlands

Feed Status: UP
Listen in your browser - HTML5 player(in browser, HTML5)
Click here to listen with your own player(launches your MP3 player)

EHAM 140955Z 11010KT CAVOK 06/04 Q1000 NOSIG

EHAM Flight Activity (Flightaware)

Listeners: 0 out of 751 total

Schiphol App/Dep Backup: 118.075

EHAM App/Dep TMA East (Archives)
Amsterdam, Netherlands

Feed Status: UP
Listen in your browser - HTML5 player(in browser, HTML5)
Click here to listen with your own player(launches your MP3 player)

EHAM 140955Z 11010KT CAVOK 06/04 Q1000 NOSIG

EHAM Flight Activity (Flightaware)

Listeners: 3 out of 751 total

Amsterdam Approach/Departure TMA East: 119.055

EHAM App/Dep TMA West (Archives)
Amsterdam, Netherlands

Feed Status: UP
Listen in your browser - HTML5 player(in browser, HTML5)
Click here to listen with your own player(launches your MP3 player)

EHAM 140955Z 11010KT CAVOK 06/04 Q1000 NOSIG

EHAM Flight Activity (Flightaware)

Listeners: 2 out of 751 total

Amsterdam Approach/Departure TMA West: 121.200

EHAM Apron (North) (Archives)
Amsterdam, Netherlands

Feed Status: UP
Listen in your browser - HTML5 player(in browser, HTML5)
Click here to listen with your own player(launches your MP3 player)

EHAM 140955Z 11010KT CAVOK 06/04 Q1000 NOSIG

EHAM Flight Activity (Flightaware)

Listeners: 0 out of 751 total

Schiphol Apron (North): 121.880

EHAM Apron (South) (Archives)
Amsterdam, Netherlands

Feed Status: UP
Listen in your browser - HTML5 player(in browser, HTML5)
Click here to listen with your own player(launches your MP3 player)

EHAM 140955Z 11010KT CAVOK 06/04 Q1000 NOSIG

EHAM Flight Activity (Flightaware)

Listeners: 0 out of 751 total

Schiphol Apron (South): 121.780

EHAM Arrival (Primary) (Archives)
Amsterdam, Netherlands

Feed Status: UP
Listen in your browser - HTML5 player(in browser, HTML5)
Click here to listen with your own player(launches your MP3 player)

EHAM 140955Z 11010KT CAVOK 06/04 Q1000 NOSIG

EHAM Flight Activity (Flightaware)

Listeners: 1 out of 751 total

Amsterdam Arrival : 118.400

EHAM Arrival (Secondary)
Amsterdam, Netherlands

Feed Status: DOWN
Offline since: 2019-03-13 16:59:02 UTC

EHAM 140955Z 11010KT CAVOK 06/04 Q1000 NOSIG

Amsterdam Arrival (Secondary): 131.150

EHAM Arrival (Secondary/Backup)
Amsterdam, Netherlands

Feed Status: DOWN
Offline since: 2019-03-13 16:59:02 UTC

EHAM 140955Z 11010KT CAVOK 06/04 Q1000 NOSIG

Amsterdam Arrival (Secondary Backup): 131.275

EHAM Arrival Backup/Discrete (Archives)
Amsterdam, Netherlands

Feed Status: UP
Listen in your browser - HTML5 player(in browser, HTML5)
Click here to listen with your own player(launches your MP3 player)

EHAM 140955Z 11010KT CAVOK 06/04 Q1000 NOSIG

EHAM Flight Activity (Flightaware)

Listeners: 0 out of 751 total

Schiphol Arrival Backup: 126.675

EHAM Clearance Delivery (Archives)
Amsterdam, Netherlands

Feed Status: UP
Listen in your browser - HTML5 player(in browser, HTML5)
Click here to listen with your own player(launches your MP3 player)

EHAM 140955Z 11010KT CAVOK 06/04 Q1000 NOSIG

EHAM Flight Activity (Flightaware)

Listeners: 0 out of 751 total

Schiphol Clearance Delivery: 121.980

EHAM Ground (Backup) (Archives)
Amsterdam, Netherlands

Feed Status: UP
Listen in your browser - HTML5 player(in browser, HTML5)
Click here to listen with your own player(launches your MP3 player)

EHAM 140955Z 11010KT CAVOK 06/04 Q1000 NOSIG

EHAM Flight Activity (Flightaware)

Listeners: 1 out of 751 total

Schiphol Ground (Backup): 122.425

EHAM Ground (North) (Archives)
Amsterdam, Netherlands

Feed Status: UP
Listen in your browser - HTML5 player(in browser, HTML5)
Click here to listen with your own player(launches your MP3 player)

EHAM 140955Z 11010KT CAVOK 06/04 Q1000 NOSIG

EHAM Flight Activity (Flightaware)

Listeners: 1 out of 751 total

Schiphol Ground (North): 121.805

EHAM Ground (South) (Archives)
Amsterdam, Netherlands

Feed Status: UP
Listen in your browser - HTML5 player(in browser, HTML5)
Click here to listen with your own player(launches your MP3 player)

EHAM 140955Z 11010KT CAVOK 06/04 Q1000 NOSIG

EHAM Flight Activity (Flightaware)

Listeners: 2 out of 751 total

Schiphol Ground (South): 121.705

EHAM Ground (West) (Archives)
Amsterdam, Netherlands

Feed Status: UP
Listen in your browser - HTML5 player(in browser, HTML5)
Click here to listen with your own player(launches your MP3 player)

EHAM 140955Z 11010KT CAVOK 06/04 Q1000 NOSIG

EHAM Flight Activity (Flightaware)

Listeners: 1 out of 751 total

Schiphol Ground (West): 121.560

EHAM Info North Sea (North) (Archives)
Amsterdam, Netherlands

Feed Status: UP
Listen in your browser - HTML5 player(in browser, HTML5)
Click here to listen with your own player(launches your MP3 player)

EHAM 140955Z 11010KT CAVOK 06/04 Q1000 NOSIG

EHAM Flight Activity (Flightaware)

Listeners: 0 out of 751 total

Amsterdam Info North Sea (North): 119.175

EHAM Info North Sea (Over Land) (Archives)
Amsterdam, Netherlands

Feed Status: UP
Listen in your browser - HTML5 player(in browser, HTML5)
Click here to listen with your own player(launches your MP3 player)

EHAM 140955Z 11010KT CAVOK 06/04 Q1000 NOSIG

EHAM Flight Activity (Flightaware)

Listeners: 0 out of 751 total

Amsterdam Info North Sea (Over Land): 124.300

EHAM Info North Sea (South)
Amsterdam, Netherlands

Feed Status: DOWN
Offline since: 2019-03-13 16:57:02 UTC

EHAM 140955Z 11010KT CAVOK 06/04 Q1000 NOSIG

Amsterdam Info North Sea (South): 136.650

EHAM Ops (Archives)
Amsterdam, Netherlands

Feed Status: UP
Listen in your browser - HTML5 player(in browser, HTML5)
Click here to listen with your own player(launches your MP3 player)

EHAM 140955Z 11010KT CAVOK 06/04 Q1000 NOSIG

EHAM Flight Activity (Flightaware)

Listeners: 0 out of 751 total

Schiphol Ops 1: 465.770
Schiphol Ops 2: 466.470
Schiphol Runway Ops: 447.175

EHAM Schiphol Outbound Planner (Archives)
Amsterdam, Netherlands

Feed Status: UP
Listen in your browser - HTML5 player(in browser, HTML5)
Click here to listen with your own player(launches your MP3 player)

EHAM 140955Z 11010KT CAVOK 06/04 Q1000 NOSIG

EHAM Flight Activity (Flightaware)

Listeners: 0 out of 751 total

Schiphol Outbound Planner: 121.655

EHAM Tow Traffic
Amsterdam, Netherlands

Feed Status: DOWN
Offline since: 2019-03-13 17:03:02 UTC

EHAM 140955Z 11010KT CAVOK 06/04 Q1000 NOSIG

Schiphol Tow Traffic: 134.875

EHAM Tower (06/24) (Archives)
Amsterdam, Netherlands

Feed Status: UP
Listen in your browser - HTML5 player(in browser, HTML5)
Click here to listen with your own player(launches your MP3 player)

EHAM 140955Z 11010KT CAVOK 06/04 Q1000 NOSIG

EHAM Flight Activity (Flightaware)

Listeners: 0 out of 751 total

Schiphol Tower Main 06/24: 118.950

EHAM Tower (18C/36C-27/09) (Archives)
Amsterdam, Netherlands

Feed Status: UP
Listen in your browser - HTML5 player(in browser, HTML5)
Click here to listen with your own player(launches your MP3 player)

EHAM 140955Z 11010KT CAVOK 06/04 Q1000 NOSIG

EHAM Flight Activity (Flightaware)

Listeners: 2 out of 751 total

Schiphol Tower Main 18C/36C - 27/09: 118.100

EHAM Tower (18L/36R-22/04) (Archives)
Amsterdam, Netherlands

Feed Status: UP
Listen in your browser - HTML5 player(in browser, HTML5)
Click here to listen with your own player(launches your MP3 player)

EHAM 140955Z 11010KT CAVOK 06/04 Q1000 NOSIG

EHAM Flight Activity (Flightaware)

Listeners: 2 out of 751 total

Schiphol Tower Main 18L/36R - 22/04: 119.225

EHAM Tower Backup (Archives)
Amsterdam, Netherlands

Feed Status: UP
Listen in your browser - HTML5 player(in browser, HTML5)
Click here to listen with your own player(launches your MP3 player)

EHAM 140955Z 11010KT CAVOK 06/04 Q1000 NOSIG

EHAM Flight Activity (Flightaware)

Listeners: 0 out of 751 total

Schiphol Tower Backup: 119.905

EHAM Tower West (18R/36L) (Archives)
Amsterdam, Netherlands

Feed Status: UP
Listen in your browser - HTML5 player(in browser, HTML5)
Click here to listen with your own player(launches your MP3 player)

EHAM 140955Z 11010KT CAVOK 06/04 Q1000 NOSIG

EHAM Flight Activity (Flightaware)

Listeners: 1 out of 751 total

Schiphol Tower West 18R/36L: 118.280

EHBK ATIS (Archives)
Beek, Netherlands

Feed Status: UP
Listen in your browser - HTML5 player(in browser, HTML5)
Click here to listen with your own player(launches your MP3 player)

EHBK 140955Z AUTO 15008KT 9999 NSC 07/03 Q1000 NOSIG

EHBK Flight Activity (Flightaware)

Listeners: 0 out of 751 total

Beek ATIS: 124.575

EHBK Gnd/Twr/App (Archives)
Beek, Netherlands

Feed Status: UP
Listen in your browser - HTML5 player(in browser, HTML5)
Click here to listen with your own player(launches your MP3 player)

EHBK 140955Z AUTO 15008KT 9999 NSC 07/03 Q1000 NOSIG

EHBK Flight Activity (Flightaware)

Listeners: 1 out of 751 total

Beek Approach: 120.200
Beek Approach: 123.975
Beek Ground: 121.825
Beek Tower: 119.475
Beek Tower: 119.700

MUAC/Eurocontrol Delta High (Archives)
Beek, Netherlands

Feed Status: UP
Listen in your browser - HTML5 player(in browser, HTML5)
Click here to listen with your own player(launches your MP3 player)

EHBK 140955Z AUTO 15008KT 9999 NSC 07/03 Q1000 NOSIG

EHBK Flight Activity (Flightaware)

Listeners: 0 out of 751 total

MUAC Delta High Sector: 132.085

MUAC/Eurocontrol Koksy (Archives)
Beek, Netherlands

Feed Status: UP
Listen in your browser - HTML5 player(in browser, HTML5)
Click here to listen with your own player(launches your MP3 player)

EHBK 140955Z AUTO 15008KT 9999 NSC 07/03 Q1000 NOSIG

EHBK Flight Activity (Flightaware)

Listeners: 0 out of 751 total

MUAC Koksy Sector: 132.205

MUAC/Eurocontrol Koksy High (Archives)
Beek, Netherlands

Feed Status: UP
Listen in your browser - HTML5 player(in browser, HTML5)
Click here to listen with your own player(launches your MP3 player)

EHBK 140955Z AUTO 15008KT 9999 NSC 07/03 Q1000 NOSIG

EHBK Flight Activity (Flightaware)

Listeners: 0 out of 751 total

MUAC Koksy High Sector: 132.755

MUAC/Eurocontrol Lux High (Archives)
Beek, Netherlands

Feed Status: UP
Listen in your browser - HTML5 player(in browser, HTML5)
Click here to listen with your own player(launches your MP3 player)

EHBK 140955Z AUTO 15008KT 9999 NSC 07/03 Q1000 NOSIG

EHBK Flight Activity (Flightaware)

Listeners: 0 out of 751 total

MUAC Lux High Sector: 132.315

MUAC/Eurocontrol Lux Low (Archives)
Beek, Netherlands

Feed Status: UP
Listen in your browser - HTML5 player(in browser, HTML5)
Click here to listen with your own player(launches your MP3 player)

EHBK 140955Z AUTO 15008KT 9999 NSC 07/03 Q1000 NOSIG

EHBK Flight Activity (Flightaware)

Listeners: 0 out of 751 total

MUAC Lux Low Sector: 133.355

MUAC/Eurocontrol Olno Low (Archives)
Beek, Netherlands

Feed Status: UP
Listen in your browser - HTML5 player(in browser, HTML5)
Click here to listen with your own player(launches your MP3 player)

EHBK 140955Z AUTO 15008KT 9999 NSC 07/03 Q1000 NOSIG

EHBK Flight Activity (Flightaware)

Listeners: 0 out of 751 total

MUAC Olno Low Sector: 132.855

MUAC/Eurocontrol Ruhr (Archives)
Beek, Netherlands

Feed Status: UP
Listen in your browser - HTML5 player(in browser, HTML5)
Click here to listen with your own player(launches your MP3 player)

EHBK 140955Z AUTO 15008KT 9999 NSC 07/03 Q1000 NOSIG

EHBK Flight Activity (Flightaware)

Listeners: 0 out of 751 total

MUAC Ruhr Sector: 132.515

EHEH Approach #1 (Archives)
Eindhoven, Netherlands

Feed Status: UP
Listen in your browser - HTML5 player(in browser, HTML5)
Click here to listen with your own player(launches your MP3 player)

EHEH 140955Z AUTO 12010KT 090V150 9999 FEW077 SCT083 OVC120 07/03 Q1000 BLU 12008KT 9999 SCT040 BKN120 TEMPO SCT020 BKN025

EHEH Flight Activity (Flightaware)

Listeners: 0 out of 751 total

DutchMil: 132.530
DutchMil RAPCON South: 379.925
DutchMil RAPCON South: 123.180
Eindhoven Arrival/Director: 124.530

EHEH Approach #2 (Archives)
Eindhoven, Netherlands

Feed Status: UP
Listen in your browser - HTML5 player(in browser, HTML5)
Click here to listen with your own player(launches your MP3 player)

EHEH 140955Z AUTO 12010KT 090V150 9999 FEW077 SCT083 OVC120 07/03 Q1000 BLU 12008KT 9999 SCT040 BKN120 TEMPO SCT020 BKN025

EHEH Flight Activity (Flightaware)

Listeners: 1 out of 751 total

Eindhoven Approach/Arrival: 124.530
Eindhoven Approach/Arrival: 132.530
Eindhoven Approach/Arrival: 278.050

EHEH Ground (Archives)
Eindhoven, Netherlands

Feed Status: UP
Listen in your browser - HTML5 player(in browser, HTML5)
Click here to listen with your own player(launches your MP3 player)

EHEH 140955Z AUTO 12010KT 090V150 9999 FEW077 SCT083 OVC120 07/03 Q1000 BLU 12008KT 9999 SCT040 BKN120 TEMPO SCT020 BKN025

EHEH Flight Activity (Flightaware)

Listeners: 0 out of 751 total

Eindhoven Ground: 121.930
Eindhoven Ground: 369.250

EHEH Tower #1 (Archives)
Eindhoven, Netherlands

Feed Status: UP
Listen in your browser - HTML5 player(in browser, HTML5)
Click here to listen with your own player(launches your MP3 player)

EHEH 140955Z AUTO 12010KT 090V150 9999 FEW077 SCT083 OVC120 07/03 Q1000 BLU 12008KT 9999 SCT040 BKN120 TEMPO SCT020 BKN025

EHEH Flight Activity (Flightaware)

Listeners: 0 out of 751 total

Budel Tower: 122.155
Eindhoven Tower: 131.005
Emergency/Guard: 121.500
Generic Tower: 122.100
Volkel Tower: 372.225
Volkel Tower: 136.080

EHEH Tower #2 (Archives)
Eindhoven, Netherlands

Feed Status: UP
Listen in your browser - HTML5 player(in browser, HTML5)
Click here to listen with your own player(launches your MP3 player)

EHEH 140955Z AUTO 12010KT 090V150 9999 FEW077 SCT083 OVC120 07/03 Q1000 BLU 12008KT 9999 SCT040 BKN120 TEMPO SCT020 BKN025

EHEH Flight Activity (Flightaware)

Listeners: 1 out of 751 total

Eindhoven Tower: 122.100
Eindhoven Tower: 131.005
Eindhoven Tower: 281.150

EHGG Approach (Archives)
Groningen, Netherlands

Feed Status: UP
Listen in your browser - HTML5 player(in browser, HTML5)
Click here to listen with your own player(launches your MP3 player)

EHGG 140955Z AUTO 11006KT 080V150 9999 NSC 04/02 Q1003 NOSIG

EHGG Flight Activity (Flightaware)

Listeners: 0 out of 751 total

Eelde Approach: 120.305

EHGG ATIS (Archives)
Groningen, Netherlands

Feed Status: UP
Listen in your browser - HTML5 player(in browser, HTML5)
Click here to listen with your own player(launches your MP3 player)

EHGG 140955Z AUTO 11006KT 080V150 9999 NSC 04/02 Q1003 NOSIG

EHGG Flight Activity (Flightaware)

Listeners: 0 out of 751 total

Groningen ATIS: 133.555

EHGG Ground (Archives)
Groningen, Netherlands

Feed Status: UP
Listen in your browser - HTML5 player(in browser, HTML5)
Click here to listen with your own player(launches your MP3 player)

EHGG 140955Z AUTO 11006KT 080V150 9999 NSC 04/02 Q1003 NOSIG

EHGG Flight Activity (Flightaware)

Listeners: 0 out of 751 total

Eelde Clearance Delivery/Ground: 121.705

EHGG Guard/Emergency (Archives)
Groningen, Netherlands

Feed Status: UP
Listen in your browser - HTML5 player(in browser, HTML5)
Click here to listen with your own player(launches your MP3 player)

EHGG 140955Z AUTO 11006KT 080V150 9999 NSC 04/02 Q1003 NOSIG

EHGG Flight Activity (Flightaware)

Listeners: 0 out of 751 total

Emergency/Guard: 121.500

EHGG Tower (Archives)
Groningen, Netherlands

Feed Status: UP
Listen in your browser - HTML5 player(in browser, HTML5)
Click here to listen with your own player(launches your MP3 player)

EHGG 140955Z AUTO 11006KT 080V150 9999 NSC 04/02 Q1003 NOSIG

EHGG Flight Activity (Flightaware)

Listeners: 1 out of 751 total

Eelde Tower: 118.705

MUAC/Eurocontrol (EHGG Area) (Archives)
Groningen, Netherlands

Feed Status: UP
Listen in your browser - HTML5 player(in browser, HTML5)
Click here to listen with your own player(launches your MP3 player)

EHGG 140955Z AUTO 11006KT 080V150 9999 NSC 04/02 Q1003 NOSIG

EHGG Flight Activity (Flightaware)

Listeners: 1 out of 751 total

MUAC Holstein High Sector: 132.775
MUAC Holstein Sector: 120.9333
MUAC Javer High Sector: 134.700
MUAC Jever Sector: 136.4666

EHHV CTAF (Archives)
Hilversum, Netherlands

Feed Status: UP
Listen in your browser - HTML5 player(in browser, HTML5)
Click here to listen with your own player(launches your MP3 player)

EHHV Flight Activity (Flightaware)

Listeners: 0 out of 751 total

Hilversum Radio: 131.025

Approach/Dutch Mil Radar (Archives)
Lelystad, Netherlands

Feed Status: UP
Listen in your browser - HTML5 player(in browser, HTML5)
Click here to listen with your own player(launches your MP3 player)

EHLE 140955Z AUTO 12010KT 9999 // NSC 05/04 Q1001 RE// NOSIG

EHLE Flight Activity (Flightaware)

Listeners: 0 out of 751 total

Dutch Mil Flight Info: 264.325
Dutch Mil Radar: 128.355
Dutch Mil Radar: 132.350

EHLE Del/Twr (Archives)
Lelystad, Netherlands

Feed Status: UP
Listen in your browser - HTML5 player(in browser, HTML5)
Click here to listen with your own player(launches your MP3 player)

EHLE 140955Z AUTO 12010KT 9999 // NSC 05/04 Q1001 RE// NOSIG

EHLE Flight Activity (Flightaware)

Listeners: 8 out of 751 total

Lelystad Clearance Delivery: 123.680
Lelystad Tower: 135.180
Lelystad Tower: 123.830

EHMC/EHML Military/Radar
Nieuw-Milligen, Netherlands

Feed Status: DOWN
Offline since: 2019-11-13 12:43:38 UTC

AMCC: 234.000
Belga Radar: 129.325
Command Post: 313.550
Dutch Military Radar: 120.825
Dutch Military Radar: 125.925
Dutch Military Radar: 128.350
GCI: 363.100
Lippe Radar: 131.075
London Mil: 135.275
Meteo: 284.425

EHMC/EHML Military/Radar
Nieuw-Milligen, Netherlands

Feed Status: DOWN
Offline since: 2019-11-13 12:43:38 UTC

AMCC: 234.000
Belga Radar: 129.325
Command Post: 313.550
Dutch Military Radar: 120.825
Dutch Military Radar: 125.925
Dutch Military Radar: 128.350
GCI: 363.100
Lippe Radar: 131.075
London Mil: 135.275
Meteo: 284.425

EHMM CTAF
Middenmeer, Netherlands

Feed Status: DOWN
Offline since: 2019-11-08 13:29:39 UTC

Middenmeer CTAF: 123.425

EHRD Approach (Archives)
Rotterdam, Netherlands

Feed Status: UP
Listen in your browser - HTML5 player(in browser, HTML5)
Click here to listen with your own player(launches your MP3 player)

EHRD 140955Z AUTO 12011KT 080V160 9999 BKN030 OVC041 06/04 Q0999 NOSIG

EHRD Flight Activity (Flightaware)

Listeners: 0 out of 751 total

Rotterdam Approach: 124.535
Rotterdam Approach: 281.050

EHRD Clearance Delivery (Archives)
Rotterdam, Netherlands

Feed Status: UP
Listen in your browser - HTML5 player(in browser, HTML5)
Click here to listen with your own player(launches your MP3 player)

EHRD 140955Z AUTO 12011KT 080V160 9999 BKN030 OVC041 06/04 Q0999 NOSIG

EHRD Flight Activity (Flightaware)

Listeners: 0 out of 751 total

Rotterdam Del/Gnd: 122.180

EHRD Del/Twr (Archives)
Rotterdam, Netherlands

Feed Status: UP
Listen in your browser - HTML5 player(in browser, HTML5)
Click here to listen with your own player(launches your MP3 player)

EHRD 140955Z AUTO 12011KT 080V160 9999 BKN030 OVC041 06/04 Q0999 NOSIG

EHRD Flight Activity (Flightaware)

Listeners: 0 out of 751 total

Rotterdam Del/Gnd: 122.180
Rotterdam Tower: 118.205

EHRD Gnd/Twr/App (Archives)
Rotterdam, Netherlands

Feed Status: UP
Listen in your browser - HTML5 player(in browser, HTML5)
Click here to listen with your own player(launches your MP3 player)

EHRD 140955Z AUTO 12011KT 080V160 9999 BKN030 OVC041 06/04 Q0999 NOSIG

EHRD Flight Activity (Flightaware)

Listeners: 2 out of 751 total

Adam Info: 124.300
Regional Guard: 119.705
Rotterdam Approach: 127.025
Rotterdam Del/Gnd: 122.180
Rotterdam Tower: 118.205
SAR: 123.100
SAR: 282.800

EHRD Tower (Archives)
Rotterdam, Netherlands

Feed Status: UP
Listen in your browser - HTML5 player(in browser, HTML5)
Click here to listen with your own player(launches your MP3 player)

EHRD 140955Z AUTO 12011KT 080V160 9999 BKN030 OVC041 06/04 Q0999 NOSIG

EHRD Flight Activity (Flightaware)

Listeners: 0 out of 751 total

Rotterdam Tower: 118.205
Rotterdam Tower: 362.300

EHRD Twr/App
Rotterdam, Netherlands

Feed Status: DOWN
Offline since: 2019-11-14 10:15:39 UTC

EHRD 140955Z AUTO 12011KT 080V160 9999 BKN030 OVC041 06/04 Q0999 NOSIG

Rotterdam Approach: 127.025
Rotterdam Tower: 118.205

EHTX Gnd/Twr (Archives)
Texel, Netherlands

Feed Status: UP
Listen in your browser - HTML5 player(in browser, HTML5)
Click here to listen with your own player(launches your MP3 player)

EHTX Flight Activity (Flightaware)

Listeners: 1 out of 751 total

Texel Radio (Ground/Tower): 119.300

EHVL CTAF/Range Control (Archives)
Vlieland, Netherlands

Feed Status: UP
Listen in your browser - HTML5 player(in browser, HTML5)
Click here to listen with your own player(launches your MP3 player)

EHVL 140955Z AUTO 13018KT 9999 OVC100 06/04 Q1001 BLU

EHVL Flight Activity (Flightaware)

Listeners: 0 out of 751 total

Cornfield VHF (CTAF): 122.100
Range Controller (Primary): 279.000
Range Controller (Secondary): 369.200
Range Controller VHF: 138.075

EICK Approach/Departure (Archives)
Cork, Ireland

Feed Status: UP
Listen in your browser - HTML5 player(in browser, HTML5)
Click here to listen with your own player(launches your MP3 player)

EICK 140930Z 34021KT 9999 FEW013 04/01 Q1005 NOSIG

EICK Flight Activity (Flightaware)

Listeners: 0 out of 751 total

Cork Approach: 119.900

EICK Gnd/Twr/App/Dep (Archives)
Cork, Ireland

Feed Status: UP
Listen in your browser - HTML5 player(in browser, HTML5)
Click here to listen with your own player(launches your MP3 player)

EICK 140930Z 34021KT 9999 FEW013 04/01 Q1005 NOSIG

EICK Flight Activity (Flightaware)

Listeners: 4 out of 751 total

Cork Approach: 119.900
Cork Ground: 121.850
Cork Tower: 119.300

EICK Ground/Tower (Archives)
Cork, Ireland

Feed Status: UP
Listen in your browser - HTML5 player(in browser, HTML5)
Click here to listen with your own player(launches your MP3 player)

EICK 140930Z 34021KT 9999 FEW013 04/01 Q1005 NOSIG

EICK Flight Activity (Flightaware)

Listeners: 0 out of 751 total

Cork Ground: 121.850
Cork Tower: 119.300

EIDW Approach
Dublin, Ireland

Feed Status: DOWN
Offline since: 2019-11-14 06:01:38 UTC

EIDW 140930Z 01019KT 9999 FEW011 FEW018CB SCT050 04/02 Q1005 NOSIG

Dublin Approach: 121.100

EIDW Approach (Final)
Dublin, Ireland

Feed Status: DOWN
Offline since: 2019-11-14 06:01:38 UTC

EIDW 140930Z 01019KT 9999 FEW011 FEW018CB SCT050 04/02 Q1005 NOSIG

Dublin Approach (Final): 119.925

EIDW Clearance Delivery
Dublin, Ireland

Feed Status: DOWN
Offline since: 2019-11-14 06:01:38 UTC

EIDW 140930Z 01019KT 9999 FEW011 FEW018CB SCT050 04/02 Q1005 NOSIG

Dublin Clearance Delivery: 121.875

EIDW Del/Gnd/Twr/App/Center
Dublin, Ireland

Feed Status: DOWN
Offline since: 2019-11-14 06:01:38 UTC

EIDW 140930Z 01019KT 9999 FEW011 FEW018CB SCT050 04/02 Q1005 NOSIG

Dublin Approach: 121.100
Dublin Approach (backup): 119.550
Dublin Centre North: 129.175
Dublin Centre South: 126.250
Dublin Clearance Delivery: 121.875
Dublin FIS: 118.500
Dublin Ground: 121.800
Dublin Tower: 118.600

EIDW Ground
Dublin, Ireland

Feed Status: DOWN
Offline since: 2019-11-14 06:01:38 UTC

EIDW 140930Z 01019KT 9999 FEW011 FEW018CB SCT050 04/02 Q1005 NOSIG

Dublin Ground: 121.800

EIDW Ground (North)
Dublin, Ireland

Feed Status: DOWN
Offline since: 2019-11-14 06:01:38 UTC

EIDW 140930Z 01019KT 9999 FEW011 FEW018CB SCT050 04/02 Q1005 NOSIG

Dublin Ground (North): 118.750

EIDW Tower
Dublin, Ireland

Feed Status: DOWN
Offline since: 2019-11-14 06:01:38 UTC

EIDW 140930Z 01019KT 9999 FEW011 FEW018CB SCT050 04/02 Q1005 NOSIG

Dublin Tower: 118.600

EIKN Gnd/Twr/App (Archives)
Charlestown, Ireland

Feed Status: UP
Listen in your browser - HTML5 player(in browser, HTML5)
Click here to listen with your own player(launches your MP3 player)

EIKN 140930Z 36007KT 320V030 9999 FEW020CB 03/00 Q1009 NOSIG

EIKN Flight Activity (Flightaware)

Listeners: 1 out of 751 total

Connaught Ground: 121.900
Connaught Tower: 130.700
Shannon Low Level: 119.075

EINN Approach/Departure (Archives)
Shannon, Ireland

Feed Status: UP
Listen in your browser - HTML5 player(in browser, HTML5)
Click here to listen with your own player(launches your MP3 player)

EINN 140930Z 35011KT 9999 FEW010 04/01 Q1008 NOSIG

EINN Flight Activity (Flightaware)

Listeners: 0 out of 751 total

Shannon Approach Radar: 121.400
Shannon Low: 124.700

EINN Gnd/Twr/Ops (Archives)
Shannon, Ireland

Feed Status: UP
Listen in your browser - HTML5 player(in browser, HTML5)
Click here to listen with your own player(launches your MP3 player)

EINN 140930Z 35011KT 9999 FEW010 04/01 Q1008 NOSIG

EINN Flight Activity (Flightaware)

Listeners: 0 out of 751 total

Aer Lingus Ops: 131.500
Service Air Ops: 131.450
Shannon Ground: 121.800
Shannon Tower: 118.700
Sig Ops (Pre-Clearance): 131.590

EINN Shannon Control High #1 (Archives)
Shannon, Ireland

Feed Status: UP
Listen in your browser - HTML5 player(in browser, HTML5)
Click here to listen with your own player(launches your MP3 player)

EINN 140930Z 35011KT 9999 FEW010 04/01 Q1008 NOSIG

EINN Flight Activity (Flightaware)

Listeners: 12 out of 751 total

Shannon Clearance (Oceanic only): 121.700
Shannon Control: 134.630
Shannon Control: 134.260
Shannon Control: 119.075
Shannon Control (BABAN/DEVOL Sector): 132.150
Shannon Control (Cork Sector): 131.150
Shannon Control (Shannon Sector): 134.280
Shannon Control (SOTA Sector): 135.600
Shannon Control NOTA: 125.875
Shannon Control NOTA: 122.980
Shannon High Level (SOTA Sector): 135.230
Shanwick Radio: 127.650
Track Information: 133.800

EINN Twr/App #1 (Archives)
Shannon, Ireland

Feed Status: UP
Listen in your browser - HTML5 player(in browser, HTML5)
Click here to listen with your own player(launches your MP3 player)

EINN 140930Z 35011KT 9999 FEW010 04/01 Q1008 NOSIG

EINN Flight Activity (Flightaware)

Listeners: 2 out of 751 total

Aer Lingus Ops: 131.500
Service Air Ops: 131.450
Shannon Approach Radar: 121.400
Shannon Control: Misc
Shannon Ground: 121.800
Shannon Tower: 118.700
Sig Ops (Pre-Clearance): 131.590

ENAT Twr/App/Control (Archives)
Alta, Norway

Feed Status: UP
Listen in your browser - HTML5 player(in browser, HTML5)
Click here to listen with your own player(launches your MP3 player)

ENAT 140950Z 18006KT 150V210 9999 SCT034 SCT120 02/M02 Q1005 RMK WIND 700FT 18013KT

ENAT Flight Activity (Flightaware)

Listeners: 1 out of 751 total

Alta Tower (to boat, Harbour Channel 12): 156.600
Alta Tower (to vehicle): 462.400
Alta Tower/Approach: 120.400
Norway Control: 126.700

ENBO Approach (Archives)
Bodo, Norway

Feed Status: UP
Listen in your browser - HTML5 player(in browser, HTML5)
Click here to listen with your own player(launches your MP3 player)

ENBO 140950Z 12005KT 9999 FEW015 BKN055 03/M01 Q1005 NOSIG

ENBO Flight Activity (Flightaware)

Listeners: 0 out of 751 total

Bodo Approach: 119.700

ENBO Tower (Archives)
Bodo, Norway

Feed Status: UP
Listen in your browser - HTML5 player(in browser, HTML5)
Click here to listen with your own player(launches your MP3 player)

ENBO 140950Z 12005KT 9999 FEW015 BKN055 03/M01 Q1005 NOSIG

ENBO Flight Activity (Flightaware)

Listeners: 0 out of 751 total

Bodo Tower: 118.100

ENCN Tower/Approach (Archives)
Kristiansand, Norway

Feed Status: UP
Listen in your browser - HTML5 player(in browser, HTML5)
Click here to listen with your own player(launches your MP3 player)

ENCN 140950Z 04010KT 9999 -RA FEW022 BKN038 04/03 Q1004

ENCN Flight Activity (Flightaware)

Listeners: 0 out of 751 total

Kjevik Tower: 118.100
Kjevik Tower/Approach: 119.950

ENEV Twr/App/ACC (Archives)
Evenes, Norway

Feed Status: UP
Listen in your browser - HTML5 player(in browser, HTML5)
Click here to listen with your own player(launches your MP3 player)

ENEV 140950Z 00000KT 9999 BKN047 M00/M03 Q1005 RMK WIND 1400FT 16008KT

ENEV Flight Activity (Flightaware)

Listeners: 0 out of 751 total

Evenes Approach: 120.100
Evenes Tower: 118.000
Norway ACC (Bodo Sector 25): 126.450

ENGM Approach (Archives)
Oslo, Norway

Feed Status: UP
Listen in your browser - HTML5 player(in browser, HTML5)
Click here to listen with your own player(launches your MP3 player)

ENGM 140950Z VRB02KT 8000 VCFG OVC016 01/01 Q1007 NOSIG

ENGM Flight Activity (Flightaware)

Listeners: 0 out of 751 total

Oslo Approach: 118.475
Oslo Approach: 120.450

ENGM Tower (Archives)
Oslo, Norway

Feed Status: UP
Listen in your browser - HTML5 player(in browser, HTML5)
Click here to listen with your own player(launches your MP3 player)

ENGM 140950Z VRB02KT 8000 VCFG OVC016 01/01 Q1007 NOSIG

ENGM Flight Activity (Flightaware)

Listeners: 1 out of 751 total

Oslo Tower (East): 120.100
Oslo Tower (West): 118.300

ENKJ RDO
Kjeller, Norway

Feed Status: DOWN
Offline since: 2019-11-12 01:06:05 UTC

Kjeller RDO: 119.100

ENLI CTAF (Archives)
Farsund, Norway

Feed Status: UP
Listen in your browser - HTML5 player(in browser, HTML5)
Click here to listen with your own player(launches your MP3 player)

ENLI Flight Activity (Flightaware)

Listeners: 0 out of 751 total

Lista Traffic/Lista Radio: 126.450

ENML Gnd/Twr/App/Center (Archives)
Molde, Norway

Feed Status: UP
Listen in your browser - HTML5 player(in browser, HTML5)
Click here to listen with your own player(launches your MP3 player)

ENML 140950Z 06005KT 9999 FEW016 SCT070 02/00 Q1006

ENML Flight Activity (Flightaware)

Listeners: 0 out of 751 total

Molde Info: 119.950

ENRK CTAF (Archives)
Astorp, Norway

Feed Status: UP
Listen in your browser - HTML5 player(in browser, HTML5)
Click here to listen with your own player(launches your MP3 player)

ENRK Flight Activity (Flightaware)

Listeners: 0 out of 751 total

Rakkestad CTAF: 122.950

ENOR Sector 8 (Archives)
Moss, Norway

Feed Status: UP
Listen in your browser - HTML5 player(in browser, HTML5)
Click here to listen with your own player(launches your MP3 player)

ENOR Flight Activity (Flightaware)

Listeners: 0 out of 751 total

Norway Center (FIR) Sector 8: 118.875

ENRY Tower (Archives)
Moss, Norway

Feed Status: UP
Listen in your browser - HTML5 player(in browser, HTML5)
Click here to listen with your own player(launches your MP3 player)

ENRY 140950Z 05008KT 020V080 9999 SCT007 BKN010 03/02 Q1007 TEMPO BKN007

ENRY Flight Activity (Flightaware)

Listeners: 0 out of 751 total

Rygge Tower: 119.500

ENSO AFIS (Archives)
Stord, Norway

Feed Status: UP
Listen in your browser - HTML5 player(in browser, HTML5)
Click here to listen with your own player(launches your MP3 player)

ENSO 140920Z VRB02KT 9999 VCSH FEW050 SCT060 05/M01 Q1004

ENSO Flight Activity (Flightaware)

Listeners: 1 out of 751 total

Stord AFIS: 120.200

ENTC Tower/App (Archives)
Langnes, Norway

Feed Status: UP
Listen in your browser - HTML5 player(in browser, HTML5)
Click here to listen with your own player(launches your MP3 player)

ENTC 140950Z VRB03KT CAVOK M05/M06 Q1005 RMK WIND 2600FT 33003KT

ENTC Flight Activity (Flightaware)

Listeners: 0 out of 751 total

Langnes Tower: 118.300
Langnes VDF (Approach): 123.750

ENTO Tower/App (Archives)
Sandefjord, Norway

Feed Status: UP
Listen in your browser - HTML5 player(in browser, HTML5)
Click here to listen with your own player(launches your MP3 player)

ENTO 140950Z 04006KT 010V080 7000 OVC006 03/03 Q1006 TEMPO SHRASN

ENTO Flight Activity (Flightaware)

Listeners: 0 out of 751 total

ENJB Tonsberg Airport - Jarlsberg - CTAF: 122.300
Farris Approach (TCA): 134.050
Sandefjord Tower: 118.650

ENVA Gnd/Twr/App (Archives)
Trondheim, Norway

Feed Status: UP
Listen in your browser - HTML5 player(in browser, HTML5)
Click here to listen with your own player(launches your MP3 player)

ENVA 140950Z 12006KT CAVOK M02/M04 Q1006 NOSIG RMK WIND 670FT 14005KT

ENVA Flight Activity (Flightaware)

Listeners: 0 out of 751 total

Trondheim Approach: 118.600
Trondheim Ground: 121.600
Trondheim Tower: 119.400

ENZV Gnd/Twr/App (Archives)
Stavanger, Norway

Feed Status: UP
Listen in your browser - HTML5 player(in browser, HTML5)
Click here to listen with your own player(launches your MP3 player)

ENZV 140950Z VRB01KT 9999 -RA FEW007 SCT016 BKN030 05/03 Q1003 NOSIG

ENZV Flight Activity (Flightaware)

Listeners: 2 out of 751 total

Sola Approach/Departure: 119.600
Sola Ground: 121.750
Sola Tower: 118.350

EPBY Tower (Archives)
Bydgoszcz, Poland

Feed Status: UP
Listen in your browser - HTML5 player(in browser, HTML5)
Click here to listen with your own player(launches your MP3 player)

EPBY 140930Z 23006KT 6000 BKN005 05/04 Q1012

EPBY Flight Activity (Flightaware)

Listeners: 0 out of 751 total

Bydgoszcz Tower: 131.000

EPGD Tower/Approach (Archives)
Gdansk, Poland

Feed Status: UP
Listen in your browser - HTML5 player(in browser, HTML5)
Click here to listen with your own player(launches your MP3 player)

EPGD 140930Z 23010KT 190V250 9999 FEW008 SCT011 05/02 Q1011

EPGD Flight Activity (Flightaware)

Listeners: 1 out of 751 total

Gdansk Approach: 127.275
Gdansk Tower: 118.100

EPKK Tower/App (Archives)
Krakow, Poland

Feed Status: UP
Listen in your browser - HTML5 player(in browser, HTML5)
Click here to listen with your own player(launches your MP3 player)

EPKK 140930Z 06004KT 030V110 9999 FEW012 SCT033 05/02 Q1013

EPKK Flight Activity (Flightaware)

Listeners: 2 out of 751 total

Krakow Approach: 121.075
Krakow Approach: 123.258
Krakow Tower: 123.250

EPKR CTAF (Archives)
Krosno, Poland

Feed Status: UP
Listen in your browser - HTML5 player(in browser, HTML5)
Click here to listen with your own player(launches your MP3 player)

EPKR Flight Activity (Flightaware)

Listeners: 0 out of 751 total

Krosno CTAF: 122.400

EPKT Del/Twr/App (Archives)
Katowice, Poland

Feed Status: UP
Listen in your browser - HTML5 player(in browser, HTML5)
Click here to listen with your own player(launches your MP3 player)

EPKT 140930Z 14004KT 110V180 9999 OVC007 03/01 Q1012

EPKT Flight Activity (Flightaware)

Listeners: 1 out of 751 total

Katowice Delivery: 121.800
Katowice Tower: 129.250
Krakow Approach: 135.400
Krakow Approach: 121.075

EPKT Delivery/Approach (Archives)
Katowice, Poland

Feed Status: UP
Listen in your browser - HTML5 player(in browser, HTML5)
Click here to listen with your own player(launches your MP3 player)

EPKT 140930Z 14004KT 110V180 9999 OVC007 03/01 Q1012

EPKT Flight Activity (Flightaware)

Listeners: 0 out of 751 total

Katowice Delivery: 121.800
Krakow Approach: 121.075

EPKT Tower/Approach (Archives)
Katowice, Poland

Feed Status: UP
Listen in your browser - HTML5 player(in browser, HTML5)
Click here to listen with your own player(launches your MP3 player)

EPKT 140930Z 14004KT 110V180 9999 OVC007 03/01 Q1012

EPKT Flight Activity (Flightaware)

Listeners: 0 out of 751 total

Katowice Tower: 129.250
Krakow Approach: 135.400

EPLL Tower (Archives)
Lodz, Poland

Feed Status: UP
Listen in your browser - HTML5 player(in browser, HTML5)
Click here to listen with your own player(launches your MP3 player)

EPLL 140930Z VRB02KT 9999 BKN006 03/02 Q1013

EPLL Flight Activity (Flightaware)

Listeners: 1 out of 751 total

Lodz Tower: 124.230

EPPO Twr/App/FIS
Poznan, Poland

Feed Status: DOWN
Offline since: 2019-11-14 09:18:39 UTC

EPPO 140930Z 16004KT CAVOK 05/03 Q1012

Poznan Approach: 129.025
Poznan Approach: 127.225
Poznan FIS: 126.300
Poznan Tower: 119.975

EPRZ Del/Twr/EPWW Radar (Archives)
Jasionka, Poland

Feed Status: UP
Listen in your browser - HTML5 player(in browser, HTML5)
Click here to listen with your own player(launches your MP3 player)

EPRZ 140930Z 27003KT 220V300 9999 SCT011 OVC020 07/04 Q1013

EPRZ Flight Activity (Flightaware)

Listeners: 2 out of 751 total

EPWW Radar: 134.175
EPWW Radar: 120.950
Rzeszow Delivery: 121.800
Rzeszow Tower: 126.800

EPWA Approach #1 (Archives)
Warsaw, Poland

Feed Status: UP
Listen in your browser - HTML5 player(in browser, HTML5)
Click here to listen with your own player(launches your MP3 player)

EPWA 140930Z VRB02KT 9999 BKN011 05/03 Q1013 TEMPO BKN015

EPWA Flight Activity (Flightaware)

Listeners: 4 out of 751 total

Warsaw Approach: 128.800

EPWA Approach #2 (Archives)
Warsaw, Poland

Feed Status: UP
Listen in your browser - HTML5 player(in browser, HTML5)
Click here to listen with your own player(launches your MP3 player)

EPWA 140930Z VRB02KT 9999 BKN011 05/03 Q1013 TEMPO BKN015

EPWA Flight Activity (Flightaware)

Listeners: 1 out of 751 total

Warsaw Approach: 125.050

EPWA Clearance Delivery (Archives)
Warsaw, Poland

Feed Status: UP
Listen in your browser - HTML5 player(in browser, HTML5)
Click here to listen with your own player(launches your MP3 player)

EPWA 140930Z VRB02KT 9999 BKN011 05/03 Q1013 TEMPO BKN015

EPWA Flight Activity (Flightaware)

Listeners: 1 out of 751 total

Warsaw Clearance Delivery: 121.600

EPWA Director (Archives)
Warsaw, Poland

Feed Status: UP
Listen in your browser - HTML5 player(in browser, HTML5)
Click here to listen with your own player(launches your MP3 player)

EPWA 140930Z VRB02KT 9999 BKN011 05/03 Q1013 TEMPO BKN015

EPWA Flight Activity (Flightaware)

Listeners: 0 out of 751 total

Warsaw Director: 129.375

EPWA Ground (Archives)
Warsaw, Poland

Feed Status: UP
Listen in your browser - HTML5 player(in browser, HTML5)
Click here to listen with your own player(launches your MP3 player)

EPWA 140930Z VRB02KT 9999 BKN011 05/03 Q1013 TEMPO BKN015

EPWA Flight Activity (Flightaware)

Listeners: 1 out of 751 total

Warsaw Ground: 121.900

EPWA Tower #1 (Archives)
Warsaw, Poland

Feed Status: UP
Listen in your browser - HTML5 player(in browser, HTML5)
Click here to listen with your own player(launches your MP3 player)

EPWA 140930Z VRB02KT 9999 BKN011 05/03 Q1013 TEMPO BKN015

EPWA Flight Activity (Flightaware)

Listeners: 3 out of 751 total

Warsaw Tower: 118.300

EPWA Tower #2 (Archives)
Warsaw, Poland

Feed Status: UP
Listen in your browser - HTML5 player(in browser, HTML5)
Click here to listen with your own player(launches your MP3 player)

EPWA 140930Z VRB02KT 9999 BKN011 05/03 Q1013 TEMPO BKN015

EPWA Flight Activity (Flightaware)

Listeners: 0 out of 751 total

Warsaw Tower: 118.300

EPWR Tower
Wroclaw, Poland

Feed Status: DOWN
Offline since: 2019-10-14 09:07:39 UTC

EPWR 140930Z 15007KT CAVOK 06/03 Q1012

Wroclaw Tower: 120.250

EPWR Twr/App (Archives)
Wroclaw, Poland

Feed Status: UP
Listen in your browser - HTML5 player(in browser, HTML5)
Click here to listen with your own player(launches your MP3 player)

EPPO 140930Z 16004KT CAVOK 05/03 Q1012

EPPO Flight Activity (Flightaware)

Listeners: 2 out of 751 total

Poznan Approach (South): 127.225

EPRZ Del/Twr/EPWW Radar (Archives)
Jasionka, Poland

Feed Status: UP
Listen in your browser - HTML5 player(in browser, HTML5)
Click here to listen with your own player(launches your MP3 player)

EPRZ 140930Z 27003KT 220V300 9999 SCT011 OVC020 07/04 Q1013

EPRZ Flight Activity (Flightaware)

Listeners: 2 out of 751 total

EPWW Radar: 134.175
EPWW Radar: 120.950
Rzeszow Delivery: 121.800
Rzeszow Tower: 126.800

ESDF Gnd/Twr (Archives)
Ronneby, Sweden

Feed Status: UP
Listen in your browser - HTML5 player(in browser, HTML5)
Click here to listen with your own player(launches your MP3 player)

ESDF 140950Z VRB02KT 9999 SCT010 BKN064 05/05 Q1008

ESDF Flight Activity (Flightaware)

Listeners: 0 out of 751 total

Ronneby Ground: 121.850
Ronneby Tower: 119.200

ESDF Ronneby Control (Archives)
Ronneby, Sweden

Feed Status: UP
Listen in your browser - HTML5 player(in browser, HTML5)
Click here to listen with your own player(launches your MP3 player)

ESDF 140950Z VRB02KT 9999 SCT010 BKN064 05/05 Q1008

ESDF Flight Activity (Flightaware)

Listeners: 1 out of 751 total

Ronneby Control: 128.450

ESGG Gnd/Twr/Control (Archives)
Gothenburg, Sweden

Feed Status: UP
Listen in your browser - HTML5 player(in browser, HTML5)
Click here to listen with your own player(launches your MP3 player)

ESGG 140950Z 14007KT 5000 -RA FEW003 BKN006 OVC011 03/02 Q1006 R21/29//95

ESGG Flight Activity (Flightaware)

Listeners: 1 out of 751 total

Emergency/Guard: 121.500
Goteborg Arrival: 120.125
Goteborg Control: 124.675
Goteborg Control: 124.200
Landvetter Ground: 121.900
Landvetter Tower: 118.605

ESMQ Tower (Archives)
Kalmar, Sweden

Feed Status: UP
Listen in your browser - HTML5 player(in browser, HTML5)
Click here to listen with your own player(launches your MP3 player)

ESMQ 140950Z 18007KT 9999 FEW031 SCT097 07/06 Q1008

ESMQ Flight Activity (Flightaware)

Listeners: 0 out of 751 total

Kalmar Tower: 130.805

ESMS Tower (Archives)
Svedala, Sweden

Feed Status: UP
Listen in your browser - HTML5 player(in browser, HTML5)
Click here to listen with your own player(launches your MP3 player)

ESMS 140950Z 20004KT 9999 FEW012 SCT041 08/06 Q1008

ESMS Flight Activity (Flightaware)

Listeners: 0 out of 751 total

Malmo Tower: 118.800

ESOW Twr/CTAF/Control (Archives)
Stockholm, Sweden

Feed Status: UP
Listen in your browser - HTML5 player(in browser, HTML5)
Click here to listen with your own player(launches your MP3 player)

ESOW 140950Z 36005KT 7000 OVC004 02/02 Q1008 R01/290195

ESOW Flight Activity (Flightaware)

Listeners: 2 out of 751 total

Arlanda Approach: 123.750
Arlanda Approach: 126.655
Arlanda Approach: 130.325
Arlanda Departure: 124.100
Arlanda Tower: 118.505
Arlanda Tower: 128.725
Enkoping/Langtora: 123.525
Eskilstuna: 126.850
Frolunda: 123.400
Johannisberg CTAF: 123.650
Ska Edeby: 123.350
Stockholm Control: 120.155
Stockholm Control: 118.405
Stockholm Control: 118.280
Sweden Control: 133.260
Sweden Control: 129.175
Sweden Control: 131.130
Uppsala Tower: 119.200
Uppsala/Sundbro: 123.350
Vasteras Control: 125.955
Vasteras Tower: 130.600

ESPA Twr/Control (Archives)
Lulea, Sweden

Feed Status: UP
Listen in your browser - HTML5 player(in browser, HTML5)
Click here to listen with your own player(launches your MP3 player)

ESPA 140952Z 35002KT 3000 BR BKN003 BKN014 00/M00 Q1006

ESPA Flight Activity (Flightaware)

Listeners: 1 out of 751 total

Emergency/Guard: 121.500
Kallax Control: 125.450
Kallax Tower: 128.200
Sweden Control North: 131.050

ESSG Misc (Archives)
Ludvika, Sweden

Feed Status: UP
Listen in your browser - HTML5 player(in browser, HTML5)
Click here to listen with your own player(launches your MP3 player)

ESSG Flight Activity (Flightaware)

Listeners: 0 out of 751 total

Avesta, Gagnef, Siljansnas: 123.550
Borlange Tower: 127.300
Dala-Jarna: 123.350
Emergency/Guard: 121.500
Karlstad: 119.450
Koping, Arboga, Borberg: 123.150
Ludvika CTAF: 122.100
Mora: 129.850
Orebro: 120.275
Orsa: 123.400
Soaring Freq: 123.500
Sweden Control: 131.125
Sweden Control: 129.175
Sweden Control: 118.200
Sweden Control: 132.150

ESVQ CTAF (Archives)
Koping, Sweden

Feed Status: UP
Listen in your browser - HTML5 player(in browser, HTML5)
Click here to listen with your own player(launches your MP3 player)

ESVQ Flight Activity (Flightaware)

Listeners: 0 out of 751 total

Koping CTAF: 123.150

EVLA AFIS
Liepaja, Latvia

Feed Status: DOWN
Offline since: 2019-11-08 06:32:42 UTC

EVLA 140950Z AUTO 25014KT 6000 -DZ BKN005/// BKN010/// OVC012/// 08/08 Q1008

Liepaja AFIS: 129.400

EVRA Approach (Archives)
Riga, Latvia

Feed Status: UP
Listen in your browser - HTML5 player(in browser, HTML5)
Click here to listen with your own player(launches your MP3 player)

EVRA 140950Z 18014KT 9999 SCT016 BKN019 OVC033 12/10 Q1007 R18/290195 NOSIG

EVRA Flight Activity (Flightaware)

Listeners: 0 out of 751 total

Riga Approach: 129.925

EVRA Approach
Riga, Latvia

Feed Status: DOWN
Offline since: 2019-11-08 06:32:42 UTC

EVLA 140950Z AUTO 25014KT 6000 -DZ BKN005/// BKN010/// OVC012/// 08/08 Q1008

Riga Approach: 129.925

EVRA CTAF (Archives)
Riga, Latvia

Feed Status: UP
Listen in your browser - HTML5 player(in browser, HTML5)
Click here to listen with your own player(launches your MP3 player)

EVRA 140950Z 18014KT 9999 SCT016 BKN019 OVC033 12/10 Q1007 R18/290195 NOSIG

EVRA Flight Activity (Flightaware)

Listeners: 0 out of 751 total

Riga Approach (evenings): 134.850
Riga CTAF: 123.950

EVRA FIC (Archives)
Riga, Latvia

Feed Status: UP
Listen in your browser - HTML5 player(in browser, HTML5)
Click here to listen with your own player(launches your MP3 player)

EVRA 140950Z 18014KT 9999 SCT016 BKN019 OVC033 12/10 Q1007 R18/290195 NOSIG

EVRA Flight Activity (Flightaware)

Listeners: 0 out of 751 total

Riga FIC: 120.225

EVRA FIC
Riga, Latvia

Feed Status: DOWN
Offline since: 2019-11-08 06:32:42 UTC

EVLA 140950Z AUTO 25014KT 6000 -DZ BKN005/// BKN010/// OVC012/// 08/08 Q1008

Riga FIC: 120.225

EVRA Tower/Guard (Archives)
Riga, Latvia

Feed Status: UP
Listen in your browser - HTML5 player(in browser, HTML5)
Click here to listen with your own player(launches your MP3 player)

EVRA 140950Z 18014KT 9999 SCT016 BKN019 OVC033 12/10 Q1007 R18/290195 NOSIG

EVRA Flight Activity (Flightaware)

Listeners: 0 out of 751 total

Emergency/Guard: 121.500
Riga Tower: 118.100

EYPA Tower
Palanga, Lithuania

Feed Status: DOWN
Offline since: 2019-11-08 06:32:42 UTC

EVLA 140950Z AUTO 25014KT 6000 -DZ BKN005/// BKN010/// OVC012/// 08/08 Q1008

Palanga Tower: 124.300

EYVI Twr/App/Misc (Archives)
Vilnius, Lithuania

Feed Status: UP
Listen in your browser - HTML5 player(in browser, HTML5)
Click here to listen with your own player(launches your MP3 player)

EYVI 140950Z 17012KT 9000 OVC008 10/09 Q1012 R19/2///95 NOSIG

EYVI Flight Activity (Flightaware)

Listeners: 3 out of 751 total

Emergency / GUARD: 121.500
FlyLAL, AirBaltic transit services: 131.900
FlyLAL, AirBaltic transit services: 131.600
FlyLAL, AirBaltic transit services: 131.500
Kaunas Approach (EYKA): 124.200
Vilnius Approach: 120.700
Vilnius Control: 132.275
Vilnius Control: 133.425
Vilnius Control: 133.300
Vilnius FIS: 123.850
Vilnius Tower: 118.200
Zokniai A/G (mil): 122.775

EYVP CTAF (Archives)
Paluknys, Lithuania

Feed Status: UP
Listen in your browser - HTML5 player(in browser, HTML5)
Click here to listen with your own player(launches your MP3 player)

EYVP Flight Activity (Flightaware)

Listeners: 1 out of 751 total

EYVP Paluknis CTAF: 119.100

FIMP Twr/App/Ctr #1 (Archives)
Plaine Magnien, Mauritius

Feed Status: UP
Listen in your browser - HTML5 player(in browser, HTML5)
Click here to listen with your own player(launches your MP3 player)

FIMP 140900Z 16011KT 9999 SCT018 28/21 Q1015


Listeners: 0 out of 751 total

FIMP Approach: 119.100
FIMP Tower: 118.100
FMEE Approach/Departure: 127.200
Mauritius Centre: 129.300

FIMP Twr/App/Ctr #2 (Archives)
Plaine Magnien, Mauritius

Feed Status: UP
Listen in your browser - HTML5 player(in browser, HTML5)
Click here to listen with your own player(launches your MP3 player)

FIMP 140900Z 16011KT 9999 SCT018 28/21 Q1015


Listeners: 1 out of 751 total

FIMP Approach: 119.100
FIMP Tower: 118.100
Mauritius Centre: 129.300

FMEE Tower (Archives)
Sainte-Marie, Reunion

Feed Status: UP
Listen in your browser - HTML5 player(in browser, HTML5)
Click here to listen with your own player(launches your MP3 player)

FMEE 140930Z AUTO 10014KT 9999 OVC054 26/20 Q1014 NOSIG


Listeners: 5 out of 751 total

Gillot Tower: 118.400

FMEP Info (Archives)
Saint-Pierre, Reunion

Feed Status: UP
Listen in your browser - HTML5 player(in browser, HTML5)
Click here to listen with your own player(launches your MP3 player)

FMEP 140930Z AUTO 13023KT 9999 BKN088 OVC100 27/21 Q1013 TEMPO 13022G32KT


Listeners: 0 out of 751 total

Saint-Pierre Info: 122.400

FMMI Twr/App/Center (Archives)
Antananarivo, Madagascar

Feed Status: UP
Listen in your browser - HTML5 player(in browser, HTML5)
Click here to listen with your own player(launches your MP3 player)

FMMI 140930Z VRB01KT 9999 BKN023TCU 28/17 Q1018 NOSIG


Listeners: 0 out of 751 total

Ivato Approach: 125.700
Ivato Tower: 120.100
Tana Control: 128.900

LATI Twr/App/ACC (Archives)
Tirana, Albania

Feed Status: UP
Listen in your browser - HTML5 player(in browser, HTML5)
Click here to listen with your own player(launches your MP3 player)

LATI 140950Z 18005KT 9999 FEW070 SCT090 18/13 Q1010 NOSIG

LATI Flight Activity (Flightaware)

Listeners: 0 out of 751 total

Tirana Approach/Departure: 133.150
Tirana Approach/Departure: 131.075
Tirana Tower: 122.500
Tirana Tower: 123.500

LBLS Tower/FIC
Lesnovo, Bulgaria

Feed Status: DOWN
Offline since: 2019-08-23 13:30:40 UTC

LBSF 140930Z 34004KT 310V010 2500 -RA BR FEW002 BKN026 OVC053 09/09 Q1011 TEMPO 1500 RA

Lesnovo FIC: 130.600
Lesnovo Tower: 122.250

LBPD Tower (Archives)
Plovdiv, Bulgaria

Feed Status: UP
Listen in your browser - HTML5 player(in browser, HTML5)
Click here to listen with your own player(launches your MP3 player)

LBSF 140930Z 34004KT 310V010 2500 -RA BR FEW002 BKN026 OVC053 09/09 Q1011 TEMPO 1500 RA

LBSF Flight Activity (Flightaware)

Listeners: 1 out of 751 total

Plovdiv Tower: 125.500
Plovdiv Tower: 133.600

LBSF ATIS (Archives)
Sofia, Bulgaria

Feed Status: UP
Listen in your browser - HTML5 player(in browser, HTML5)
Click here to listen with your own player(launches your MP3 player)

LBSF 140930Z 34004KT 310V010 2500 -RA BR FEW002 BKN026 OVC053 09/09 Q1011 TEMPO 1500 RA

LBSF Flight Activity (Flightaware)

Listeners: 0 out of 751 total

Sofia ATIS: 126.680

LBSF Sofia Control East (Archives)
Sofia, Bulgaria

Feed Status: UP
Listen in your browser - HTML5 player(in browser, HTML5)
Click here to listen with your own player(launches your MP3 player)

LBSF 140930Z 34004KT 310V010 2500 -RA BR FEW002 BKN026 OVC053 09/09 Q1011 TEMPO 1500 RA

LBSF Flight Activity (Flightaware)

Listeners: 2 out of 751 total

Sofia Control (East/Middle Sector): 129.100
Sofia Control (Varna Sector): 134.700

LBSF Twr/App #1 (Archives)
Sofia, Bulgaria

Feed Status: UP
Listen in your browser - HTML5 player(in browser, HTML5)
Click here to listen with your own player(launches your MP3 player)

LBSF 140930Z 34004KT 310V010 2500 -RA BR FEW002 BKN026 OVC053 09/09 Q1011 TEMPO 1500 RA

LBSF Flight Activity (Flightaware)

Listeners: 7 out of 751 total

Sofia Approach: 123.700
Sofia Approach: 129.900
Sofia Tower: 118.100
Sofia Tower: 120.200

LBSF Twr/App #2 (Archives)
Sofia, Bulgaria

Feed Status: UP
Listen in your browser - HTML5 player(in browser, HTML5)
Click here to listen with your own player(launches your MP3 player)

LBSF 140930Z 34004KT 310V010 2500 -RA BR FEW002 BKN026 OVC053 09/09 Q1011 TEMPO 1500 RA

LBSF Flight Activity (Flightaware)

Listeners: 1 out of 751 total

Sofia Approach: 123.700
Sofia Tower: 118.100

LBWN Tower/Approach (Archives)
Varna, Bulgaria

Feed Status: UP
Listen in your browser - HTML5 player(in browser, HTML5)
Click here to listen with your own player(launches your MP3 player)

LBWN 140930Z 09010KT 9999 FEW016 SCT019 BKN023 18/13 Q1011 NOSIG

LBWN Flight Activity (Flightaware)

Listeners: 0 out of 751 total

Varna Approach: 121.000
Varna Tower: 119.500

Bordeaux Control (Archives)
Bordeaux, France

Feed Status: UP
Listen in your browser - HTML5 player(in browser, HTML5)
Click here to listen with your own player(launches your MP3 player)

LFBD 140930Z AUTO 17012KT 9999 FEW019/// BKN039/// BKN140/// ///TCU 07/06 Q0998 TEMPO 4000 SHRA FEW015CB BKN030TCU BECMG 24012KT

LFBD Flight Activity (Flightaware)

Listeners: 5 out of 751 total

Air to Air: 123.450
Bordeaux Control BN FL<300: 127.675
Bordeaux Control L3 FL>300: 134.250
Bordeaux Control R2 FL>300: 133.575
Emergency/Guard: 121.500

LFBD Aquitane Approach (Archives)
Bordeaux, France

Feed Status: UP
Listen in your browser - HTML5 player(in browser, HTML5)
Click here to listen with your own player(launches your MP3 player)

LFBD 140930Z AUTO 17012KT 9999 FEW019/// BKN039/// BKN140/// ///TCU 07/06 Q0998 TEMPO 4000 SHRA FEW015CB BKN030TCU BECMG 24012KT

LFBD Flight Activity (Flightaware)

Listeners: 1 out of 751 total

Aquitane Approach: 129.875

LFBD Ground (Archives)
Bordeaux, France

Feed Status: UP
Listen in your browser - HTML5 player(in browser, HTML5)
Click here to listen with your own player(launches your MP3 player)

LFBD 140930Z AUTO 17012KT 9999 FEW019/// BKN039/// BKN140/// ///TCU 07/06 Q0998 TEMPO 4000 SHRA FEW015CB BKN030TCU BECMG 24012KT

LFBD Flight Activity (Flightaware)

Listeners: 1 out of 751 total


LFBD Tower (Archives)
Bordeaux, France

Feed Status: UP
Listen in your browser - HTML5 player(in browser, HTML5)
Click here to listen with your own player(launches your MP3 player)

LFBD 140930Z AUTO 17012KT 9999 FEW019/// BKN039/// BKN140/// ///TCU 07/06 Q0998 TEMPO 4000 SHRA FEW015CB BKN030TCU BECMG 24012KT

LFBD Flight Activity (Flightaware)

Listeners: 1 out of 751 total

Merignac Ground: 121.900
Merignac Tower: 118.300

LFBU/LFBL Tower (Archives)
Limoges, France

Feed Status: UP
Listen in your browser - HTML5 player(in browser, HTML5)
Click here to listen with your own player(launches your MP3 player)

LFBU 140930Z AUTO 17006KT 140V200 9999 FEW008 BKN190 07/05 Q0998 NOSIG

LFBU Flight Activity (Flightaware)

Listeners: 0 out of 751 total

LFBL Limoges Tower: 124.055
LFBU Angouleme Tower: 123.150
Medoc: 124.325

Bordeaux Control (Archives)
Angouleme, France

Feed Status: UP
Listen in your browser - HTML5 player(in browser, HTML5)
Click here to listen with your own player(launches your MP3 player)

LFBD 140930Z AUTO 17012KT 9999 FEW019/// BKN039/// BKN140/// ///TCU 07/06 Q0998 TEMPO 4000 SHRA FEW015CB BKN030TCU BECMG 24012KT

LFBD Flight Activity (Flightaware)

Listeners: 5 out of 751 total

Air to Air: 123.450
Bordeaux Control BN FL<300: 127.675
Bordeaux Control L3 FL>300: 134.250
Bordeaux Control R2 FL>300: 133.575
Emergency/Guard: 121.500

LFBU/LFBL Tower (Archives)
Angouleme, France

Feed Status: UP
Listen in your browser - HTML5 player(in browser, HTML5)
Click here to listen with your own player(launches your MP3 player)

LFBU 140930Z AUTO 17006KT 140V200 9999 FEW008 BKN190 07/05 Q0998 NOSIG

LFBU Flight Activity (Flightaware)

Listeners: 0 out of 751 total

LFBL Limoges Tower: 124.055
LFBU Angouleme Tower: 123.150
Medoc: 124.325

LFBZ Tower
Biarritz, France

Feed Status: DOWN
Offline since: 2019-11-03 03:19:06 UTC

LFBZ 140930Z AUTO 22008KT 160V280 9999 RA BKN022/// BKN032/// OVC041/// ///CB 07/06 Q1001 TEMPO VRB15G30KT 4000 SHRA BECMG BKN030


LFLL Tower (Archives)
Lyon, France

Feed Status: UP
Listen in your browser - HTML5 player(in browser, HTML5)
Click here to listen with your own player(launches your MP3 player)

LFLL 140930Z VRB03KT 7000 RA FEW014 BKN026 OVC032 04/03 Q1001 NOSIG

LFLL Flight Activity (Flightaware)

Listeners: 1 out of 751 total

Lyon Tower: 120.450

Lyon FIS (Archives)
Lyon, France

Feed Status: UP
Listen in your browser - HTML5 player(in browser, HTML5)
Click here to listen with your own player(launches your MP3 player)

LFLL 140930Z VRB03KT 7000 RA FEW014 BKN026 OVC032 04/03 Q1001 NOSIG

LFLL Flight Activity (Flightaware)

Listeners: 0 out of 751 total

Lyon FIS: 135.200

LFLP Twr/LFLB App (Archives)
Annecy, France

Feed Status: UP
Listen in your browser - HTML5 player(in browser, HTML5)
Click here to listen with your own player(launches your MP3 player)

LFLP 140930Z AUTO VRB04KT CAVOK 04/01 Q1000 NOSIG

LFLP Flight Activity (Flightaware)

Listeners: 0 out of 751 total

Annecy Tower: 118.200
Chambery Approach: 121.205
Chambery Info: 123.700

LFLY Tower (Archives)
Bron, France

Feed Status: UP
Listen in your browser - HTML5 player(in browser, HTML5)
Click here to listen with your own player(launches your MP3 player)

LFLY 140930Z AUTO 11007KT 080V140 6000 RA BKN033/// OVC040/// ///TCU 06/05 Q1000 BECMG BKN020 OVC040

LFLY Flight Activity (Flightaware)

Listeners: 0 out of 751 total

Lyon-Bron Tower: 118.100

Lyon FIS (Archives)
Bron, France

Feed Status: UP
Listen in your browser - HTML5 player(in browser, HTML5)
Click here to listen with your own player(launches your MP3 player)

LFLL 140930Z VRB03KT 7000 RA FEW014 BKN026 OVC032 04/03 Q1001 NOSIG

LFLL Flight Activity (Flightaware)

Listeners: 0 out of 751 total

Lyon FIS: 135.200

LFMD Ground/Tower (Archives)
Cannes, France

Feed Status: UP
Listen in your browser - HTML5 player(in browser, HTML5)
Click here to listen with your own player(launches your MP3 player)

LFMD 140930Z AUTO 36004KT 330V050 9999 FEW038 BKN044 BKN130 11/06 Q1005 NOSIG

LFMD Flight Activity (Flightaware)

Listeners: 0 out of 751 total

Cannes Ground: 121.800
Cannes Tower: 118.625

LFMN Approach (Archives)
Nice, France

Feed Status: UP
Listen in your browser - HTML5 player(in browser, HTML5)
Click here to listen with your own player(launches your MP3 player)

LFMN 140930Z 09017KT 9999 BKN032 BKN130 14/08 Q1005 NOSIG

LFMN Flight Activity (Flightaware)

Listeners: 0 out of 751 total

Nice Approach: 124.175

LFMN Control (High) (Archives)
Nice, France

Feed Status: UP
Listen in your browser - HTML5 player(in browser, HTML5)
Click here to listen with your own player(launches your MP3 player)

LFMN 140930Z 09017KT 9999 BKN032 BKN130 14/08 Q1005 NOSIG

LFMN Flight Activity (Flightaware)

Listeners: 0 out of 751 total

Marseille Control Sector K1 (FL245-FL305): 126.780

LFMN FIS/Approach (Archives)
Nice, France

Feed Status: UP
Listen in your browser - HTML5 player(in browser, HTML5)
Click here to listen with your own player(launches your MP3 player)

LFMN 140930Z 09017KT 9999 BKN032 BKN130 14/08 Q1005 NOSIG

LFMN Flight Activity (Flightaware)

Listeners: 0 out of 751 total

Nice FIS/Approach (TMA4 NICE 2500ft - FL115): 120.850

LFMN Ground/Tower (Archives)
Nice, France

Feed Status: UP
Listen in your browser - HTML5 player(in browser, HTML5)
Click here to listen with your own player(launches your MP3 player)

LFMN 140930Z 09017KT 9999 BKN032 BKN130 14/08 Q1005 NOSIG

LFMN Flight Activity (Flightaware)

Listeners: 1 out of 751 total

Nice Ground: 121.700
Nice Tower: 118.700

LFPG Departure (Archives)
Paris, France

Feed Status: UP
Listen in your browser - HTML5 player(in browser, HTML5)
Click here to listen with your own player(launches your MP3 player)

LFPG 140930Z 19011KT 9999 BKN011 BKN026 05/03 Q0998 NOSIG

LFPG Flight Activity (Flightaware)

Listeners: 5 out of 751 total

De Gaulle Departure: 124.350

LFPO Approach (Archives)
Paris, France

Feed Status: UP
Listen in your browser - HTML5 player(in browser, HTML5)
Click here to listen with your own player(launches your MP3 player)

LFPO 140930Z 18008KT 150V210 9999 BKN020 05/03 Q0999 NOSIG

LFPO Flight Activity (Flightaware)

Listeners: 2 out of 751 total

Orly Approach: 124.450
Orly Approach: 118.850
Orly Approach: 120.850
Orly Approach: 123.875

LFPO Departure (Archives)
Paris, France

Feed Status: UP
Listen in your browser - HTML5 player(in browser, HTML5)
Click here to listen with your own player(launches your MP3 player)

LFPO 140930Z 18008KT 150V210 9999 BKN020 05/03 Q0999 NOSIG

LFPO Flight Activity (Flightaware)

Listeners: 0 out of 751 total

Orly Departure: 127.750

LFPO Tower (Archives)
Paris, France

Feed Status: UP
Listen in your browser - HTML5 player(in browser, HTML5)
Click here to listen with your own player(launches your MP3 player)

LFPO 140930Z 18008KT 150V210 9999 BKN020 05/03 Q0999 NOSIG

LFPO Flight Activity (Flightaware)

Listeners: 9 out of 751 total

Orly Tower: 120.500
Orly Tower: 118.700

LFSB Tower (Archives)
Basel, Switzerland

Feed Status: UP
Listen in your browser - HTML5 player(in browser, HTML5)
Click here to listen with your own player(launches your MP3 player)

LFSB 140930Z 11009KT 070V140 CAVOK 06/00 Q1002 NOSIG

LFSB Flight Activity (Flightaware)

Listeners: 0 out of 751 total

Mulhouse Tower: 118.300

LGAV App/Radar (Archives)
Athens, Greece

Feed Status: UP
Listen in your browser - HTML5 player(in browser, HTML5)
Click here to listen with your own player(launches your MP3 player)

LGAV 140950Z 00000KT 9999 FEW025 21/12 Q1011 NOSIG

LGAV Flight Activity (Flightaware)

Listeners: 1 out of 751 total

Athens Approach: 132.975
Athens Information: 130.925
Athens Information: 119.750
Athens Radar (Kerkira-Kefalinia-Paleohora Sectors FL460-FL345): 134.325
Athens Radar (Milos/Sitia Sectors FL460-FL345): 125.200
Athens Radar (Paleohora /Kerkira Sectors FL460-FL345): 133.725
Athens Radar (Paleohora Sector FL460-FL345): 124.625
Athens Radar (Rhodos/Kavos Sector FL460-FL345): 133.325
Emergency/Guard: 121.500
Makedonia Radar (Thessaloniki/Skopelos/Limnos/Kavala Sectors FL460-FL345): 133.575

LGAV Clearance Delivery (Archives)
Athens, Greece

Feed Status: UP
Listen in your browser - HTML5 player(in browser, HTML5)
Click here to listen with your own player(launches your MP3 player)

LGAV 140950Z 00000KT 9999 FEW025 21/12 Q1011 NOSIG

LGAV Flight Activity (Flightaware)

Listeners: 0 out of 751 total

Athens Clearance Delivery: 118.675

LGAV Director (Archives)
Athens, Greece

Feed Status: UP
Listen in your browser - HTML5 player(in browser, HTML5)
Click here to listen with your own player(launches your MP3 player)

LGAV 140950Z 00000KT 9999 FEW025 21/12 Q1011 NOSIG

LGAV Flight Activity (Flightaware)

Listeners: 0 out of 751 total

Athens Director: 121.400

LGAV Ground (North) (Archives)
Athens, Greece

Feed Status: UP
Listen in your browser - HTML5 player(in browser, HTML5)
Click here to listen with your own player(launches your MP3 player)

LGAV 140950Z 00000KT 9999 FEW025 21/12 Q1011 NOSIG

LGAV Flight Activity (Flightaware)

Listeners: 0 out of 751 total

Athens Ground (North): 121.750

LGAV Ground (South) (Archives)
Athens, Greece

Feed Status: UP
Listen in your browser - HTML5 player(in browser, HTML5)
Click here to listen with your own player(launches your MP3 player)

LGAV 140950Z 00000KT 9999 FEW025 21/12 Q1011 NOSIG

LGAV Flight Activity (Flightaware)

Listeners: 0 out of 751 total

Athens Ground (South): 121.950

LGAV Tower (Rwy 3L/21R) (Archives)
Athens, Greece

Feed Status: UP
Listen in your browser - HTML5 player(in browser, HTML5)
Click here to listen with your own player(launches your MP3 player)

LGAV 140950Z 00000KT 9999 FEW025 21/12 Q1011 NOSIG

LGAV Flight Activity (Flightaware)

Listeners: 0 out of 751 total

Athens Tower (Rwy 03L/21R): 136.275

LGAV Tower (Rwy 3R/21L) (Archives)
Athens, Greece

Feed Status: UP
Listen in your browser - HTML5 player(in browser, HTML5)
Click here to listen with your own player(launches your MP3 player)

LGAV 140950Z 00000KT 9999 FEW025 21/12 Q1011 NOSIG

LGAV Flight Activity (Flightaware)

Listeners: 0 out of 751 total

Athens Tower (Rwy 03R/21L): 118.625

LGIR Approach (Archives)
Iraklion, Greece

Feed Status: UP
Listen in your browser - HTML5 player(in browser, HTML5)
Click here to listen with your own player(launches your MP3 player)

LGIR 140950Z 32008KT 9999 SCT025 21/15 Q1011 NOSIG

LGIR Flight Activity (Flightaware)

Listeners: 0 out of 751 total

Iraklion Radar: 123.975

LGIR Ground (Archives)
Iraklion, Greece

Feed Status: UP
Listen in your browser - HTML5 player(in browser, HTML5)
Click here to listen with your own player(launches your MP3 player)

LGIR 140950Z 32008KT 9999 SCT025 21/15 Q1011 NOSIG

LGIR Flight Activity (Flightaware)

Listeners: 0 out of 751 total

Heraklion Ground: 121.700

LGIR Tower (Archives)
Iraklion, Greece

Feed Status: UP
Listen in your browser - HTML5 player(in browser, HTML5)
Click here to listen with your own player(launches your MP3 player)

LGIR 140950Z 32008KT 9999 SCT025 21/15 Q1011 NOSIG

LGIR Flight Activity (Flightaware)

Listeners: 0 out of 751 total

Heraklion Tower: 120.850

LHBP Approach (Archives)
Budapest, Hungary

Feed Status: UP
Listen in your browser - HTML5 player(in browser, HTML5)
Click here to listen with your own player(launches your MP3 player)

LHBP 140930Z VRB02KT CAVOK 08/05 Q1012 NOSIG

LHBP Flight Activity (Flightaware)

Listeners: 0 out of 751 total

Budapest Approach: 122.975
Budapest Approach (Upper): 123.860

LHBP Approach (Director) (Archives)
Budapest, Hungary

Feed Status: UP
Listen in your browser - HTML5 player(in browser, HTML5)
Click here to listen with your own player(launches your MP3 player)

LHBP 140930Z VRB02KT CAVOK 08/05 Q1012 NOSIG

LHBP Flight Activity (Flightaware)

Listeners: 0 out of 751 total

Budapest Director: 119.510

LHBP ATIS (Archives)
Budapest, Hungary

Feed Status: UP
Listen in your browser - HTML5 player(in browser, HTML5)
Click here to listen with your own player(launches your MP3 player)

LHBP 140930Z VRB02KT CAVOK 08/05 Q1012 NOSIG

LHBP Flight Activity (Flightaware)

Listeners: 0 out of 751 total

Budapest ATIS: 132.380

LHBP Clearance Delivery (Archives)
Budapest, Hungary

Feed Status: UP
Listen in your browser - HTML5 player(in browser, HTML5)
Click here to listen with your own player(launches your MP3 player)

LHBP 140930Z VRB02KT CAVOK 08/05 Q1012 NOSIG

LHBP Flight Activity (Flightaware)

Listeners: 0 out of 751 total

Budapest Clearance Delivery: 134.540

LHBP Ground (Archives)
Budapest, Hungary

Feed Status: UP
Listen in your browser - HTML5 player(in browser, HTML5)
Click here to listen with your own player(launches your MP3 player)

LHBP 140930Z VRB02KT CAVOK 08/05 Q1012 NOSIG

LHBP Flight Activity (Flightaware)

Listeners: 0 out of 751 total

Budapest Ground: 121.910

LHBP Info (Archives)
Budapest, Hungary

Feed Status: UP
Listen in your browser - HTML5 player(in browser, HTML5)
Click here to listen with your own player(launches your MP3 player)

LHBP 140930Z VRB02KT CAVOK 08/05 Q1012 NOSIG

LHBP Flight Activity (Flightaware)

Listeners: 3 out of 751 total

Budapest Info: 119.350

LHBP Tower (Archives)
Budapest, Hungary

Feed Status: UP
Listen in your browser - HTML5 player(in browser, HTML5)
Click here to listen with your own player(launches your MP3 player)

LHBP 140930Z VRB02KT CAVOK 08/05 Q1012 NOSIG

LHBP Flight Activity (Flightaware)

Listeners: 1 out of 751 total

Budapest Tower: 118.100

LHBP Twr/Info (Archives)
Budapest, Hungary

Feed Status: UP
Listen in your browser - HTML5 player(in browser, HTML5)
Click here to listen with your own player(launches your MP3 player)

LHBP 140930Z VRB02KT CAVOK 08/05 Q1012 NOSIG

LHBP Flight Activity (Flightaware)

Listeners: 0 out of 751 total

Budapest Info: 119.350
Budapest Tower: 118.100

LHCC Control (East/West) (Archives)
Budapest, Hungary

Feed Status: UP
Listen in your browser - HTML5 player(in browser, HTML5)
Click here to listen with your own player(launches your MP3 player)

LHBP 140930Z VRB02KT CAVOK 08/05 Q1012 NOSIG

LHBP Flight Activity (Flightaware)

Listeners: 0 out of 751 total

Budapest Control (East Low Sector): 120.375
Budapest Control (West Low Sector): 133.200

LHDC Info/Tower (Archives)
Debrecen, Hungary

Feed Status: UP
Listen in your browser - HTML5 player(in browser, HTML5)
Click here to listen with your own player(launches your MP3 player)

LHDC 140920Z AUTO 29004KT 270V330 4300 BR SCT004 BKN038 BKN073 10/10 Q1012

LHDC Flight Activity (Flightaware)

Listeners: 0 out of 751 total

Debrecen Info/Tower: 125.900

LHEM CTAF (Archives)
Esztergom, Hungary

Feed Status: UP
Listen in your browser - HTML5 player(in browser, HTML5)
Click here to listen with your own player(launches your MP3 player)

LHEM Flight Activity (Flightaware)

Listeners: 0 out of 751 total

Esztergom CTAF: 126.850

LHPR Info/AFIS (Archives)
Gyor, Hungary

Feed Status: UP
Listen in your browser - HTML5 player(in browser, HTML5)
Click here to listen with your own player(launches your MP3 player)

LHPR 140915Z 00000KT CAVOK 06/04 Q1013

LHPR Flight Activity (Flightaware)

Listeners: 1 out of 751 total

Gyor AFIS: 129.910

LHUD CTAF/Info/AFIS (Archives)
Szeged, Hungary

Feed Status: UP
Listen in your browser - HTML5 player(in browser, HTML5)
Click here to listen with your own player(launches your MP3 player)

LHUD 032345Z 35004KT CAVOK 18/13 Q1019

LHUD Flight Activity (Flightaware)

Listeners: 0 out of 751 total

Szeged CTAF/Info/AFIS: 122.810

LJLJ Radar (Archives)
Ljubljana, Slovenia

Feed Status: UP
Listen in your browser - HTML5 player(in browser, HTML5)
Click here to listen with your own player(launches your MP3 player)

LJLJ 140930Z VRB02KT 9999 FEW002 BKN012 OVC023 06/05 Q1012 NOSIG

LJLJ Flight Activity (Flightaware)

Listeners: 2 out of 751 total

Ljubljana Approach: 135.275

LJLJ Tower (Archives)
Ljubljana, Slovenia

Feed Status: UP
Listen in your browser - HTML5 player(in browser, HTML5)
Click here to listen with your own player(launches your MP3 player)

LJLJ 140930Z VRB02KT 9999 FEW002 BKN012 OVC023 06/05 Q1012 NOSIG

LJLJ Flight Activity (Flightaware)

Listeners: 1 out of 751 total

Ljubljana Tower: 118.000

LJMB Info/FSS/FIC (Archives)
Maribor, Slovenia

Feed Status: UP
Listen in your browser - HTML5 player(in browser, HTML5)
Click here to listen with your own player(launches your MP3 player)

LJMB 140930Z 15005KT 5000 BR BKN004 OVC030 05/04 Q1012

LJMB Flight Activity (Flightaware)

Listeners: 0 out of 751 total

Ljubljana Information FSS/FIC (Maribor Area): 118.475

LJMB Tower/Approach (Archives)
Maribor, Slovenia

Feed Status: UP
Listen in your browser - HTML5 player(in browser, HTML5)
Click here to listen with your own player(launches your MP3 player)

LJMB 140930Z 15005KT 5000 BR BKN004 OVC030 05/04 Q1012

LJMB Flight Activity (Flightaware)

Listeners: 0 out of 751 total

Maribor Tower/Approach: 119.200

LJPZ Tower
Secovlje, Slovenia

Feed Status: DOWN
Offline since: 2019-11-13 18:34:39 UTC

LJPZ 140930Z VRB01KT 9999 SCT060 12/08 Q1009

Portoroz Tower: 124.875

LKPM Tower (Archives)
Pribram, Czech Republic

Feed Status: UP
Listen in your browser - HTML5 player(in browser, HTML5)
Click here to listen with your own player(launches your MP3 player)

LKPM Flight Activity (Flightaware)

Listeners: 0 out of 751 total

Pribram Tower: 118.750

LKAA FIR (High) (Archives)
Prague, Czech Republic

Feed Status: UP
Listen in your browser - HTML5 player(in browser, HTML5)
Click here to listen with your own player(launches your MP3 player)

LKAA Flight Activity (Flightaware)

Listeners: 0 out of 751 total

LKAA FIR Sector West High / Praha Radar : 132.065

LKAA FIR (Low) (Archives)
Prague, Czech Republic

Feed Status: UP
Listen in your browser - HTML5 player(in browser, HTML5)
Click here to listen with your own player(launches your MP3 player)

LKAA Flight Activity (Flightaware)

Listeners: 1 out of 751 total

LKAA FIR Sector West Low / Praha Radar: 120.275

LKPR Approach (Archives)
Prague, Czech Republic

Feed Status: UP
Listen in your browser - HTML5 player(in browser, HTML5)
Click here to listen with your own player(launches your MP3 player)

LKPR 140930Z 04006KT 2500 0900N R24/P2000N BR BCFG SCT001 SCT005 02/01 Q1009 BECMG 5000 BR

LKPR Flight Activity (Flightaware)

Listeners: 2 out of 751 total

Prague Approach/Radar: 127.580

LKPR Clearance Del (Archives)
Prague, Czech Republic

Feed Status: UP
Listen in your browser - HTML5 player(in browser, HTML5)
Click here to listen with your own player(launches your MP3 player)

LKPR 140930Z 04006KT 2500 0900N R24/P2000N BR BCFG SCT001 SCT005 02/01 Q1009 BECMG 5000 BR

LKPR Flight Activity (Flightaware)

Listeners: 0 out of 751 total


LKPR Director/Ruzyne Radar (Archives)
Prague, Czech Republic

Feed Status: UP
Listen in your browser - HTML5 player(in browser, HTML5)
Click here to listen with your own player(launches your MP3 player)

LKPR 140930Z 04006KT 2500 0900N R24/P2000N BR BCFG SCT001 SCT005 02/01 Q1009 BECMG 5000 BR

LKPR Flight Activity (Flightaware)

Listeners: 1 out of 751 total

Prague Director/Ruzyne Radar: 119.010

LKPR Ground (Archives)
Prague, Czech Republic

Feed Status: UP
Listen in your browser - HTML5 player(in browser, HTML5)
Click here to listen with your own player(launches your MP3 player)

LKPR 140930Z 04006KT 2500 0900N R24/P2000N BR BCFG SCT001 SCT005 02/01 Q1009 BECMG 5000 BR

LKPR Flight Activity (Flightaware)

Listeners: 1 out of 751 total

Prague/Ruzyne Clearance Delivery: 120.060
Prague/Ruzyne Ground: 121.910

LKPR Tower (Archives)
Prague, Czech Republic

Feed Status: UP
Listen in your browser - HTML5 player(in browser, HTML5)
Click here to listen with your own player(launches your MP3 player)

LKPR 140930Z 04006KT 2500 0900N R24/P2000N BR BCFG SCT001 SCT005 02/01 Q1009 BECMG 5000 BR

LKPR Flight Activity (Flightaware)

Listeners: 12 out of 751 total

Prague/Ruzyne Tower: 134.560

LKTB Gnd/Twr/Radar (Archives)
Brno, Czech Republic

Feed Status: UP
Listen in your browser - HTML5 player(in browser, HTML5)
Click here to listen with your own player(launches your MP3 player)

LKTB 140930Z 09007KT 8000 OVC005 02/01 Q1012 NOSIG

LKTB Flight Activity (Flightaware)

Listeners: 2 out of 751 total

Brno Ground: 125.430
Brno Handling: 131.800
Brno Radar (Approach): 127.350
Brno Tower: 119.605

LMML Del/Gnd/Twr/App
Luqa, Malta

Feed Status: DOWN
Offline since: 2019-05-20 08:38:03 UTC

LMML 140945Z 26011KT 9999 SCT025 19/12 Q1010 NOSIG

Luqa Approach: 128.150
Luqa Approach/Radar: 118.350
Luqa Ground: 121.600
Luqa Tower: 135.100
Malta Control East: 123.625
Malta Control West: 130.975

Santa Maria Control (Oceanic) (Archives)
Santa Maria Island (Azores), Portugal

Feed Status: UP
Listen in your browser - HTML5 player(in browser, HTML5)
Click here to listen with your own player(launches your MP3 player)

LPAZ 140930Z 04008KT 010V070 9999 FEW028 BKN042 18/11 Q1031

LPAZ Flight Activity (Flightaware)

Listeners: 0 out of 751 total

Emergency/Guard: 121.500
LPHR (Horta) Approach: 120.600
LPLA (Terceira) Approach: 135.000
LPLA (Terceira) Tower: 122.100
LPPD (Ponta Delgada) Approach: 119.400
Ponta Delgada Ground: 131.600
Santa Maria Approach: 119.100
Santa Maria Control: 132.150

LPLA Gnd/Twr/App (Archives)
Lajes, Portugal

Feed Status: UP
Listen in your browser - HTML5 player(in browser, HTML5)
Click here to listen with your own player(launches your MP3 player)

LPLA 140900Z /////KT 9999 FEW024 BKN037 17/11 Q1033

LPLA Flight Activity (Flightaware)

Listeners: 0 out of 751 total

Lajes Approach: 135.000
Lajes Ground: 121.900
Lajes Tower: 122.100

LPPR Approach #1 (Archives)
Porto, Portugal

Feed Status: UP
Listen in your browser - HTML5 player(in browser, HTML5)
Click here to listen with your own player(launches your MP3 player)

LPPR 140930Z 33003KT 310V010 9999 SCT025 BKN040 10/07 Q1009

LPPR Flight Activity (Flightaware)

Listeners: 1 out of 751 total

Porto Approach: 121.105

LPPT Approach (Archives)
Lisbon, Portugal

Feed Status: UP
Listen in your browser - HTML5 player(in browser, HTML5)
Click here to listen with your own player(launches your MP3 player)

LPPT 140930Z 31012G24KT 280V350 7000 -SHRA FEW014 BKN020 FEW025TCU 11/09 Q1014

LPPT Flight Activity (Flightaware)

Listeners: 4 out of 751 total

Lisbon Approach: 119.100

LRCL Twr/App #1 (Archives)
Cluj-Napoca, Romania

Feed Status: UP
Listen in your browser - HTML5 player(in browser, HTML5)
Click here to listen with your own player(launches your MP3 player)

LRCL 140930Z 02003KT CAVOK 15/11 Q1012

LRCL Flight Activity (Flightaware)

Listeners: 0 out of 751 total

Cluj Approach: 126.425
Cluj Tower: 134.400

LRCL Twr/App/ACC (Archives)
Cluj-Napoca, Romania

Feed Status: UP
Listen in your browser - HTML5 player(in browser, HTML5)
Click here to listen with your own player(launches your MP3 player)

LRCL 140930Z 02003KT CAVOK 15/11 Q1012

LRCL Flight Activity (Flightaware)

Listeners: 0 out of 751 total

Cluj Approach: 126.425
Cluj Tower: 134.400
Napoc ACC: 127.075

LROP Ground (Archives)
Bucharest, Romania

Feed Status: UP
Listen in your browser - HTML5 player(in browser, HTML5)
Click here to listen with your own player(launches your MP3 player)

LROP 140930Z 05015KT 8000 OVC022 15/12 Q1013 NOSIG

LROP Flight Activity (Flightaware)

Listeners: 1 out of 751 total

Bucharest Ground: 121.855

LROP Radar (Archives)
Bucharest, Romania

Feed Status: UP
Listen in your browser - HTML5 player(in browser, HTML5)
Click here to listen with your own player(launches your MP3 player)

LROP 140930Z 05015KT 8000 OVC022 15/12 Q1013 NOSIG

LROP Flight Activity (Flightaware)

Listeners: 0 out of 751 total

Bucharest Radar (Arges Mid sector): 121.175
Bucharest Radar (Arges Top Sector): 123.265
Bucharest Radar (Lomos Top Sector): 132.865

LROP Tower/Approach (Archives)
Bucharest, Romania

Feed Status: UP
Listen in your browser - HTML5 player(in browser, HTML5)
Click here to listen with your own player(launches your MP3 player)

LROP 140930Z 05015KT 8000 OVC022 15/12 Q1013 NOSIG

LROP Flight Activity (Flightaware)

Listeners: 0 out of 751 total

Bucharest Approach: 119.415
Bucharest Director: 127.155
Bucharest Tower: 118.805

LROP Twr/App/Radar (Archives)
Bucharest, Romania

Feed Status: UP
Listen in your browser - HTML5 player(in browser, HTML5)
Click here to listen with your own player(launches your MP3 player)

LROP 140930Z 05015KT 8000 OVC022 15/12 Q1013 NOSIG

LROP Flight Activity (Flightaware)

Listeners: 4 out of 751 total

Bucharest Approach: 119.415
Bucharest Director: 127.155
Bucharest Radar (Arges Mid sector): 121.175
Bucharest Radar (Arges Top Sector): 123.265
Bucharest Radar (Lomos Top Sector): 132.865
Bucharest Tower: 118.805

LRSB Tower/CTAF (Archives)
Sibiu, Romania

Feed Status: UP
Listen in your browser - HTML5 player(in browser, HTML5)
Click here to listen with your own player(launches your MP3 player)

LRSB 140930Z 23004KT 180V270 9999 FEW046 SCT075 16/10 Q1011 R27/19//95 NOSIG

LRSB Flight Activity (Flightaware)

Listeners: 0 out of 751 total

Sibiu Tower: 121.305

LRTR Tower (Archives)
Timisoara, Romania

Feed Status: UP
Listen in your browser - HTML5 player(in browser, HTML5)
Click here to listen with your own player(launches your MP3 player)

LRTR 140930Z VRB02KT CAVOK 16/12 Q1011 NOSIG

LRTR Flight Activity (Flightaware)

Listeners: 0 out of 751 total

ARAD Approach: 127.250
Timisoara Tower: 120.100

LSGG Tower (Archives)
Geneva, Switzerland

Feed Status: UP
Listen in your browser - HTML5 player(in browser, HTML5)
Click here to listen with your own player(launches your MP3 player)

LSGG 140950Z 08006KT 9999 FEW015 SCT050 OVC080 05/02 Q1001 NOSIG

LSGG Flight Activity (Flightaware)

Listeners: 6 out of 751 total

Geneva Tower: 118.700

LSGS Gnd/Twr/App (Archives)
Sion, Switzerland

Feed Status: UP
Listen in your browser - HTML5 player(in browser, HTML5)
Click here to listen with your own player(launches your MP3 player)

LSGS 140950Z 10003KT 080V150 9999 SCT100 04/M03 Q1003

LSGS Flight Activity (Flightaware)

Listeners: 0 out of 751 total

Alpine Jet Service Handling: 131.675
Sion Airport Handling: 131.475
Sion Approach (IFR ARR MIL OFF): 126.825
Sion Ground: 121.700
Sion Tower: 118.275

LSMD Tower (Archives)
Dubendorf, Switzerland

Feed Status: UP
Listen in your browser - HTML5 player(in browser, HTML5)
Click here to listen with your own player(launches your MP3 player)

LSZH 140950Z VRB02KT CAVOK 03/00 Q1002 NOSIG

LSZH Flight Activity (Flightaware)

Listeners: 0 out of 751 total

Dubendorf Tower: 118.975

LSPM AFIS (Archives)
Ambri, Switzerland

Feed Status: UP
Listen in your browser - HTML5 player(in browser, HTML5)
Click here to listen with your own player(launches your MP3 player)

LSPM Flight Activity (Flightaware)

Listeners: 0 out of 751 total

Ambri AFIS: 118.525

LSZA Tower (Archives)
Agno, Switzerland

Feed Status: UP
Listen in your browser - HTML5 player(in browser, HTML5)
Click here to listen with your own player(launches your MP3 player)

LSZA 140950Z VRB02KT 9999 BKN070 05/M01 Q1010 NOSIG

LSZA Flight Activity (Flightaware)

Listeners: 1 out of 751 total

Lugano Tower: 120.250

LSZB Twr/App/Dep (Archives)
Bern, Switzerland

Feed Status: UP
Listen in your browser - HTML5 player(in browser, HTML5)
Click here to listen with your own player(launches your MP3 player)

LSZB 140950Z 16003KT 9999 BKN130 01/00 Q1002 NOSIG

LSZB Flight Activity (Flightaware)

Listeners: 1 out of 751 total

LSZB Arrival/Departure: 127.325
LSZB Tower: 121.025

LSZG Tower (Archives)
Grenchen, Switzerland

Feed Status: UP
Listen in your browser - HTML5 player(in browser, HTML5)
Click here to listen with your own player(launches your MP3 player)

LSZG 140950Z VRB01KT CAVOK 02/01 Q1003 NOSIG

LSZG Flight Activity (Flightaware)

Listeners: 0 out of 751 total

Grenchen Tower: 120.100

LSZH Approach (East) (Archives)
Zurich, Switzerland

Feed Status: UP
Listen in your browser - HTML5 player(in browser, HTML5)
Click here to listen with your own player(launches your MP3 player)

LSZH 140950Z VRB02KT CAVOK 03/00 Q1002 NOSIG

LSZH Flight Activity (Flightaware)

Listeners: 1 out of 751 total

Zurich Approach (East): 135.225

LSZH Approach (West) (Archives)
Zurich, Switzerland

Feed Status: UP
Listen in your browser - HTML5 player(in browser, HTML5)
Click here to listen with your own player(launches your MP3 player)

LSZH 140950Z VRB02KT CAVOK 03/00 Q1002 NOSIG

LSZH Flight Activity (Flightaware)

Listeners: 0 out of 751 total

Zurich Approach (West): 118.000

LSZH Apron (South) (Archives)
Zurich, Switzerland

Feed Status: UP
Listen in your browser - HTML5 player(in browser, HTML5)
Click here to listen with your own player(launches your MP3 player)

LSZH 140950Z VRB02KT CAVOK 03/00 Q1002 NOSIG

LSZH Flight Activity (Flightaware)

Listeners: 2 out of 751 total

Zurich Apron (South): 121.755

LSZH Apron (West) (Archives)
Zurich, Switzerland

Feed Status: UP
Listen in your browser - HTML5 player(in browser, HTML5)
Click here to listen with your own player(launches your MP3 player)

LSZH 140950Z VRB02KT CAVOK 03/00 Q1002 NOSIG

LSZH Flight Activity (Flightaware)

Listeners: 2 out of 751 total

Zurich Apron (West): 121.855

LSZH Clearance Delivery (Archives)
Zurich, Switzerland

Feed Status: UP
Listen in your browser - HTML5 player(in browser, HTML5)
Click here to listen with your own player(launches your MP3 player)

LSZH 140950Z VRB02KT CAVOK 03/00 Q1002 NOSIG

LSZH Flight Activity (Flightaware)

Listeners: 3 out of 751 total

Zurich Clearance Delivery: 121.925

LSZH Ground (Archives)
Zurich, Switzerland

Feed Status: UP
Listen in your browser - HTML5 player(in browser, HTML5)
Click here to listen with your own player(launches your MP3 player)

LSZH 140950Z VRB02KT CAVOK 03/00 Q1002 NOSIG

LSZH Flight Activity (Flightaware)

Listeners: 0 out of 751 total

Zurich Ground: 121.905

LSZH Radar (Archives)
Zurich, Switzerland

Feed Status: UP
Listen in your browser - HTML5 player(in browser, HTML5)
Click here to listen with your own player(launches your MP3 player)

LSZH 140950Z VRB02KT CAVOK 03/00 Q1002 NOSIG

LSZH Flight Activity (Flightaware)

Listeners: 1 out of 751 total

Zurich Radar ACC (-FL240 East): 133.900
Zurich Radar ACC (-FL240 North): 136.150
Zurich Radar ACC (-FL240 South): 128.050
Zurich Radar ACC (-FL240 West): 135.675
Zurich Radar ACC (FL250-280): 133.050
Zurich Radar ACC (FL290-320): 132.815
Zurich Radar ACC (FL330-350): 134.600
Zurich Radar ACC (FL360+): 133.400

LSZH Radar 132.815 (Archives)
Zurich, Switzerland

Feed Status: UP
Listen in your browser - HTML5 player(in browser, HTML5)
Click here to listen with your own player(launches your MP3 player)

LSZH 140950Z VRB02KT CAVOK 03/00 Q1002 NOSIG

LSZH Flight Activity (Flightaware)

Listeners: 0 out of 751 total

Zurich Radar: 132.815

LSZH Radar 133.050 (Archives)
Zurich, Switzerland

Feed Status: UP
Listen in your browser - HTML5 player(in browser, HTML5)
Click here to listen with your own player(launches your MP3 player)

LSZH 140950Z VRB02KT CAVOK 03/00 Q1002 NOSIG

LSZH Flight Activity (Flightaware)

Listeners: 0 out of 751 total

Zurich Radar: 133.050

LSZH Radar 133.405 (Archives)
Zurich, Switzerland

Feed Status: UP
Listen in your browser - HTML5 player(in browser, HTML5)
Click here to listen with your own player(launches your MP3 player)

LSZH 140950Z VRB02KT CAVOK 03/00 Q1002 NOSIG

LSZH Flight Activity (Flightaware)

Listeners: 0 out of 751 total

Zurich Radar: 133.405

LSZH Radar 133.690 (Archives)
Zurich, Switzerland

Feed Status: UP
Listen in your browser - HTML5 player(in browser, HTML5)
Click here to listen with your own player(launches your MP3 player)

LSZH 140950Z VRB02KT CAVOK 03/00 Q1002 NOSIG

LSZH Flight Activity (Flightaware)

Listeners: 0 out of 751 total

Zurich Radar: 133.690

LSZH Radar 133.905 (Archives)
Zurich, Switzerland

Feed Status: UP
Listen in your browser - HTML5 player(in browser, HTML5)
Click here to listen with your own player(launches your MP3 player)

LSZH 140950Z VRB02KT CAVOK 03/00 Q1002 NOSIG

LSZH Flight Activity (Flightaware)

Listeners: 0 out of 751 total

Zurich Radar (Below FL240 East): 133.905

LSZH Radar 134.605 (Archives)
Zurich, Switzerland

Feed Status: UP
Listen in your browser - HTML5 player(in browser, HTML5)
Click here to listen with your own player(launches your MP3 player)

LSZH 140950Z VRB02KT CAVOK 03/00 Q1002 NOSIG

LSZH Flight Activity (Flightaware)

Listeners: 0 out of 751 total

Zurich Radar (FL330-350): 134.605

LSZH Radar 135.680 (Archives)
Zurich, Switzerland

Feed Status: UP
Listen in your browser - HTML5 player(in browser, HTML5)
Click here to listen with your own player(launches your MP3 player)

LSZH 140950Z VRB02KT CAVOK 03/00 Q1002 NOSIG

LSZH Flight Activity (Flightaware)

Listeners: 0 out of 751 total


LSZH Radar 136.155 (Archives)
Zurich, Switzerland

Feed Status: UP
Listen in your browser - HTML5 player(in browser, HTML5)
Click here to listen with your own player(launches your MP3 player)

LSZH 140950Z VRB02KT CAVOK 03/00 Q1002 NOSIG

LSZH Flight Activity (Flightaware)

Listeners: 0 out of 751 total

Zurich Radar (Below FL240 North): 136.155

LSZH Tower (Archives)
Zurich, Switzerland

Feed Status: UP
Listen in your browser - HTML5 player(in browser, HTML5)
Click here to listen with your own player(launches your MP3 player)

LSZH 140950Z VRB02KT CAVOK 03/00 Q1002 NOSIG

LSZH Flight Activity (Flightaware)

Listeners: 14 out of 751 total

Zurich Tower: 118.100

LSZH Tower #3
Zurich, Switzerland

Feed Status: DOWN
Offline since: 2019-09-02 03:53:05 UTC

LSZH 140950Z VRB02KT CAVOK 03/00 Q1002 NOSIG

Zurich Tower: 118.100

LSZH Tower (14/32) (Archives)
Zurich, Switzerland

Feed Status: UP
Listen in your browser - HTML5 player(in browser, HTML5)
Click here to listen with your own player(launches your MP3 player)

LSZH 140950Z VRB02KT CAVOK 03/00 Q1002 NOSIG

LSZH Flight Activity (Flightaware)

Listeners: 1 out of 751 total

Zurich Tower (Rwy 14 App/32 Takeoff): 120.225

LSZH Twr/Gnd (backup) (Archives)
Zurich, Switzerland

Feed Status: UP
Listen in your browser - HTML5 player(in browser, HTML5)
Click here to listen with your own player(launches your MP3 player)

LSZH 140950Z VRB02KT CAVOK 03/00 Q1002 NOSIG

LSZH Flight Activity (Flightaware)

Listeners: 0 out of 751 total

Zurich Twr/Gnd (backup): 119.700

LSZL Tower (Archives)
Locarno, Switzerland

Feed Status: UP
Listen in your browser - HTML5 player(in browser, HTML5)
Click here to listen with your own player(launches your MP3 player)

LSZL 140950Z 00000KT 9999 BKN080 OVC120 04/M01 Q1010 RMK BLU

LSZL Flight Activity (Flightaware)

Listeners: 0 out of 751 total


LSZN CTAF (Archives)
Zurich, Switzerland

Feed Status: UP
Listen in your browser - HTML5 player(in browser, HTML5)
Click here to listen with your own player(launches your MP3 player)

LSZN Flight Activity (Flightaware)

Listeners: 0 out of 751 total

Hausen am Albis CTAF: 130.775

LSZR Tower (Archives)
Altenrhein, Switzerland

Feed Status: UP
Listen in your browser - HTML5 player(in browser, HTML5)
Click here to listen with your own player(launches your MP3 player)

LSZR 140950Z 29005KT CAVOK 04/01 Q1003 NOSIG RMK F

LSZR Flight Activity (Flightaware)

Listeners: 0 out of 751 total

Altenrhein Tower: 135.425

LSZW CTAF (Archives)
Thun, Switzerland

Feed Status: UP
Listen in your browser - HTML5 player(in browser, HTML5)
Click here to listen with your own player(launches your MP3 player)

LSZW Flight Activity (Flightaware)

Listeners: 0 out of 751 total

Thun CTAF/Info: 123.250

LTBA Gnd/Twr/App (Archives)
Istanbul, Turkey

Feed Status: UP
Listen in your browser - HTML5 player(in browser, HTML5)
Click here to listen with your own player(launches your MP3 player)

LTBA 140950Z 20004KT 150V250 CAVOK 19/15 Q1011 NOSIG

LTBA Flight Activity (Flightaware)

Listeners: 0 out of 751 total

Istanbul Approach: 126.425
Istanbul Ground: 121.800
Istanbul Tower: 118.100

LTFJ Del/Gnd/Twr (Archives)
Istanbul, Turkey

Feed Status: UP
Listen in your browser - HTML5 player(in browser, HTML5)
Click here to listen with your own player(launches your MP3 player)

LTFJ 140950Z 25008KT 230V290 CAVOK 19/12 Q1011 NOSIG

LTFJ Flight Activity (Flightaware)

Listeners: 3 out of 751 total

Gokcen Clearance Delivery: 122.625
Gokcen Ground: 121.750
Gokcen Tower: 118.800

LTFJ Pegasus Dispatch
Istanbul, Turkey

Feed Status: DOWN
Offline since: 2019-11-04 19:23:39 UTC

LTFJ 140950Z 25008KT 230V290 CAVOK 19/12 Q1011 NOSIG

Pegasus Dispatch: 131.750

LUKK ACC #1 (Archives)
Chisinau, Moldova

Feed Status: UP
Listen in your browser - HTML5 player(in browser, HTML5)
Click here to listen with your own player(launches your MP3 player)

LUKK 141000Z 10010KT 9999 OVC019 11/06 Q1017 R08/CLRD// NOSIG

LUKK Flight Activity (Flightaware)

Listeners: 0 out of 751 total

Chisinau ACC: 130.975

LUKK ACC #2 (Archives)
Chisinau, Moldova

Feed Status: UP
Listen in your browser - HTML5 player(in browser, HTML5)
Click here to listen with your own player(launches your MP3 player)

LUKK 141000Z 10010KT 9999 OVC019 11/06 Q1017 R08/CLRD// NOSIG

LUKK Flight Activity (Flightaware)

Listeners: 0 out of 751 total

Chisinau ACC: 128.975

LUKK Air to Air (Archives)
Chisinau, Moldova

Feed Status: UP
Listen in your browser - HTML5 player(in browser, HTML5)
Click here to listen with your own player(launches your MP3 player)

LUKK 141000Z 10010KT 9999 OVC019 11/06 Q1017 R08/CLRD// NOSIG

LUKK Flight Activity (Flightaware)

Listeners: 0 out of 751 total

Chisinau Air to Air: 123.450

LUKK Alternate (Archives)
Chisinau, Moldova

Feed Status: UP
Listen in your browser - HTML5 player(in browser, HTML5)
Click here to listen with your own player(launches your MP3 player)

LUKK 141000Z 10010KT 9999 OVC019 11/06 Q1017 R08/CLRD// NOSIG

LUKK Flight Activity (Flightaware)

Listeners: 0 out of 751 total

Chisinau Alternate: 129.725

LUKK Approach #1
Chisinau, Moldova

Feed Status: DOWN
Offline since: 2019-07-30 07:59:39 UTC

LUKK 141000Z 10010KT 9999 OVC019 11/06 Q1017 R08/CLRD// NOSIG

Chisinau Approach: 133.300

LUKK Approach #2 (Archives)
Chisinau, Moldova

Feed Status: UP
Listen in your browser - HTML5 player(in browser, HTML5)
Click here to listen with your own player(launches your MP3 player)

LUKK 141000Z 10010KT 9999 OVC019 11/06 Q1017 R08/CLRD// NOSIG

LUKK Flight Activity (Flightaware)

Listeners: 0 out of 751 total

Chisinau Approach: 133.300

LUKK Emergency/Guard (Archives)
Chisinau, Moldova

Feed Status: UP
Listen in your browser - HTML5 player(in browser, HTML5)
Click here to listen with your own player(launches your MP3 player)

LUKK 141000Z 10010KT 9999 OVC019 11/06 Q1017 R08/CLRD// NOSIG

LUKK Flight Activity (Flightaware)

Listeners: 0 out of 751 total

Emergency/Guard: 121.500

LUKK Ground #1 (Archives)
Chisinau, Moldova

Feed Status: UP
Listen in your browser - HTML5 player(in browser, HTML5)
Click here to listen with your own player(launches your MP3 player)

LUKK 141000Z 10010KT 9999 OVC019 11/06 Q1017 R08/CLRD// NOSIG

LUKK Flight Activity (Flightaware)

Listeners: 0 out of 751 total

Chisinau Ground: 121.800

LUKK Ground #2 (Archives)
Chisinau, Moldova

Feed Status: UP
Listen in your browser - HTML5 player(in browser, HTML5)
Click here to listen with your own player(launches your MP3 player)

LUKK 141000Z 10010KT 9999 OVC019 11/06 Q1017 R08/CLRD// NOSIG

LUKK Flight Activity (Flightaware)

Listeners: 0 out of 751 total

Chisinau Ground: 121.800

LUKK Handling (Archives)
Chisinau, Moldova

Feed Status: UP
Listen in your browser - HTML5 player(in browser, HTML5)
Click here to listen with your own player(launches your MP3 player)

LUKK 141000Z 10010KT 9999 OVC019 11/06 Q1017 R08/CLRD// NOSIG

LUKK Flight Activity (Flightaware)

Listeners: 0 out of 751 total

Chisinau Handling: 131.700

LUKK Tower #2 (Archives)
Chisinau, Moldova

Feed Status: UP
Listen in your browser - HTML5 player(in browser, HTML5)
Click here to listen with your own player(launches your MP3 player)

LUKK 141000Z 10010KT 9999 OVC019 11/06 Q1017 R08/CLRD// NOSIG

LUKK Flight Activity (Flightaware)

Listeners: 0 out of 751 total

Chisinau Tower: 118.100

LWSK ACC (Lower) (Archives)
Petrovec, Macedonia, Republic of

Feed Status: UP
Listen in your browser - HTML5 player(in browser, HTML5)
Click here to listen with your own player(launches your MP3 player)

LWSK 141000Z 00000KT 9999 FEW017 13/11 Q1011 NOSIG

LWSK Flight Activity (Flightaware)

Listeners: 0 out of 751 total

Skopje Control (Lower): 119.375

LWSK ACC (Upper) (Archives)
Petrovec, Macedonia, Republic of

Feed Status: UP
Listen in your browser - HTML5 player(in browser, HTML5)
Click here to listen with your own player(launches your MP3 player)

LWSK 141000Z 00000KT 9999 FEW017 13/11 Q1011 NOSIG

LWSK Flight Activity (Flightaware)

Listeners: 0 out of 751 total

Skopje Control (Upper): 120.015

LWSK Approach (Archives)
Petrovec, Macedonia, Republic of

Feed Status: UP
Listen in your browser - HTML5 player(in browser, HTML5)
Click here to listen with your own player(launches your MP3 player)

LWSK 141000Z 00000KT 9999 FEW017 13/11 Q1011 NOSIG

LWSK Flight Activity (Flightaware)

Listeners: 0 out of 751 total

Skopje Approach/Departure: 120.300

LWSK ATIS (Archives)
Petrovec, Macedonia, Republic of

Feed Status: UP
Listen in your browser - HTML5 player(in browser, HTML5)
Click here to listen with your own player(launches your MP3 player)

LWSK 141000Z 00000KT 9999 FEW017 13/11 Q1011 NOSIG

LWSK Flight Activity (Flightaware)

Listeners: 0 out of 751 total

Skopje ATIS: 130.125

LWSK Tower (Archives)
Petrovec, Macedonia, Republic of

Feed Status: UP
Listen in your browser - HTML5 player(in browser, HTML5)
Click here to listen with your own player(launches your MP3 player)

LWSK 141000Z 00000KT 9999 FEW017 13/11 Q1011 NOSIG

LWSK Flight Activity (Flightaware)

Listeners: 1 out of 751 total

Skopje Tower: 118.500

LZKZ Gnd/Twr/App (Archives)
Kosice, Slovakia

Feed Status: UP
Listen in your browser - HTML5 player(in browser, HTML5)
Click here to listen with your own player(launches your MP3 player)

LZKZ 140930Z 18004KT 150V210 7000 BKN009 12/11 Q1012 BECMG BKN014

LZKZ Flight Activity (Flightaware)

Listeners: 1 out of 751 total

Kosice Approach: 119.850
Kosice Ground: 121.700
Kosice Handling: 131.850
Kosice Tower: 120.400

LZNI CTAF (Archives)
Nitra, Slovakia

Feed Status: UP
Listen in your browser - HTML5 player(in browser, HTML5)
Click here to listen with your own player(launches your MP3 player)

LZNI Flight Activity (Flightaware)

Listeners: 0 out of 751 total

Nitra Traffic Radio: 123.405

LZPE CTAF/UNICOM (Archives)
Prievidza, Slovakia

Feed Status: UP
Listen in your browser - HTML5 player(in browser, HTML5)
Click here to listen with your own player(launches your MP3 player)

LZPE Flight Activity (Flightaware)

Listeners: 0 out of 751 total

Prievidza CTAF/UNICOM: 123.055

LZPP Ground/Tower (Archives)
Piestany, Slovakia

Feed Status: UP
Listen in your browser - HTML5 player(in browser, HTML5)
Click here to listen with your own player(launches your MP3 player)

LZPP 140930Z VRB01KT CAVOK 05/02 Q1012

LZPP Flight Activity (Flightaware)

Listeners: 0 out of 751 total

Piestany Ground: 121.700
Piestany Tower: 118.575

LZPT CTAF (Archives)
Partizanske, Slovakia

Feed Status: UP
Listen in your browser - HTML5 player(in browser, HTML5)
Click here to listen with your own player(launches your MP3 player)

LZPT Flight Activity (Flightaware)

Listeners: 0 out of 751 total

Male Bielice CTAF: 123.500

MDPP App/Dep (Archives)
Puerto Plata, Dominican Republic

Feed Status: UP
Listen in your browser - HTML5 player(in browser, HTML5)
Click here to listen with your own player(launches your MP3 player)

MDPP 140900Z 00000KT 9999 FEW016 22/22 Q1012

MDPP Flight Activity (Flightaware)

Listeners: 0 out of 751 total

Puerto Plata Approach/Departure: 119.000

MDPP Ground/Center (Archives)
Puerto Plata, Dominican Republic

Feed Status: UP
Listen in your browser - HTML5 player(in browser, HTML5)
Click here to listen with your own player(launches your MP3 player)

MDPP 140900Z 00000KT 9999 FEW016 22/22 Q1012

MDPP Flight Activity (Flightaware)

Listeners: 0 out of 751 total

Puerto Plata Ground: 121.900
Puerto Plata Tower: 118.000
Santo Domingo Center: 124.300

MDPP Ground/Tower/Center (Archives)
Puerto Plata, Dominican Republic

Feed Status: UP
Listen in your browser - HTML5 player(in browser, HTML5)
Click here to listen with your own player(launches your MP3 player)

MDPP 140900Z 00000KT 9999 FEW016 22/22 Q1012

MDPP Flight Activity (Flightaware)

Listeners: 0 out of 751 total

Puerto Plata Ground: 121.900
Puerto Plata Tower: 118.000
Santo Domingo Center: 124.300

MDPP Tower (Archives)
Puerto Plata, Dominican Republic

Feed Status: UP
Listen in your browser - HTML5 player(in browser, HTML5)
Click here to listen with your own player(launches your MP3 player)

MDPP 140900Z 00000KT 9999 FEW016 22/22 Q1012

MDPP Flight Activity (Flightaware)

Listeners: 0 out of 751 total


MGGT Gnd/Twr (Archives)
Guatemala City, Guatemala

Feed Status: UP
Listen in your browser - HTML5 player(in browser, HTML5)
Click here to listen with your own player(launches your MP3 player)

MGGT 141000Z 04004KT 9999 FEW012 16/14 Q1024 A3024

MGGT Flight Activity (Flightaware)

Listeners: 0 out of 751 total

Guatemala City Ground: 121.900
Guatemala City Tower: 118.100

MGGT Ground (Archives)
Guatemala City, Guatemala

Feed Status: UP
Listen in your browser - HTML5 player(in browser, HTML5)
Click here to listen with your own player(launches your MP3 player)

MGGT 141000Z 04004KT 9999 FEW012 16/14 Q1024 A3024

MGGT Flight Activity (Flightaware)

Listeners: 0 out of 751 total

Guatemala City Ground: 121.900

MGGT Tower (Archives)
Guatemala City, Guatemala

Feed Status: UP
Listen in your browser - HTML5 player(in browser, HTML5)
Click here to listen with your own player(launches your MP3 player)

MGGT 141000Z 04004KT 9999 FEW012 16/14 Q1024 A3024

MGGT Flight Activity (Flightaware)

Listeners: 0 out of 751 total

Guatemala City Tower: 118.100

MHLC Gnd/Twr/Center (Archives)
La Ceiba, Honduras

Feed Status: UP
Listen in your browser - HTML5 player(in browser, HTML5)
Click here to listen with your own player(launches your MP3 player)

MHLC 140600Z 00000KT 9999 FEW024 22/21 Q1013 A2994 NOSIG

MHLC Flight Activity (Flightaware)

Listeners: 0 out of 751 total

CENAMER: 123.900
CENAMER: 124.300
Goloson Ground: 121.900
Goloson Tower: 118.500
La Ceiba Radio: 128.900

MHRO Gnd/Twr/App/Center (Archives)
Roatan, Honduras

Feed Status: UP
Listen in your browser - HTML5 player(in browser, HTML5)
Click here to listen with your own player(launches your MP3 player)

MHRO 140200Z 00000KT 9999 FEW020 SCT080 25/23 Q1013 A2992 NOSIG

MHRO Flight Activity (Flightaware)

Listeners: 0 out of 751 total

CENAMER (Center): 124.300
La Ceiba Radio: 128.900
Roatan Ground: 121.600
Roatan Tower: 118.100

MHTG ATIS (Archives)
Tegucigalpa, Honduras

Feed Status: UP
Listen in your browser - HTML5 player(in browser, HTML5)
Click here to listen with your own player(launches your MP3 player)

MHTG 140900Z 00000KT 9999 SCT026 14/14 Q1020 A3012 NOSIG

MHTG Flight Activity (Flightaware)

Listeners: 0 out of 751 total

Toncontin ATIS: 127.750

MHTG Gnd/Twr/App/Ctr/Ops (Archives)
Tegucigalpa, Honduras

Feed Status: UP
Listen in your browser - HTML5 player(in browser, HTML5)
Click here to listen with your own player(launches your MP3 player)

MHTG 140900Z 00000KT 9999 SCT026 14/14 Q1020 A3012 NOSIG

MHTG Flight Activity (Flightaware)

Listeners: 1 out of 751 total

American Airlines Ops: 130.700
ARINC ACARS: 131.550
Cenamer Center: 123.900
Cenamer Center: 124.300
Cenamer Center: 124.100
CMP Ops: 129.925
Continental Airlines Ops: 129.925
FAH Ground: 122.900
Taca Ops: 131.300
Taca Ops Sal: 130.300
Tecnologias Unidas: 133.000
Tegucigalpa RDO: 126.700
Toncontin Approach: 119.100
Toncontin Ground: 121.900
Toncontin Tower: 118.700

MMAN Tower (Archives)
Monterrey, Mexico

Feed Status: UP
Listen in your browser - HTML5 player(in browser, HTML5)
Click here to listen with your own player(launches your MP3 player)

MMAN 140541Z 00000KT 5SM SCT030 OVC080 06/04 A3011 RMK SLP/// 5//// 9// 8/57/ HZY

MMAN Flight Activity (Flightaware)

Listeners: 0 out of 751 total

Monterrey Tower: 118.600

MMCU Twr/App (Archives)
Chihuahua, Mexico

Feed Status: UP
Listen in your browser - HTML5 player(in browser, HTML5)
Click here to listen with your own player(launches your MP3 player)

MMCU 140510Z 18004KT 0SM FG VV000 05/05 A3014 RMK 8//// MSGTX MMMY

MMCU Flight Activity (Flightaware)

Listeners: 0 out of 751 total

Chihuahua Approach: 121.000
Chihuahua Tower: 118.400

MMGL Twr/App (Archives)
Guadalajara, Mexico

Feed Status: UP
Listen in your browser - HTML5 player(in browser, HTML5)
Click here to listen with your own player(launches your MP3 player)

MMGL 140842Z 00000KT 8SM BKN020 OVC090 14/13 A3020 RMK SLP132 57006 909 8/57/

MMGL Flight Activity (Flightaware)

Listeners: 1 out of 751 total

Guadalajara Approach: 120.800
Guadalajara Tower: 118.100

MMHO App/Dep (Archives)
Hermosillo, Mexico

Feed Status: UP
Listen in your browser - HTML5 player(in browser, HTML5)
Click here to listen with your own player(launches your MP3 player)

MMHO 140940Z 00000KT 10SM SKC 17/14 A3002 RMK HZY

MMHO Flight Activity (Flightaware)

Listeners: 0 out of 751 total

Hermosillo Approach/Departure: 121.400

MMHO Tower (Archives)
Hermosillo, Mexico

Feed Status: UP
Listen in your browser - HTML5 player(in browser, HTML5)
Click here to listen with your own player(launches your MP3 player)

MMHO 140940Z 00000KT 10SM SKC 17/14 A3002 RMK HZY

MMHO Flight Activity (Flightaware)

Listeners: out of 751 total

Hermosillo Tower: 118.700

MMLP Twr/App/Center (Archives)
La Paz, Mexico

Feed Status: UP
Listen in your browser - HTML5 player(in browser, HTML5)
Click here to listen with your own player(launches your MP3 player)

MMLP 140541Z 00000KT 10SM SKC 19/16 A3001 RMK SLP161 52008 910

MMLP Flight Activity (Flightaware)

Listeners: 0 out of 751 total

La Paz Approach: 120.600
La Paz Tower: 118.100
Mazatlan Center: 128.000
Mazatlan Center: 124.400
Mazatlan Center: 128.300
Mazatlan Center: 124.200
Mazatlan Center: 126.300
Mazatlan Center: 126.500
San Jose Approach: 120.900

MMMD Tower/Approach (Archives)
Merida, Mexico

Feed Status: UP
Listen in your browser - HTML5 player(in browser, HTML5)
Click here to listen with your own player(launches your MP3 player)

MMMD 140948Z 07003KT 7SM BKN004 OVC030 24/23 A2994 RMK 8/5//

MMMD Flight Activity (Flightaware)

Listeners: 0 out of 751 total

Merida Approach: 121.200
Merida Tower: 118.300

MMMM Tower
Morelia, Mexico

Feed Status: DOWN
Offline since: 2019-11-09 18:06:23 UTC

MMMM 140841Z 00000KT 7SM OVC090 14/12 A3023 RMK SLP114 57008 905 8/07/

Morelia Tower: 118.500

MMMX Approach (Archives)
Mexico City, Mexico

Feed Status: UP
Listen in your browser - HTML5 player(in browser, HTML5)
Click here to listen with your own player(launches your MP3 player)

MMMX 140940Z 00000KT 15SM FEW020 BKN080 14/07 A3030 NOSIG RMK 8/530 CI

MMMX Flight Activity (Flightaware)

Listeners: 0 out of 751 total

Mexico City Approach: 121.200

MMMX Twr/App (Archives)
Mexico City, Mexico

Feed Status: UP
Listen in your browser - HTML5 player(in browser, HTML5)
Click here to listen with your own player(launches your MP3 player)

MMMX 140940Z 00000KT 15SM FEW020 BKN080 14/07 A3030 NOSIG RMK 8/530 CI

MMMX Flight Activity (Flightaware)

Listeners: 3 out of 751 total

Mexico City Approach: 121.200
Mexico City Final Approach: 119.750
Mexico City Helicopters: 118.150
Mexico City Terminal: 129.600
Mexico City Tower: 118.550

MMMY Tower/Approach (Archives)
Monterrey, Mexico

Feed Status: UP
Listen in your browser - HTML5 player(in browser, HTML5)
Click here to listen with your own player(launches your MP3 player)

MMMY 140945Z 00000KT 7SM SKC 04/03 A3004

MMMY Flight Activity (Flightaware)

Listeners: 0 out of 751 total

Monterrey Approach/Departure: 119.750
Monterrey Tower: 118.100

MMQT Tower/App (Archives)
Queretaro, Mexico

Feed Status: UP
Listen in your browser - HTML5 player(in browser, HTML5)
Click here to listen with your own player(launches your MP3 player)

MMQT 140942Z 08008KT 8SM BKN020 14/11 A3028 RMK 8/500

MMQT Flight Activity (Flightaware)

Listeners: 0 out of 751 total

Queretaro Approach: 127.200
Queretaro Tower: 118.950

MMSP Gnd/Twr/App/Center (Archives)
San Luis Potosi, Mexico

Feed Status: UP
Listen in your browser - HTML5 player(in browser, HTML5)
Click here to listen with your own player(launches your MP3 player)

MMSP 140949Z 00000KT 6SM FEW003 BKN013 OVC020 09/08 A3022 RMK 60025 8/5// -RA E37 HZY

MMSP Flight Activity (Flightaware)

Listeners: 0 out of 751 total

AMX Ground Ops: 131.000
Mexico Center (North, Sector 6): 126.000
Mexico Center (Northwest, Sector 7): 123.900
Mexico Center (West, Sector 5): 125.100
Potosi Approach: 127.500
Potosi Tower: 118.900
TAO Ground Ops: 133.600

MMTC Twr/App/Center (Archives)
Torreon, Mexico

Feed Status: UP
Listen in your browser - HTML5 player(in browser, HTML5)
Click here to listen with your own player(launches your MP3 player)

MMTC 140340Z 33006KT 2 1/2SM BR BKN010 BKN070 11/09 A3015 RMK 8/570

MMTC Flight Activity (Flightaware)

Listeners: 0 out of 751 total

Mazatlan Center: 124.200
Mazatlan Center: 124.400
Mazatlan Center: 128.000
Mexico Center: 123.900
Monterrey Center: 125.600
Monterrey Center: 125.425
Monterrey Center: 127.400
Torreon Approach: 119.500
Torreon Tower: 118.500

MMTJ Approach (Archives)
Tijuana, Mexico

Feed Status: UP
Listen in your browser - HTML5 player(in browser, HTML5)
Click here to listen with your own player(launches your MP3 player)

MMTJ 140941Z 00000KT 4SM SKC 11/11 A3007 RMK HZY ST-W

MMTJ Flight Activity (Flightaware)

Listeners: 0 out of 751 total

Tijuana Approach: 120.300

MMTJ Twr/Ramp (Archives)
Tijuana, Mexico

Feed Status: UP
Listen in your browser - HTML5 player(in browser, HTML5)
Click here to listen with your own player(launches your MP3 player)

MMTJ 140941Z 00000KT 4SM SKC 11/11 A3007 RMK HZY ST-W

MMTJ Flight Activity (Flightaware)

Listeners: 0 out of 751 total

Tijuana Ramp: 126.100
Tijuana Tower: 118.100

MROC Del/Gnd/Twr (Archives)
San Jose, Costa Rica

Feed Status: UP
Listen in your browser - HTML5 player(in browser, HTML5)
Click here to listen with your own player(launches your MP3 player)

MROC 140900Z 00000KT 9999 1500SW VCFG SCT002 BKN120 19/19 A2999 NOSIG

MROC Flight Activity (Flightaware)

Listeners: 0 out of 751 total

Coco Clearance Delivery/Ground: 121.900
Coco Tower: 118.600

MROC Del/Gnd/Twr/App/Center/Misc (Archives)
San Jose, Costa Rica

Feed Status: UP
Listen in your browser - HTML5 player(in browser, HTML5)
Click here to listen with your own player(launches your MP3 player)

MROC 140900Z 00000KT 9999 1500SW VCFG SCT002 BKN120 19/19 A2999 NOSIG

MROC Flight Activity (Flightaware)

Listeners: 3 out of 751 total

Central American Center (CENAMER Control): 124.100
Coco Center (Control over CR Airspace): 119.600
Coco Clearance Delivery: 121.300
Coco Ground: 121.900
Coco Terminal Control: 120.500
Coco Tower: 118.600
Coco UNICOM: 126.800
SYQ Ground: 121.700
SYQ Tower: 118.300

MSLP Gnd/Twr/App (Archives)
San Salvador, El Salvador

Feed Status: UP
Listen in your browser - HTML5 player(in browser, HTML5)
Click here to listen with your own player(launches your MP3 player)

MSLP 140950Z 09003KT 9999 BKN037 25/23 Q1011 A2986 NOSIG

MSLP Flight Activity (Flightaware)

Listeners: 0 out of 751 total

Comalapa Ground: 121.700
Comalapa Tower: 118.000
Compalapa Approach: 119.900

MSLP Gnd/Twr/App/Center (Archives)
San Salvador, El Salvador

Feed Status: UP
Listen in your browser - HTML5 player(in browser, HTML5)
Click here to listen with your own player(launches your MP3 player)

MSLP 140950Z 09003KT 9999 BKN037 25/23 Q1011 A2986 NOSIG

MSLP Flight Activity (Flightaware)

Listeners: 0 out of 751 total

Avianca Ops: 123.500
CCA: 119.300
CENAMER: 124.100
Comalapa Authorizations: 121.250
Comalapa Departure: 123.900
Comalapa Ground: 121.700
Comalapa Tower: 118.000
Compalapa Approach: 119.900
Ilopango Tower: 118.300
TACA Ops: 130.500

MSSS Tower
San Salvador, El Salvador

Feed Status: DOWN
Offline since: 2019-11-12 03:27:40 UTC

MSSS 140550Z 20002KT CAVOK 22/21 Q1017 A3004

Ilopango Tower: 118.300

MUFH Havana FIR (App/Center) (Archives)
Havana, Cuba

Feed Status: UP
Listen in your browser - HTML5 player(in browser, HTML5)
Click here to listen with your own player(launches your MP3 player)

MUFH Flight Activity (Flightaware)

Listeners: 0 out of 751 total

Hava Approach: 120.300
Havana Center: 120.250
Havana Center: 123.700
Havana Center: 124.550
Havana Center: 133.700
Havana Center: 135.100

OKBK Gnd/Twr/App/Radar (Archives)
Kuwait City, Kuwait

Feed Status: UP
Listen in your browser - HTML5 player(in browser, HTML5)
Click here to listen with your own player(launches your MP3 player)

OKBK 141000Z 00000KT CAVOK 29/02 Q1017 NOSIG


Listeners: 8 out of 751 total

Kuwait Approach: 121.300
Kuwait Approach: 124.800
Kuwait Ground: 121.700
Kuwait Radar (Center): 125.300
Kuwait Tower: 118.300

OPKC Gnd/Twr/Radar (Archives)
Karachi, Pakistan

Feed Status: UP
Listen in your browser - HTML5 player(in browser, HTML5)
Click here to listen with your own player(launches your MP3 player)

OPKC 140930Z 07005KT 2000 HZ NSC 29/11 Q1013 NOSIG


Listeners: 1 out of 751 total

Karachi Ground: 121.600
Karachi Radar: 125.500
Karachi Tower: 118.300

OPLA ATIS
Lahore, Pakistan

Feed Status: DOWN
Offline since: 2019-11-13 19:17:05 UTC

OPLA 140929Z 29002KT 1500 R36/P2000N R18/1800D SCT040 BKN100 23/15 Q1018 RMK -RA RMK RMID/1300N RMK QFE993 RMK A30.01

Lahore ATIS: 126.300

OPLA/OPLH Gnd/Twr/App
Lahore, Pakistan

Feed Status: DOWN
Offline since: 2019-11-13 19:17:05 UTC

OPLA 140929Z 29002KT 1500 R36/P2000N R18/1800D SCT040 BKN100 23/15 Q1018 RMK -RA RMK RMID/1300N RMK QFE993 RMK A30.01

Lahore Approach: 121.300
Lahore Approach: 125.300
Lahore Control: 127.500
Lahore Ground: 118.400
Lahore Tower: 118.100
Lahore Tower: 121.800
Walton (OPLH) Tower: 119.400

OPLA/OPLH Gnd/Twr/App
Lahore, Pakistan

Feed Status: DOWN
Offline since: 2019-11-13 19:17:05 UTC

OPLA 140929Z 29002KT 1500 R36/P2000N R18/1800D SCT040 BKN100 23/15 Q1018 RMK -RA RMK RMID/1300N RMK QFE993 RMK A30.01

Lahore Approach: 121.300
Lahore Approach: 125.300
Lahore Control: 127.500
Lahore Ground: 118.400
Lahore Tower: 118.100
Lahore Tower: 121.800
Walton (OPLH) Tower: 119.400

RCTP Approach (Archives)
Taipei, Taiwan

Feed Status: UP
Listen in your browser - HTML5 player(in browser, HTML5)
Click here to listen with your own player(launches your MP3 player)

RCTP 140935Z 06017KT 9999 FEW015 BKN060 21/14 Q1019 WS ALL RWY NOSIG RMK A3009

RCTP Flight Activity (Flightaware)

Listeners: 0 out of 751 total

Emergency/Guard: 121.500
Taipei Approach: 125.100
Taipei Approach: 125.600
Taipei Approach: 128.500

RCTP Tower (Archives)
Taipei, Taiwan

Feed Status: UP
Listen in your browser - HTML5 player(in browser, HTML5)
Click here to listen with your own player(launches your MP3 player)

RCTP 140935Z 06017KT 9999 FEW015 BKN060 21/14 Q1019 WS ALL RWY NOSIG RMK A3009

RCTP Flight Activity (Flightaware)

Listeners: 2 out of 751 total

Taipei Tower: 118.700

RJAA Approach (Archives)
Tokyo, Japan

Feed Status: UP
Listen in your browser - HTML5 player(in browser, HTML5)
Click here to listen with your own player(launches your MP3 player)

RJAA 140930Z 01015KT 9999 FEW030 SCT050 BKN070 16/05 Q1010 NOSIG RMK 1CU030 3SC050 6AC070 A2985

RJAA Flight Activity (Flightaware)

Listeners: 11 out of 751 total

Tokyo Approach: 124.400
Tokyo Approach: 127.700

RJAA Clearance Delivery (Archives)
Tokyo, Japan

Feed Status: UP
Listen in your browser - HTML5 player(in browser, HTML5)
Click here to listen with your own player(launches your MP3 player)

RJAA 140930Z 01015KT 9999 FEW030 SCT050 BKN070 16/05 Q1010 NOSIG RMK 1CU030 3SC050 6AC070 A2985

RJAA Flight Activity (Flightaware)

Listeners: 1 out of 751 total

Narita Clearance Delivery (Asia/Pacific): 121.650
Narita Clearance Delivery (US/Europe): 121.900

RJAA Clearance Delivery #1 (Archives)
Tokyo, Japan

Feed Status: UP
Listen in your browser - HTML5 player(in browser, HTML5)
Click here to listen with your own player(launches your MP3 player)

RJAA 140930Z 01015KT 9999 FEW030 SCT050 BKN070 16/05 Q1010 NOSIG RMK 1CU030 3SC050 6AC070 A2985

RJAA Flight Activity (Flightaware)

Listeners: 0 out of 751 total

Narita Clearance Delivery (Asia/Pacific): 121.650

RJAA Clearance Delivery #2 (Archives)
Tokyo, Japan

Feed Status: UP
Listen in your browser - HTML5 player(in browser, HTML5)
Click here to listen with your own player(launches your MP3 player)

RJAA 140930Z 01015KT 9999 FEW030 SCT050 BKN070 16/05 Q1010 NOSIG RMK 1CU030 3SC050 6AC070 A2985

RJAA Flight Activity (Flightaware)

Listeners: 2 out of 751 total

Narita Clearance Delivery (US/Europe): 121.900

RJAA Company Channels (Archives)
Tokyo, Japan

Feed Status: UP
Listen in your browser - HTML5 player(in browser, HTML5)
Click here to listen with your own player(launches your MP3 player)

RJAA 140930Z 01015KT 9999 FEW030 SCT050 BKN070 16/05 Q1010 NOSIG RMK 1CU030 3SC050 6AC070 A2985

RJAA Flight Activity (Flightaware)

Listeners: 2 out of 751 total

Ops: 130.450
Ops: 130.550
Ops: 130.900
Ops: 131.025
Ops: 131.100
Ops: 131.200
Ops: 131.700
Ops: 131.750

RJAA Departure (Archives)
Tokyo, Japan

Feed Status: UP
Listen in your browser - HTML5 player(in browser, HTML5)
Click here to listen with your own player(launches your MP3 player)

RJAA 140930Z 01015KT 9999 FEW030 SCT050 BKN070 16/05 Q1010 NOSIG RMK 1CU030 3SC050 6AC070 A2985

RJAA Flight Activity (Flightaware)

Listeners: 2 out of 751 total

Tokyo Departure: 119.600
Tokyo Departure: 124.200

RJAA Departure #1 (Archives)
Tokyo, Japan

Feed Status: UP
Listen in your browser - HTML5 player(in browser, HTML5)
Click here to listen with your own player(launches your MP3 player)

RJAA 140930Z 01015KT 9999 FEW030 SCT050 BKN070 16/05 Q1010 NOSIG RMK 1CU030 3SC050 6AC070 A2985

RJAA Flight Activity (Flightaware)

Listeners: 1 out of 751 total

Tokyo Departure: 124.200

RJAA Departure #2 (Archives)
Tokyo, Japan

Feed Status: UP
Listen in your browser - HTML5 player(in browser, HTML5)
Click here to listen with your own player(launches your MP3 player)

RJAA 140930Z 01015KT 9999 FEW030 SCT050 BKN070 16/05 Q1010 NOSIG RMK 1CU030 3SC050 6AC070 A2985

RJAA Flight Activity (Flightaware)

Listeners: 0 out of 751 total

Tokyo Departure: 119.600

RJAA Emergency/Guard (Archives)
Tokyo, Japan

Feed Status: UP
Listen in your browser - HTML5 player(in browser, HTML5)
Click here to listen with your own player(launches your MP3 player)

RJAA 140930Z 01015KT 9999 FEW030 SCT050 BKN070 16/05 Q1010 NOSIG RMK 1CU030 3SC050 6AC070 A2985

RJAA Flight Activity (Flightaware)

Listeners: 0 out of 751 total

Emergency/Guard: 121.500

RJAA Ground #1 (Archives)
Tokyo, Japan

Feed Status: UP
Listen in your browser - HTML5 player(in browser, HTML5)
Click here to listen with your own player(launches your MP3 player)

RJAA 140930Z 01015KT 9999 FEW030 SCT050 BKN070 16/05 Q1010 NOSIG RMK 1CU030 3SC050 6AC070 A2985

RJAA Flight Activity (Flightaware)

Listeners: 2 out of 751 total

Narita Ground: 121.850

RJAA Ground #2 (Archives)
Tokyo, Japan

Feed Status: UP
Listen in your browser - HTML5 player(in browser, HTML5)
Click here to listen with your own player(launches your MP3 player)

RJAA 140930Z 01015KT 9999 FEW030 SCT050 BKN070 16/05 Q1010 NOSIG RMK 1CU030 3SC050 6AC070 A2985

RJAA Flight Activity (Flightaware)

Listeners: 1 out of 751 total

Narita Ground: 121.950

RJAA Radar (Archives)
Tokyo, Japan

Feed Status: UP
Listen in your browser - HTML5 player(in browser, HTML5)
Click here to listen with your own player(launches your MP3 player)

RJAA 140930Z 01015KT 9999 FEW030 SCT050 BKN070 16/05 Q1010 NOSIG RMK 1CU030 3SC050 6AC070 A2985

RJAA Flight Activity (Flightaware)

Listeners: 0 out of 751 total

Tokyo Radar: 120.200

RJAA Ramp #1 (Archives)
Tokyo, Japan

Feed Status: UP
Listen in your browser - HTML5 player(in browser, HTML5)
Click here to listen with your own player(launches your MP3 player)

RJAA 140930Z 01015KT 9999 FEW030 SCT050 BKN070 16/05 Q1010 NOSIG RMK 1CU030 3SC050 6AC070 A2985

RJAA Flight Activity (Flightaware)

Listeners: 1 out of 751 total

Narita Ramp: 121.600

RJAA Ramp #2 (Archives)
Tokyo, Japan

Feed Status: UP
Listen in your browser - HTML5 player(in browser, HTML5)
Click here to listen with your own player(launches your MP3 player)

RJAA 140930Z 01015KT 9999 FEW030 SCT050 BKN070 16/05 Q1010 NOSIG RMK 1CU030 3SC050 6AC070 A2985

RJAA Flight Activity (Flightaware)

Listeners: 0 out of 751 total

Narita Ramp: 121.750

RJAA TCA (Archives)
Tokyo, Japan

Feed Status: UP
Listen in your browser - HTML5 player(in browser, HTML5)
Click here to listen with your own player(launches your MP3 player)

RJAA 140930Z 01015KT 9999 FEW030 SCT050 BKN070 16/05 Q1010 NOSIG RMK 1CU030 3SC050 6AC070 A2985

RJAA Flight Activity (Flightaware)

Listeners: 0 out of 751 total

Tokyo TCA (Terminal Control Area): 119.450

RJAA Tokyo Control (Archives)
Tokyo, Japan

Feed Status: UP
Listen in your browser - HTML5 player(in browser, HTML5)
Click here to listen with your own player(launches your MP3 player)

RJAA 140930Z 01015KT 9999 FEW030 SCT050 BKN070 16/05 Q1010 NOSIG RMK 1CU030 3SC050 6AC070 A2985

RJAA Flight Activity (Flightaware)

Listeners: 0 out of 751 total

Tokyo Control: 125.900

RJAA Tower #1 (Archives)
Tokyo, Japan

Feed Status: UP
Listen in your browser - HTML5 player(in browser, HTML5)
Click here to listen with your own player(launches your MP3 player)

RJAA 140930Z 01015KT 9999 FEW030 SCT050 BKN070 16/05 Q1010 NOSIG RMK 1CU030 3SC050 6AC070 A2985

RJAA Flight Activity (Flightaware)

Listeners: 5 out of 751 total

Narita Tower (Rwy 16R/34L): 118.200

RJAA Tower #2 (Archives)
Tokyo, Japan

Feed Status: UP
Listen in your browser - HTML5 player(in browser, HTML5)
Click here to listen with your own player(launches your MP3 player)

RJAA 140930Z 01015KT 9999 FEW030 SCT050 BKN070 16/05 Q1010 NOSIG RMK 1CU030 3SC050 6AC070 A2985

RJAA Flight Activity (Flightaware)

Listeners: 7 out of 751 total

Narita Tower (Rwy 16L/34R): 118.350

RJOO Tower (Archives)
Osaka, Japan

Feed Status: UP
Listen in your browser - HTML5 player(in browser, HTML5)
Click here to listen with your own player(launches your MP3 player)

RJOO 140900Z 32014KT 9999 FEW025 11/02 Q1018

RJOO Flight Activity (Flightaware)

Listeners: 4 out of 751 total

Osaka Tower: 118.100

RJSF RDO (Archives)
Sukagawa, Japan

Feed Status: UP
Listen in your browser - HTML5 player(in browser, HTML5)
Click here to listen with your own player(launches your MP3 player)

RJSF 140900Z VRB05KT 9999 FEW020 SCT040 06/03 Q1013

RJSF Flight Activity (Flightaware)

Listeners: 0 out of 751 total

Fukushima Radio: 118.050

RJTT App/Dep (Archives)
Tokyo, Japan

Feed Status: UP
Listen in your browser - HTML5 player(in browser, HTML5)
Click here to listen with your own player(launches your MP3 player)

RJTT 140930Z 36020KT 9999 BKN060 18/05 Q1011 TEMPO 34024G34KT RMK 7SC060 A2985 MOD TURB OBS AT 0924Z 10NM S COLOR BTN 9000FT AND 7000FT IN DES BY B763

RJTT Flight Activity (Flightaware)

Listeners: 15 out of 751 total

Tokyo Approach: 119.100
Tokyo Approach: 119.400
Tokyo Departure: 120.800
Tokyo Departure: 126.000

RJTT Approach (Archives)
Tokyo, Japan

Feed Status: UP
Listen in your browser - HTML5 player(in browser, HTML5)
Click here to listen with your own player(launches your MP3 player)

RJTT 140930Z 36020KT 9999 BKN060 18/05 Q1011 TEMPO 34024G34KT RMK 7SC060 A2985 MOD TURB OBS AT 0924Z 10NM S COLOR BTN 9000FT AND 7000FT IN DES BY B763

RJTT Flight Activity (Flightaware)

Listeners: 20 out of 751 total

Tokyo Approach: 119.100
Tokyo Approach: 119.400

RJTT ATIS (Archives)
Tokyo, Japan

Feed Status: UP
Listen in your browser - HTML5 player(in browser, HTML5)
Click here to listen with your own player(launches your MP3 player)

RJTT 140930Z 36020KT 9999 BKN060 18/05 Q1011 TEMPO 34024G34KT RMK 7SC060 A2985 MOD TURB OBS AT 0924Z 10NM S COLOR BTN 9000FT AND 7000FT IN DES BY B763

RJTT Flight Activity (Flightaware)

Listeners: 0 out of 751 total

Tokyo ATIS: 128.800

RJTT Company Channels
Tokyo, Japan

Feed Status: DOWN
Offline since: 2019-11-11 03:19:40 UTC

RJTT 140930Z 36020KT 9999 BKN060 18/05 Q1011 TEMPO 34024G34KT RMK 7SC060 A2985 MOD TURB OBS AT 0924Z 10NM S COLOR BTN 9000FT AND 7000FT IN DES BY B763

Company TBD: 128.500
Company TBD: 131.850
Company TBD: 129.725
Company TBD: 129.700
Company TBD: 131.900
Company TBD: 129.850
Company TBD: 128.975
Company TBD: 123.675
Company TBD: 132.075

RJTT Del/Ground (Archives)
Tokyo, Japan

Feed Status: UP
Listen in your browser - HTML5 player(in browser, HTML5)
Click here to listen with your own player(launches your MP3 player)

RJTT 140930Z 36020KT 9999 BKN060 18/05 Q1011 TEMPO 34024G34KT RMK 7SC060 A2985 MOD TURB OBS AT 0924Z 10NM S COLOR BTN 9000FT AND 7000FT IN DES BY B763

RJTT Flight Activity (Flightaware)

Listeners: 0 out of 751 total

Tokyo Clearance Delivery: 121.825
Tokyo Ground: 121.700
Tokyo Ground: 118.225
Tokyo Ground: 121.625
Tokyo Ground: 121.975

RJTT Del/Twr/TCA/Gnd (Archives)
Tokyo, Japan

Feed Status: UP
Listen in your browser - HTML5 player(in browser, HTML5)
Click here to listen with your own player(launches your MP3 player)

RJTT 140930Z 36020KT 9999 BKN060 18/05 Q1011 TEMPO 34024G34KT RMK 7SC060 A2985 MOD TURB OBS AT 0924Z 10NM S COLOR BTN 9000FT AND 7000FT IN DES BY B763

RJTT Flight Activity (Flightaware)

Listeners: 2 out of 751 total

Tokyo Clearance Delivery: 121.825
Tokyo Ground: 121.975
Tokyo Ground: 121.625
Tokyo Ground: 121.700
Tokyo Ground: 118.225
Tokyo TCA: 124.750
Tokyo Tower: 118.100
Tokyo Tower: 118.575
Tokyo Tower: 118.725
Tokyo Tower: 124.350

RJTT Departure (Archives)
Tokyo, Japan

Feed Status: UP
Listen in your browser - HTML5 player(in browser, HTML5)
Click here to listen with your own player(launches your MP3 player)

RJTT 140930Z 36020KT 9999 BKN060 18/05 Q1011 TEMPO 34024G34KT RMK 7SC060 A2985 MOD TURB OBS AT 0924Z 10NM S COLOR BTN 9000FT AND 7000FT IN DES BY B763

RJTT Flight Activity (Flightaware)

Listeners: 5 out of 751 total

Tokyo Departure: 120.800
Tokyo Departure: 126.000

RJTT Tokyo Control
Tokyo, Japan

Feed Status: DOWN
Offline since: 2019-11-11 03:19:40 UTC

RJTT 140930Z 36020KT 9999 BKN060 18/05 Q1011 TEMPO 34024G34KT RMK 7SC060 A2985 MOD TURB OBS AT 0924Z 10NM S COLOR BTN 9000FT AND 7000FT IN DES BY B763

Tokyo Control: 133.700
Tokyo Control: 125.900
Tokyo Control: 120.500

RJTT Twr/TCA (Archives)
Tokyo, Japan

Feed Status: UP
Listen in your browser - HTML5 player(in browser, HTML5)
Click here to listen with your own player(launches your MP3 player)

RJTT 140930Z 36020KT 9999 BKN060 18/05 Q1011 TEMPO 34024G34KT RMK 7SC060 A2985 MOD TURB OBS AT 0924Z 10NM S COLOR BTN 9000FT AND 7000FT IN DES BY B763

RJTT Flight Activity (Flightaware)

Listeners: 4 out of 751 total

Tokyo TCA: 124.750
Tokyo Tower: 118.100
Tokyo Tower: 118.575
Tokyo Tower: 118.725
Tokyo Tower: 124.350

RJTY Approach (Archives)
Tokyo, Japan

Feed Status: UP
Listen in your browser - HTML5 player(in browser, HTML5)
Click here to listen with your own player(launches your MP3 player)

RJTY 140956Z AUTO 03014KT 10SM SCT060 13/02 A2990 RMK AO2 SLP130 T01260022 FZRANO $

RJTY Flight Activity (Flightaware)

Listeners: 4 out of 751 total

Yokota Approach: 118.300
Yokota APproach: 123.800
Yokota Approach: 120.700

RJTY ATIS (Archives)
Tokyo, Japan

Feed Status: UP
Listen in your browser - HTML5 player(in browser, HTML5)
Click here to listen with your own player(launches your MP3 player)

RJTY 140956Z AUTO 03014KT 10SM SCT060 13/02 A2990 RMK AO2 SLP130 T01260022 FZRANO $

RJTY Flight Activity (Flightaware)

Listeners: 0 out of 751 total

Yokota ATIS: 126.400

RJTY Ground (Archives)
Tokyo, Japan

Feed Status: UP
Listen in your browser - HTML5 player(in browser, HTML5)
Click here to listen with your own player(launches your MP3 player)

RJTY 140956Z AUTO 03014KT 10SM SCT060 13/02 A2990 RMK AO2 SLP130 T01260022 FZRANO $

RJTY Flight Activity (Flightaware)

Listeners: 0 out of 751 total

Yokota Ground: 133.200

RJTY Ground/Tower (Archives)
Tokyo, Japan

Feed Status: UP
Listen in your browser - HTML5 player(in browser, HTML5)
Click here to listen with your own player(launches your MP3 player)

RJTY 140956Z AUTO 03014KT 10SM SCT060 13/02 A2990 RMK AO2 SLP130 T01260022 FZRANO $

RJTY Flight Activity (Flightaware)

Listeners: 2 out of 751 total

Yokota Ground: 133.200
Yokota Tower: 134.300

RJTY Tower (Archives)
Tokyo, Japan

Feed Status: UP
Listen in your browser - HTML5 player(in browser, HTML5)
Click here to listen with your own player(launches your MP3 player)

RJTY 140956Z AUTO 03014KT 10SM SCT060 13/02 A2990 RMK AO2 SLP130 T01260022 FZRANO $

RJTY Flight Activity (Flightaware)

Listeners: 0 out of 751 total

Yokota Tower: 134.300

RKSG Gnd/Twr/App (Archives)
Pyeongtaek, Korea, Republic of

Feed Status: UP
Listen in your browser - HTML5 player(in browser, HTML5)
Click here to listen with your own player(launches your MP3 player)

RKSG 140956Z 00000KT 7SM CLR 04/M10 A3020 RMK AO2A SLP231 T00361097 $

RKSG Flight Activity (Flightaware)

Listeners: 0 out of 751 total

Desiderio Final: 255.800
Desiderio GCA: 226.800
Desiderio GCA: 127.000
Desiderio Ground (Camp Humphreys A-511 AAF): 119.500
Desiderio Ground UHF: 229.700
Desiderio Ops: 294.100
Desiderio Tower (Camp Humphreys A-511 AAF): 122.500
Desiderio Tower UHF: 257.800

RKRR Incheon Control (Archives)
Incheon, Korea, Republic of

Feed Status: UP
Listen in your browser - HTML5 player(in browser, HTML5)
Click here to listen with your own player(launches your MP3 player)

RKSI 140930Z 17004KT CAVOK 03/M09 Q1022 NOSIG

RKSI Flight Activity (Flightaware)

Listeners: 1 out of 751 total

Incheon Control North Sector (Primary): 128.700
Incheon Control North Sector (Secondary): 132.800
Incheon Control Northwest Sector (Primary): 126.175
Incheon Control Northwest Sector (Secondary): 123.725

RKSO Gnd/Twr/App (Archives)
Pyeongtaek, Korea, Republic of

Feed Status: UP
Listen in your browser - HTML5 player(in browser, HTML5)
Click here to listen with your own player(launches your MP3 player)

RKSO 140856Z 20005KT 7SM CLR 04/M08 A3020 RMK AO2A SLP231 55015

RKSO Flight Activity (Flightaware)

Listeners: 1 out of 751 total

25 FS Ops: 229.000
36FS Ops: 371.300
Osan Air Base Approach/Departure: 127.900
Osan Air Base Approach/Departure: 133.650
Osan Air Base Ground: 132.450
Osan Air Base Tower: 122.100
Osan App/Dep UHF: 306.600
Osan App/Dep UHF: 234.300
Osan App/Dep UHF (possibly inactive): 306.300
Osan App/Dep UHF (possibly inactive): 363.100
Osan Ground UHF: 253.700
Osan SAR: 282.800
Osan SAR: 381.000
Osan SOF: 299.800
Osan Tower UHF: 308.800
Stallion Ops: 276.200

ROAH Gnd/Twr/App (Archives)
Okinawa, Japan

Feed Status: UP
Listen in your browser - HTML5 player(in browser, HTML5)
Click here to listen with your own player(launches your MP3 player)

RODN 140856Z AUTO 02012KT 10SM CLR 21/14 A3006 RMK AO2 SLP186 T02090136 53009 $

RODN Flight Activity (Flightaware)

Listeners: 5 out of 751 total


ROAH Naha ACC (Archives)
Okinawa, Japan

Feed Status: UP
Listen in your browser - HTML5 player(in browser, HTML5)
Click here to listen with your own player(launches your MP3 player)

RODN 140856Z AUTO 02012KT 10SM CLR 21/14 A3006 RMK AO2 SLP186 T02090136 53009 $

RODN Flight Activity (Flightaware)

Listeners: 1 out of 751 total


RODN Gnd/Twr/App (Archives)
Okinawa, Japan

Feed Status: UP
Listen in your browser - HTML5 player(in browser, HTML5)
Click here to listen with your own player(launches your MP3 player)

RODN 140856Z AUTO 02012KT 10SM CLR 21/14 A3006 RMK AO2 SLP186 T02090136 53009 $

RODN Flight Activity (Flightaware)

Listeners: 2 out of 751 total


ROTM Gnd/Twr (Archives)
Okinawa, Japan

Feed Status: UP
Listen in your browser - HTML5 player(in browser, HTML5)
Click here to listen with your own player(launches your MP3 player)

RODN 140856Z AUTO 02012KT 10SM CLR 21/14 A3006 RMK AO2 SLP186 T02090136 53009 $

RODN Flight Activity (Flightaware)

Listeners: 0 out of 751 total


RPLL ACC 125.7 (Archives)
Manila, Philippines

Feed Status: UP
Listen in your browser - HTML5 player(in browser, HTML5)
Click here to listen with your own player(launches your MP3 player)

RPLL 140900Z 13004KT 100V180 9999 SCT023 OVC100 29/24 Q1007 RMK A2974

RPLL Flight Activity (Flightaware)

Listeners: 0 out of 751 total

Manila Control: 125.700

RPLL App/Dep 124.4 (Archives)
Manila, Philippines

Feed Status: UP
Listen in your browser - HTML5 player(in browser, HTML5)
Click here to listen with your own player(launches your MP3 player)

RPLL 140900Z 13004KT 100V180 9999 SCT023 OVC100 29/24 Q1007 RMK A2974

RPLL Flight Activity (Flightaware)

Listeners: 1 out of 751 total

Manila Approach/.Departure: 124.400

RPLL App/Dep 124.8 (Archives)
Manila, Philippines

Feed Status: UP
Listen in your browser - HTML5 player(in browser, HTML5)
Click here to listen with your own player(launches your MP3 player)

RPLL 140900Z 13004KT 100V180 9999 SCT023 OVC100 29/24 Q1007 RMK A2974

RPLL Flight Activity (Flightaware)

Listeners: 0 out of 751 total

Manila Approach/.Departure: 124.800

RPLL ATIS (Archives)
Manila, Philippines

Feed Status: UP
Listen in your browser - HTML5 player(in browser, HTML5)
Click here to listen with your own player(launches your MP3 player)

RPLL 140900Z 13004KT 100V180 9999 SCT023 OVC100 29/24 Q1007 RMK A2974

RPLL Flight Activity (Flightaware)

Listeners: 0 out of 751 total

Manila ATIS: 126.400

RPLL Clearance Delivery (Archives)
Manila, Philippines

Feed Status: UP
Listen in your browser - HTML5 player(in browser, HTML5)
Click here to listen with your own player(launches your MP3 player)

RPLL 140900Z 13004KT 100V180 9999 SCT023 OVC100 29/24 Q1007 RMK A2974

RPLL Flight Activity (Flightaware)

Listeners: 0 out of 751 total

Manila Clearance Delivery (Primary): 125.100
Manila Clearance Delivery (Secondary): 125.500

RPLL Ground (Archives)
Manila, Philippines

Feed Status: UP
Listen in your browser - HTML5 player(in browser, HTML5)
Click here to listen with your own player(launches your MP3 player)

RPLL 140900Z 13004KT 100V180 9999 SCT023 OVC100 29/24 Q1007 RMK A2974

RPLL Flight Activity (Flightaware)

Listeners: 0 out of 751 total

Manila Ground: 121.800

RPLL Ramp/Taxi (Archives)
Manila, Philippines

Feed Status: UP
Listen in your browser - HTML5 player(in browser, HTML5)
Click here to listen with your own player(launches your MP3 player)

RPLL 140900Z 13004KT 100V180 9999 SCT023 OVC100 29/24 Q1007 RMK A2974

RPLL Flight Activity (Flightaware)

Listeners: 0 out of 751 total

Manila Ramp/Taxi: 121.350
Manila Ramp/Taxi: 121.700

RPLL Tower (Archives)
Manila, Philippines

Feed Status: UP
Listen in your browser - HTML5 player(in browser, HTML5)
Click here to listen with your own player(launches your MP3 player)

RPLL 140900Z 13004KT 100V180 9999 SCT023 OVC100 29/24 Q1007 RMK A2974

RPLL Flight Activity (Flightaware)

Listeners: 0 out of 751 total

Manila Tower: 118.100

SABE Gnd/Twr/App
Buenos Aires, Argentina

Feed Status: DOWN
Offline since: 2019-11-11 14:41:39 UTC

SABE 140900Z 32003KT 9999 FEW040TCU 22/15 Q1008 NOSIG

Aerolineas Argentinas Ops: 131.950
Aerolineas Argentinas Ops: 131.100
Aeroparque Ground: 121.900
Aeroparque Tower: 120.600
Aeroparque Tower: 118.250
Aeroparque Tower: 128.850
Aeroparque Tower: 118.850
Aeroparque Tower: 129.300
Air to Air: 123.450
Baires: 125.900
Baires: 125.300
Baires: 124.900
Cordoba South: 126.500
Ezeiza Ground: 121.750
Ezeiza North: 133.350
Ezeiza North: 124.500
Ezeiza North: 125.600
Ezeiza North: 135.500
Ezeiza South: 124.100
Ezeiza South: 125.200
LAN Ops: 131.700

SANT Tower/Apps
Tucuman, Argentina

Feed Status: DOWN
Offline since: 2019-11-14 05:20:05 UTC

SANT 141000Z 34008KT CAVOK 19/15 Q1014

Aeroclub Tucuman: 119.000
Aerolineas Argentinas SOC Salta: 131.100
Aerolineas Argentinas SOC Tucuman: 131.950
Air To Air: 123.450
Andes Lineas Aereas: 132.000
Campo Arenal: 130.950
Catamarca Tower: 118.150
Copa Airlines: 129.400
Cordoba Centro Norte: 125.100
Cordoba Centro Sur: 126.500
Emergency/Guard: 121.500
Lan Argentina Operaciones: 131.700
Lan Peru: 131.300
Salta Tower: 128.850
Santiago del Estero Tower: 118.700
Taca Peru: 126.450
Termas de Rio Hondo: 118.200
Termas de Rio Hondo: 119.850
Tucuman Ground: 121.750
Tucuman Ground: 121.750
Tucuman Tower: 118.350
Tucuman Tower: 119.500

SASA Twr/App (Archives)
Salta, Argentina

Feed Status: UP
Listen in your browser - HTML5 player(in browser, HTML5)
Click here to listen with your own player(launches your MP3 player)

SASA 141000Z 00000KT 9999 SCT025 15/14 Q1019

SASA Flight Activity (Flightaware)

Listeners: 1 out of 751 total

Cordoba Approach (North): 125.100
Salta Approach: 124.600
Salta Tower: 126.000
Salta Tower/Ground: 128.850

SAZN Tower (Archives)
Neuquen, Argentina

Feed Status: UP
Listen in your browser - HTML5 player(in browser, HTML5)
Click here to listen with your own player(launches your MP3 player)

SAZN 140900Z 27003KT CAVOK 16/05 Q1016

SAZN Flight Activity (Flightaware)

Listeners: 1 out of 751 total

Neuquen Tower/Approach: 119.800

SAZS Gnd/Twr/App (Archives)
Rio Negro, Argentina

Feed Status: UP
Listen in your browser - HTML5 player(in browser, HTML5)
Click here to listen with your own player(launches your MP3 player)

SAZS 140800Z 16004KT CAVOK 04/00 Q1018

SAZS Flight Activity (Flightaware)

Listeners: 0 out of 751 total

Bariloche Ground: 118.650
Bariloche Twr/App: 119.100
Chapelco Tower/Approach: 119.600
Comodoro Rivadavia Control: 125.500
Emergency: 121.500
Ezeiza South: 125.200
Puerto Mont Radar North: 121.300
Puerto Mont Radar South: 128.300
Puerto Mont Radio: 126.900

SBBI Gnd/Twr (Archives)
Curitiba, Brazil

Feed Status: UP
Listen in your browser - HTML5 player(in browser, HTML5)
Click here to listen with your own player(launches your MP3 player)

SBBI 140100Z 09005KT 9999 OVC008 17/16 Q1016

SBBI Flight Activity (Flightaware)

Listeners: 0 out of 751 total

Bacacheri Ground: 121.800
Bacacheri Tower: 118.900

SBBV Approach (Archives)
Boa Vista, Brazil

Feed Status: UP
Listen in your browser - HTML5 player(in browser, HTML5)
Click here to listen with your own player(launches your MP3 player)

SBBV 141000Z 06004KT CAVOK 25/22 Q1010

SBBV Flight Activity (Flightaware)

Listeners: 2 out of 751 total

Boa Vista Approach: 120.100

SBBV Tower (Archives)
Boa Vista, Brazil

Feed Status: UP
Listen in your browser - HTML5 player(in browser, HTML5)
Click here to listen with your own player(launches your MP3 player)

SBBV 141000Z 06004KT CAVOK 25/22 Q1010

SBBV Flight Activity (Flightaware)

Listeners: 2 out of 751 total

Boa Vista Tower: 118.100

SBCT Gnd/Twr/App (Archives)
Curitiba, Brazil

Feed Status: UP
Listen in your browser - HTML5 player(in browser, HTML5)
Click here to listen with your own player(launches your MP3 player)

SBCT 141000Z 01004KT CAVOK 17/16 Q1012

SBCT Flight Activity (Flightaware)

Listeners: 0 out of 751 total

Curitiba Approach: 119.950
Curitiba Ground: 121.900
Curitiba Tower: 118.150
Curitiba Tower: 118.900

SBDN Twr/App (Archives)
Presidente Prudente/Sao Paulo, Brazil

Feed Status: UP
Listen in your browser - HTML5 player(in browser, HTML5)
Click here to listen with your own player(launches your MP3 player)

SBDN 140900Z 03005KT 8000 NSC 21/20 Q1011

SBDN Flight Activity (Flightaware)

Listeners: 3 out of 751 total

Air-to-Air: 123.450
Curitiba Sector 13: 133.595
Prudente Approach: 118.450
Prudente Tower: 125.450

SBEG Tower/App (Archives)
Manaus, Brazil

Feed Status: UP
Listen in your browser - HTML5 player(in browser, HTML5)
Click here to listen with your own player(launches your MP3 player)

SBEG 141000Z 00000KT 9999 FEW005 SCT100 22/22 Q1009

SBEG Flight Activity (Flightaware)

Listeners: 1 out of 751 total

Emergency/Guard: 121.500
Manaus Approach : 119.250
Manaus Approach: 120.400
Manaus Approach: 119.700
Manaus Tower: 118.300

SBFI Twr/App/Ctr/Misc (Archives)
Foz do Iguacu, Brazil

Feed Status: UP
Listen in your browser - HTML5 player(in browser, HTML5)
Click here to listen with your own player(launches your MP3 player)

SBFI 140900Z 30003KT 3000 -RA BR BKN002 BKN017 22/21 Q1007

SBFI Flight Activity (Flightaware)

Listeners: 0 out of 751 total

Asuncion Center (Paraguay): 126.900
Asuncion Center (Paraguay): 128.400
Curitiba Center: 127.200
Curitiba Center: 125.800
Emergency/Guard: 121.500
Foz do Iguacu Approach/Departure: 120.300
Foz do Iguacu Approach/Departure: 119.150
Foz do Iguacu Tower: 118.800
Guarani Approach (Paraguay): 119.300
Puerto Iguazu - Cataratas Tower (Argentina) : 120.700
Resistencia Center (Argentina): 124.300
UNICOM: 123.450

SBFZ Twr/App/Center (Archives)
Fortaleza, Brazil

Feed Status: UP
Listen in your browser - HTML5 player(in browser, HTML5)
Click here to listen with your own player(launches your MP3 player)

SBFZ 141000Z 14011KT 9999 BKN024 27/22 Q1012

SBFZ Flight Activity (Flightaware)

Listeners: 5 out of 751 total

ACC-RE (Fortaleza Sector): 125.150
ACC-RE (Fortaleza Sector): 126.350
ACC-RE (Fortaleza Sector): 135.250
Fortaleza Approach: 133.000
Fortaleza Tower: 129.000

SBGO Gnd/Twr/App (Archives)
Goiania, Brazil

Feed Status: UP
Listen in your browser - HTML5 player(in browser, HTML5)
Click here to listen with your own player(launches your MP3 player)

SBGO 141000Z 33002KT 9999 FEW040 25/20 Q1015

SBGO Flight Activity (Flightaware)

Listeners: 2 out of 751 total

Anapolis Approach: 119.150
Anapolis Approach: 120.550
Anapolis Approach: 133.000
Anapolis Approach: 129.450
Emergency/Guard: 121.500
Goiania Ground: 121.700
Goiania Tower: 118.700
Goiania Tower: 121.050

SBJP Twr/Control/Airlines (Archives)
Joao Pessoa, Brazil

Feed Status: UP
Listen in your browser - HTML5 player(in browser, HTML5)
Click here to listen with your own player(launches your MP3 player)

SBJP 141000Z 13008KT 090V180 9999 BKN020 27/22 Q1013

SBJP Flight Activity (Flightaware)

Listeners: 0 out of 751 total

AZUL: 130.900
GOL: 131.225
Joao Pessoa Tower: 118.300
Recife Control: 119.500
TAM: 130.500

SBJU Tower/Center (Archives)
Juazeiro do Norte, Brazil

Feed Status: UP
Listen in your browser - HTML5 player(in browser, HTML5)
Click here to listen with your own player(launches your MP3 player)

SBJU 140900Z 00000KT CAVOK 26/18 Q1015

SBJU Flight Activity (Flightaware)

Listeners: 1 out of 751 total

Pilot-to-Pilot: 123.450
Radio Juazeiro: 131.750
Recife Center: 135.250
Recife Center: 125.150

SBKP Tower (Archives)
Campinas, Brazil

Feed Status: UP
Listen in your browser - HTML5 player(in browser, HTML5)
Click here to listen with your own player(launches your MP3 player)

SBKP 140925Z 00000KT 4500 -RA BR SCT010 BKN025 BKN080 20/19 Q1015 RERA

SBKP Flight Activity (Flightaware)

Listeners: 0 out of 751 total

Campinas Tower: 118.250

SBLO Gnd/Twr/App
Londrina, Brazil

Feed Status: DOWN
Offline since: 2019-11-14 00:17:22 UTC

SBLO 141000Z 03010KT 9999 OVC003 21/21 Q1012

Londrina Approach: 129.700
Londrina Ground: 119.550
Londrina Tower: 118.400

SBMG Twr/App/Misc (Archives)
Maringa, Brazil

Feed Status: UP
Listen in your browser - HTML5 player(in browser, HTML5)
Click here to listen with your own player(launches your MP3 player)

SBMG 140800Z 01015G25KT 9999 -RA BKN005 OVC100 21/20 Q1008

SBMG Flight Activity (Flightaware)

Listeners: 6 out of 751 total

Air to Air: 123.450
Londrina Approach: 129.700
Maringa Tower: 118.750

SBMK RDO/Center (Archives)
Montes Claros, Brazil

Feed Status: UP
Listen in your browser - HTML5 player(in browser, HTML5)
Click here to listen with your own player(launches your MP3 player)

SBMK Flight Activity (Flightaware)

Listeners: 1 out of 751 total

Brasilia Center (Sector 15): 127.300
Montes Claros RDO: 131.700

SBMQ Tower/App/Center (Archives)
Macapa, Brazil

Feed Status: UP
Listen in your browser - HTML5 player(in browser, HTML5)
Click here to listen with your own player(launches your MP3 player)

SBMQ 141000Z 35005KT 9999 FEW017 26/26 Q1010

SBMQ Flight Activity (Flightaware)

Listeners: 2 out of 751 total

Amazonico Center: 123.950
Amazonico Center: 128.000
Macapa Approach: 119.000
Macapa Tower: 118.000

SBNF Tower
Navegantes, Brazil

Feed Status: DOWN
Offline since: 2019-11-12 19:55:06 UTC

SBNF 140910Z 05011KT 9999 -RA BKN007 BKN016 22/21 Q1008

Navegantes Tower: 118.200

SBPA Gnd/Twr/App (Archives)
Porto Alegre, Brazil

Feed Status: UP
Listen in your browser - HTML5 player(in browser, HTML5)
Click here to listen with your own player(launches your MP3 player)

SBPA 140910Z 15002KT 4000 -RA SCT010 SCT050 OVC070 21/20 Q1007

SBPA Flight Activity (Flightaware)

Listeners: 8 out of 751 total

BACO (Canoas) Ground: 121.700
BACO (Canoas) Tower: 122.800
BACO (Canoas) Tower: 118.500
Emergency/Guard: 121.500
Porto Alegre Approach Sector 2: 119.000
Porto Alegre Approach Sector 1: 120.100
Porto Alegre Approach Sector 3: 120.550
Porto Alegre Approach Sector 4: 128.900
Porto Alegre Center: 126.750
Porto Alegre Center: 127.400
Porto Alegre Center: 135.850
Porto Alegre Center: 128.450
Salgado Filho Ground: 121.900
Salgado Filho Tower: 118.100

SBPL RDO (Archives)
Petrolina, Brazil

Feed Status: UP
Listen in your browser - HTML5 player(in browser, HTML5)
Click here to listen with your own player(launches your MP3 player)

SBPL 141000Z 15013KT 9999 BKN025 24/18 Q1015

SBPL Flight Activity (Flightaware)

Listeners: 3 out of 751 total

Petrolina RDO: 125.700

SBRF App 129.60 (Archives)
Recife, Brazil

Feed Status: UP
Listen in your browser - HTML5 player(in browser, HTML5)
Click here to listen with your own player(launches your MP3 player)

SBRF 141000Z 14010KT 9999 SCT023 28/21 Q1013

SBRF Flight Activity (Flightaware)

Listeners: 5 out of 751 total

Recife Approach: 129.600

SBRF Gol Ops (Archives)
Recife, Brazil

Feed Status: UP
Listen in your browser - HTML5 player(in browser, HTML5)
Click here to listen with your own player(launches your MP3 player)

SBRF 141000Z 14010KT 9999 SCT023 28/21 Q1013

SBRF Flight Activity (Flightaware)

Listeners: 0 out of 751 total

Gol Ops: 131.225

SBRF Ground (Archives)
Recife, Brazil

Feed Status: UP
Listen in your browser - HTML5 player(in browser, HTML5)
Click here to listen with your own player(launches your MP3 player)

SBRF 141000Z 14010KT 9999 SCT023 28/21 Q1013

SBRF Flight Activity (Flightaware)

Listeners: 1 out of 751 total

Recife Ground: 121.850

SBRF LATAM Ops (Archives)
Recife, Brazil

Feed Status: UP
Listen in your browser - HTML5 player(in browser, HTML5)
Click here to listen with your own player(launches your MP3 player)

SBRF 141000Z 14010KT 9999 SCT023 28/21 Q1013

SBRF Flight Activity (Flightaware)

Listeners: 0 out of 751 total

LATAM Ops: 130.500

SBRF Recife ACC (Archives)
Recife, Brazil

Feed Status: UP
Listen in your browser - HTML5 player(in browser, HTML5)
Click here to listen with your own player(launches your MP3 player)

SBRF 141000Z 14010KT 9999 SCT023 28/21 Q1013

SBRF Flight Activity (Flightaware)

Listeners: 1 out of 751 total

Recife Center: 128.700
Recife Center: 133.650
Recife Center: 134.800

SBRF Tower (Archives)
Recife, Brazil

Feed Status: UP
Listen in your browser - HTML5 player(in browser, HTML5)
Click here to listen with your own player(launches your MP3 player)

SBRF 141000Z 14010KT 9999 SCT023 28/21 Q1013

SBRF Flight Activity (Flightaware)

Listeners: 1 out of 751 total

Recife Tower: 125.250
Recife Tower: 118.350
Recife Tower: 118.900

SBRP Tower/Center (Archives)
Ribeirao Preto, Brazil

Feed Status: UP
Listen in your browser - HTML5 player(in browser, HTML5)
Click here to listen with your own player(launches your MP3 player)

SBRP 141000Z 09007KT 5000 -RA BR FEW004 SCT040 OVC080 21/20 Q1014 RETS

SBRP Flight Activity (Flightaware)

Listeners: 2 out of 751 total

Leite Lopes Tower: 118.000
Pirassununga Center (North): 119.550

SBSN Twr/App/ACC (Archives)
Santarem, Brazil

Feed Status: UP
Listen in your browser - HTML5 player(in browser, HTML5)
Click here to listen with your own player(launches your MP3 player)

SBSN 140900Z 19003KT 9999 SCT015 SCT100 24/24 Q1009

SBSN Flight Activity (Flightaware)

Listeners: 0 out of 751 total

Brasilia Center/ACC: 123.650
Brasilia Center/ACC: 125.050
Santarem Approach: 119.300
Santarem Tower: 118.100

SBSR AFIS/App/Center (Archives)
Sao Jose do Rio Preto, Brazil

Feed Status: UP
Listen in your browser - HTML5 player(in browser, HTML5)
Click here to listen with your own player(launches your MP3 player)

SBSR 140900Z 04003KT 9999 SCT035 BKN070 22/20 Q1013

SBSR Flight Activity (Flightaware)

Listeners: 2 out of 751 total

Academia Approach (North Sector): 119.750
Academia Approach (North Sector): 120.400
Brasilia Center: 135.150
Rio Preto Radio AFIS: 130.850

SBTE Twr/App (Archives)
Teresina, Brazil

Feed Status: UP
Listen in your browser - HTML5 player(in browser, HTML5)
Click here to listen with your own player(launches your MP3 player)

SBTE 141000Z 03005KT CAVOK 26/22 Q1011

SBTE Flight Activity (Flightaware)

Listeners: 4 out of 751 total

Teresina Approach: 119.600
Teresina Tower: 118.800

SBRE Recife ACC (Archives)
Paulo Afonso, Brazil

Feed Status: UP
Listen in your browser - HTML5 player(in browser, HTML5)
Click here to listen with your own player(launches your MP3 player)

SBRE Flight Activity (Flightaware)

Listeners: 0 out of 751 total

Recife Center (ACC): 125.400
Recife Center (ACC): 125.450
Recife Center (ACC): 126.850
Recife Center (ACC): 133.650
Recife Center (ACC): 134.500
Recife Center (ACC): 134.900

SBUF AFIS/Center (Archives)
Paulo Afonso, Brazil

Feed Status: UP
Listen in your browser - HTML5 player(in browser, HTML5)
Click here to listen with your own player(launches your MP3 player)

SBUF 131900Z 11010KT 9999 FEW023 36/06 Q1009

SBUF Flight Activity (Flightaware)

Listeners: 0 out of 751 total

Paulo Afonso Radio: 125.850
Recife Center: 133.650
Recife Center: 134.500
Recife Center: 125.450

SBQV AFIS (Archives)
Vitoria da Conquista, Brazil

Feed Status: UP
Listen in your browser - HTML5 player(in browser, HTML5)
Click here to listen with your own player(launches your MP3 player)

SBQV Flight Activity (Flightaware)

Listeners: 0 out of 751 total

Conquista AFIS: 130.850
Despacho Azul: 131.875
Despacho Passaredo: 132.000

SBVT Gnd/Twr/App (Archives)
Vitoria, Brazil

Feed Status: UP
Listen in your browser - HTML5 player(in browser, HTML5)
Click here to listen with your own player(launches your MP3 player)

SBVT 141000Z 06008KT 6000 -RA BKN010 OVC020 24/23 Q1015

SBVT Flight Activity (Flightaware)

Listeners: 0 out of 751 total

SBVT Approach: 119.850
SBVT Ground: 121.950
SBVT Tower: 118.100

SCEL Gnd/Twr/Radar (Archives)
Santiago, Chile

Feed Status: UP
Listen in your browser - HTML5 player(in browser, HTML5)
Click here to listen with your own player(launches your MP3 player)

SCEL 141000Z 16003KT 120V180 CAVOK 16/08 Q1017 NOSIG

SCEL Flight Activity (Flightaware)

Listeners: 0 out of 751 total

Santiago Authorizations: 121.700
Santiago Control (Lat 3323S North): 128.100
Santiago Control (Lat 3323S South): 126.300
Santiago Ground (Primary): 122.200
Santiago Ground (Secondary): 122.500
Santiago Radar: 135.400
Santiago Radar (Arrival, Primary): 129.700
Santiago Radar (Arrival, Secondary): 119.700
Santiago Radar (Arrival, Secondary): 123.800
Santiago Radar (Departure, Primary): 121.100
Santiago Radar (Departure, Secondary): 123.800
Santiago Radar (Information, Primary): 122.400
Santiago Radar (Information, Secondary): 120.800
Santiago Radar (Information, Secondary): 123.800
Santiago Tower (Primary): 118.100
Santiago Tower (Secondary): 118.350
SCTB Tobalaba Tower: 118.700

SEGU App/Dep/Info (Archives)
Guayaquil, Ecuador

Feed Status: UP
Listen in your browser - HTML5 player(in browser, HTML5)
Click here to listen with your own player(launches your MP3 player)

SEGU 140900Z 22010KT 9999 FEW015 BKN040 BKN100 23/20 Q1012 NOSIG RMK A2989

SEGU Flight Activity (Flightaware)

Listeners: 1 out of 751 total

Guayaquil Approach: 120.700
Guayaquil Approach (Secondary): 119.300
Guayaquil Info: 126.900

SEGU Gnd/Twr (Archives)
Guayaquil, Ecuador

Feed Status: UP
Listen in your browser - HTML5 player(in browser, HTML5)
Click here to listen with your own player(launches your MP3 player)

SEGU 140900Z 22010KT 9999 FEW015 BKN040 BKN100 23/20 Q1012 NOSIG RMK A2989

SEGU Flight Activity (Flightaware)

Listeners: 0 out of 751 total

Guayaquil Ground: 121.900
Guayaquil Ground (Secondary): 121.700
Guayaquil Tower: 118.300
Guayaquil Tower (Secondary): 118.900

SEGU Gnd/Twr/App (Archives)
Guayaquil, Ecuador

Feed Status: UP
Listen in your browser - HTML5 player(in browser, HTML5)
Click here to listen with your own player(launches your MP3 player)

SEGU 140900Z 22010KT 9999 FEW015 BKN040 BKN100 23/20 Q1012 NOSIG RMK A2989

SEGU Flight Activity (Flightaware)

Listeners: 0 out of 751 total

Guayaquil Approach: 120.700
Guayaquil Ground: 121.900
Guayaquil Tower: 118.300

SEGU Guayaquil Center (Archives)
Guayaquil, Ecuador

Feed Status: UP
Listen in your browser - HTML5 player(in browser, HTML5)
Click here to listen with your own player(launches your MP3 player)

SEGU 140900Z 22010KT 9999 FEW015 BKN040 BKN100 23/20 Q1012 NOSIG RMK A2989

SEGU Flight Activity (Flightaware)

Listeners: 0 out of 751 total

Guayaquil Center: 127.950
Guayaquil Center: 128.300
Guayaquil Center (Secondary): 128.000
Guayaquil Center (Secondary): 123.900

SEQM ATIS
Quito, Ecuador

Feed Status: DOWN
Offline since: 2019-11-01 18:13:23 UTC

SEQM 141000Z 01003KT 8000 BCFG FEW005 OVC030 12/12 Q1026 NOSIG RMK A3030

Quito ATIS: 118.700

SEQM Gnd/Twr/App
Quito, Ecuador

Feed Status: DOWN
Offline since: 2019-11-01 18:13:39 UTC

SEQM 141000Z 01003KT 8000 BCFG FEW005 OVC030 12/12 Q1026 NOSIG RMK A3030

Quito Approach/Departure: 119.700
Quito Approach/Departure: 121.200
Quito Ground: 121.900
Quito Tower: 118.100
Quito Tower (Secondary): 118.350

SEQM Tower
Quito, Ecuador

Feed Status: DOWN
Offline since: 2019-11-01 18:13:23 UTC

SEQM 141000Z 01003KT 8000 BCFG FEW005 OVC030 12/12 Q1026 NOSIG RMK A3030

Quito Tower: 118.100
Quito Tower (Secondary): 118.350

SJOY CTAF (Archives)
Palmeira, Brazil

Feed Status: UP
Listen in your browser - HTML5 player(in browser, HTML5)
Click here to listen with your own player(launches your MP3 player)

SJOY Flight Activity (Flightaware)

Listeners: 0 out of 751 total


SKBO Del/Gnd/Twr/App
Bogota, Colombia

Feed Status: DOWN
Offline since: 2019-11-05 19:08:06 UTC

SKBO 141000Z VRB02KT 9999 FEW015 SCT070 11/10 A3030 NOSIG

Bogota Approach: 119.500
Bogota Clearance Delivery: 121.600
Bogota Departure (North): 121.300
Bogota Departure (South): 119.650
Bogota Ground (North): 121.800
Bogota Ground (South): 122.750
Bogota Information: 126.900
Bogota Tower (North): 118.100
Bogota Tower (South): 118.250
Guaymaral Ground: 121.700
Guaymaral Tower: 118.800

SKBQ Approach (Archives)
Barranquilla, Colombia

Feed Status: UP
Listen in your browser - HTML5 player(in browser, HTML5)
Click here to listen with your own player(launches your MP3 player)

SKBQ 141000Z VRB02KT 5000 BR SCT010 BKN200 24/24 A2984 TEMPO FM1100 3000 BR BKN008

SKBQ Flight Activity (Flightaware)

Listeners: 0 out of 751 total

Barranquilla Approach/Departure: 119.100

HF CWP/SEA (Archives)
Pyeongtaek, Korea, Republic of

Feed Status: UP
Listen in your browser - HTML5 player(in browser, HTML5)
Click here to listen with your own player(launches your MP3 player)


Listeners: 0 out of 751 total

CWP 1 (Tokyo): 11.384
CWP 1/2 (Tokyo): 13.300
CWP-1/2 (San Francisco): 17.904
CWP-1/2 (Tokyo/Manila): 8.903
CWP-1/2 (Tokyo/San Francisco): 21.985
SEA-2 (Manila): 8.942

SPJC Approach (Archives)
Lima, Peru

Feed Status: UP
Listen in your browser - HTML5 player(in browser, HTML5)
Click here to listen with your own player(launches your MP3 player)

SPJC 141000Z 16005KT 9999 OVC015 18/16 Q1014 NOSIG RMK PP000

SPJC Flight Activity (Flightaware)

Listeners: 1 out of 751 total

Lima Approach: 119.700

SPJC Ground (Archives)
Lima, Peru

Feed Status: UP
Listen in your browser - HTML5 player(in browser, HTML5)
Click here to listen with your own player(launches your MP3 player)

SPJC 141000Z 16005KT 9999 OVC015 18/16 Q1014 NOSIG RMK PP000

SPJC Flight Activity (Flightaware)

Listeners: 0 out of 751 total

Lima Ground: 121.900

SPJC Tower (Archives)
Lima, Peru

Feed Status: UP
Listen in your browser - HTML5 player(in browser, HTML5)
Click here to listen with your own player(launches your MP3 player)

SPJC 141000Z 16005KT 9999 OVC015 18/16 Q1014 NOSIG RMK PP000

SPJC Flight Activity (Flightaware)

Listeners: 0 out of 751 total

Lima Tower: 118.100

SPST Tower (Archives)
Tarapoto, Peru

Feed Status: UP
Listen in your browser - HTML5 player(in browser, HTML5)
Click here to listen with your own player(launches your MP3 player)

SPST 140300Z 00000KT 9999 FEW025 24/23 Q1009 RMK BIRD HAZARD RWY 17/35 PP000

SPST Flight Activity (Flightaware)

Listeners: 0 out of 751 total

Tarapoto Tower: 118.400

SSBL Air to Air
Blumenau, Brazil

Feed Status: DOWN
Offline since: 2019-11-14 10:15:06 UTC

Air to Air: 123.450

SUMU Twr/App (Archives)
Montevideo, Uruguay

Feed Status: UP
Listen in your browser - HTML5 player(in browser, HTML5)
Click here to listen with your own player(launches your MP3 player)

SUMU 141000Z 14003KT 0200 R24/0450D R19/1300U FG BKN002 OVC070 19/19 Q1008 TEMPO 0800 FG

SUMU Flight Activity (Flightaware)

Listeners: 0 out of 751 total

SUMU Approach: 119.200
SUMU Tower: 118.100

SUMU Twr/App/Radar (Archives)
Montevideo, Uruguay

Feed Status: UP
Listen in your browser - HTML5 player(in browser, HTML5)
Click here to listen with your own player(launches your MP3 player)

SUMU 141000Z 14003KT 0200 R24/0450D R19/1300U FG BKN002 OVC070 19/19 Q1008 TEMPO 0800 FG

SUMU Flight Activity (Flightaware)

Listeners: 0 out of 751 total

SUMU Approach: 120.200
SUMU Approach: 119.200
SUMU Info: 121.800
SUMU Informacion: 121.800
SUMU Radar Control: 128.500
SUMU Radar Control: 126.300
SUMU Radar Control: 128.000
SUMU Tower: 118.100

SUPU/SUPC Misc (Archives)
Paysandu, Uruguay

Feed Status: UP
Listen in your browser - HTML5 player(in browser, HTML5)
Click here to listen with your own player(launches your MP3 player)

SUPU 040900Z 10005KT 9999 FEW020TCU BKN070 FEW200 23/23 Q1010

SUPU Flight Activity (Flightaware)

Listeners: 0 out of 751 total

Chalkling Tower: 118.700
Paysandu Tower: 118.200

SVPR Twr/App/FIR (Archives)
Ciudad Guayana, Venezuela

Feed Status: UP
Listen in your browser - HTML5 player(in browser, HTML5)
Click here to listen with your own player(launches your MP3 player)

SVPR Flight Activity (Flightaware)

Listeners: 0 out of 751 total

Emergency/Guard: 121.500
FIR 6: 126.000
Guayana Approach (Primary): 119.500
Guayana Approach (Secondary): 120.300
Guayana Tower (Primary): 118.000
Guayana Tower (Secondary): 123.500
SMC: 121.900

SVVA Gnd/Twr/App (Archives)
Valencia, Venezuela

Feed Status: UP
Listen in your browser - HTML5 player(in browser, HTML5)
Click here to listen with your own player(launches your MP3 player)

SVVA 132200Z /////KT 9999 FEW016 28/22 Q1009

SVVA Flight Activity (Flightaware)

Listeners: 0 out of 751 total

Libertador Approach: 119.300
Valencia Ground: 121.900
Valencia Tower: 121.200

TBPB Gnd/Twr/Radar/Center (Archives)
Bridgetown, Barbados

Feed Status: UP
Listen in your browser - HTML5 player(in browser, HTML5)
Click here to listen with your own player(launches your MP3 player)

TBPB 140900Z 08006KT 9999 SCT016 25/23 Q1011 NOSIG

TBPB Flight Activity (Flightaware)

Listeners: 0 out of 751 total

Adams Approach/Departure: 129.350
Adams Approach/Departure: 128.850
Adams Ground: 121.900
Adams Tower: 118.700
Piarco Center: 123.700

TNCA Twr/Apron/FIR (Archives)
Oranjestad, Aruba

Feed Status: UP
Listen in your browser - HTML5 player(in browser, HTML5)
Click here to listen with your own player(launches your MP3 player)

TNCA 140900Z 10008KT 9999 SCT016TCU 26/24 Q1010 RERA NOSIG

TNCA Flight Activity (Flightaware)

Listeners: 1 out of 751 total

Beatrix Ground (Apron): 121.600
Beatrix Tower: 120.900
Beatrix Tower (secondary): 118.000
Curacao Control: 127.100
Emergency/Guard: 121.500
Search/Rescue: 123.100

TNCB Tower
Kralendijk, Bonaire

Feed Status: DOWN
Offline since: 2019-11-13 17:56:06 UTC

TNCB 140855Z AUTO 10006KT 9999 FEW017/// 27/24 Q1010

Bonaire Tower: 118.700

TNCC Curacao Control (Archives)
Willemstad, Curacao

Feed Status: UP
Listen in your browser - HTML5 player(in browser, HTML5)
Click here to listen with your own player(launches your MP3 player)

TNCC 140900Z 12005KT 9999 FEW017 27/23 Q1010 NOSIG

TNCC Flight Activity (Flightaware)

Listeners: 1 out of 751 total

Curacao Control: 124.100
Curacao Control: 127.100

TNCC Tower/Radar (Archives)
Willemstad, Curacao

Feed Status: UP
Listen in your browser - HTML5 player(in browser, HTML5)
Click here to listen with your own player(launches your MP3 player)

TNCC 140900Z 12005KT 9999 FEW017 27/23 Q1010 NOSIG

TNCC Flight Activity (Flightaware)

Listeners: 1 out of 751 total

Hato Radar: 119.600
Hato Tower: 118.300

TNCC Twr/Radar/Control (Archives)
Willemstad, Curacao

Feed Status: UP
Listen in your browser - HTML5 player(in browser, HTML5)
Click here to listen with your own player(launches your MP3 player)

TNCC 140900Z 12005KT 9999 FEW017 27/23 Q1010 NOSIG

TNCC Flight Activity (Flightaware)

Listeners: 2 out of 751 total

Curacao Control: 127.100
Hato Radar: 119.600
Hato Tower: 118.300

TNCE Info (Archives)
Oranjestad, Sint Eustatius

Feed Status: UP
Listen in your browser - HTML5 player(in browser, HTML5)
Click here to listen with your own player(launches your MP3 player)

TNCE 140855Z AUTO 06013KT //// // ///////// 27/22 Q1012 RE//

TNCE Flight Activity (Flightaware)

Listeners: 1 out of 751 total

Statia Info: 118.100

TTCP Gnd/Twr/App (Archives)
Scarborough, Trinidad and Tobago

Feed Status: UP
Listen in your browser - HTML5 player(in browser, HTML5)
Click here to listen with your own player(launches your MP3 player)

TTCP 140900Z 00000KT 9999 FEW016 25/23 Q1010 NOSIG

TTCP Flight Activity (Flightaware)

Listeners: 0 out of 751 total

Piarco Approach: 119.000
Robinson Ground: 121.700
Robinson Tower: 118.400

TTPP Apron/Gnd/Twr (Archives)
Port of Spain, Trinidad and Tobago

Feed Status: UP
Listen in your browser - HTML5 player(in browser, HTML5)
Click here to listen with your own player(launches your MP3 player)

TTPP 140900Z 00000KT 9999 FEW016 24/22 Q1010 NOSIG

TTPP Flight Activity (Flightaware)

Listeners: 2 out of 751 total

Piarco Apron: 121.750
Piarco Ground: 121.900
Piarco Tower: 118.100

TTPP Piarco Approach (Archives)
Port of Spain, Trinidad and Tobago

Feed Status: UP
Listen in your browser - HTML5 player(in browser, HTML5)
Click here to listen with your own player(launches your MP3 player)

TTPP 140900Z 00000KT 9999 FEW016 24/22 Q1010 NOSIG

TTPP Flight Activity (Flightaware)

Listeners: 0 out of 751 total

Piarco Approach: 119.550
Piarco Approach: 119.000
Piarco Approach (backup): 124.000

TTPP Piarco Center (Archives)
Port of Spain, Trinidad and Tobago

Feed Status: UP
Listen in your browser - HTML5 player(in browser, HTML5)
Click here to listen with your own player(launches your MP3 player)

TTPP 140900Z 00000KT 9999 FEW016 24/22 Q1010 NOSIG

TTPP Flight Activity (Flightaware)

Listeners: 2 out of 751 total

Piarco Center: 123.700
Piarco Center (Oceanic): 126.500
Piarco Center (South Sector): 125.400
Piarco Center Oceanic (Backup): 133.100

TXKF Tower/Ground
Hamilton, Bermuda

Feed Status: DOWN
Offline since: 2019-10-27 17:31:06 UTC

TXKF 140955Z 02016KT 6000 -SHRA SCT009 BKN015 OVC043 18/16 Q1020

Bermuda CTAF: 122.800
Bermuda Ground/Clearance: 124.500
Bermuda Tower: 118.100

ZNY Bermuda Sector
Hamilton, Bermuda

Feed Status: DOWN
Offline since: 2019-10-27 17:31:06 UTC

TXKF 140955Z 02016KT 6000 -SHRA SCT009 BKN015 OVC043 18/16 Q1020

New York Approach (Bermuda Sector) : 119.100
New York Center (Bermuda Sector): 128.500

UAAA Approach (Archives)
Almaty, Kazakhstan

Feed Status: UP
Listen in your browser - HTML5 player(in browser, HTML5)
Click here to listen with your own player(launches your MP3 player)

UAAA 140930Z 02004MPS 9999 SCT100 BKN200 11/M03 Q1020 R88/CLRD65 NOSIG

UAAA Flight Activity (Flightaware)

Listeners: 0 out of 751 total

Almaty Approach: 124.800

UAAA Tower (Archives)
Almaty, Kazakhstan

Feed Status: UP
Listen in your browser - HTML5 player(in browser, HTML5)
Click here to listen with your own player(launches your MP3 player)

UAAA 140930Z 02004MPS 9999 SCT100 BKN200 11/M03 Q1020 R88/CLRD65 NOSIG

UAAA Flight Activity (Flightaware)

Listeners: 0 out of 751 total

Almaty Tower: 119.400

UAAA Tower/Approach (Archives)
Almaty, Kazakhstan

Feed Status: UP
Listen in your browser - HTML5 player(in browser, HTML5)
Click here to listen with your own player(launches your MP3 player)

UAAA 140930Z 02004MPS 9999 SCT100 BKN200 11/M03 Q1020 R88/CLRD65 NOSIG

UAAA Flight Activity (Flightaware)

Listeners: 2 out of 751 total

Almaty Approach: 124.800
Almaty Tower: 119.400

UKKK Gnd/Twr/ACC
Kyiv, Ukraine

Feed Status: DOWN
Offline since: 2019-11-14 10:13:39 UTC

UKKK 140930Z 12005MPS 080V160 6000 BKN011 08/06 Q1021 R08/CLRD70 NOSIG

Emergency/Guard: 121.500
Kyiv Radar ACC: 122.775
Kyiv Radar ACC: 124.675
Kyiv Radar ACC: 127.725
Kyiv Radar ACC: 128.175
Kyiv Radar ACC: 125.300
Kyiv Zhuliany Ground: 119.000
Kyiv Zhuliany Tower: 120.700

UMGG Control (Archives)
Gomel, Belarus

Feed Status: UP
Listen in your browser - HTML5 player(in browser, HTML5)
Click here to listen with your own player(launches your MP3 player)

UMGG 140930Z 13009G13MPS 6000 BKN011 07/05 Q1022 R10/CLRD// NOSIG

UMGG Flight Activity (Flightaware)

Listeners: 1 out of 751 total

Minsk Control: 119.125
Minsk Control: 120.125
Minsk Control: 120.575

UNNT Gnd/Twr/App/Radar/Misc (Archives)
Novosibirsk, Russia

Feed Status: UP
Listen in your browser - HTML5 player(in browser, HTML5)
Click here to listen with your own player(launches your MP3 player)

UNNT 140930Z 34004MPS CAVOK M13/M16 Q1029 R25/690150 R16/950240 NOSIG RMK QFE762/1016

UNNT Flight Activity (Flightaware)

Listeners: 15 out of 751 total

ACC_Novosibirsk-Control [5th military channel]: 128.500
ACC_Novosibirsk-Control [Southeast]: 126.100
ACC_Novosibirsk-Control [West]: 127.000
GPA_Kristallik [Severniy airfield]: 123.425
GPA_Sernisiy [Chkalovskiy airfield]: 124.750
GPA_Tomsk Information 1: 134.500
MIL_3 [3rd military channel]: 130.750
MIL_Larek [Shilovo facility]: 123.750
MIL_Maneken [Chkalovskiy airfield]: 123.550
MIL_Novosibirsk-1 [1st military channel]: 124.000
MIL_Noyabr' 31: 124.900
MIL_Trimaran: 124.500
SP_Air-to-Air: 123.450
SP_Air-to-Air 2: 123.400
SP_Common backup frequency: 129.000
SP_Emergency: 121.500
SP_Emergency 2: 123.100
SP_Flyoff: 124.375
SURF_Boarding: 163.425
SURF_Duty chart: 163.800
SURF_O&D Service: 163.325
SURF_Search & Rescue: 164.000
SURF_Security: 163.750
SURF_Tower surf: 163.650
SURF_Vehicles: 163.850
UNNT_Backup frequency: 127.100
UNNT_Novosibirsk-Approach: 127.500
UNNT_Novosibirsk-Ground: 121.700
UNNT_Novosibirsk-Radar: 122.000
UNNT_Novosibirsk-Tower: 118.500
UNNT_Novosibirsk-Transit: 131.600
UNNT_S7 FOCC: 131.925

UNOO Gnd/Tower/App (Archives)
Omsk, Russia

Feed Status: UP
Listen in your browser - HTML5 player(in browser, HTML5)
Click here to listen with your own player(launches your MP3 player)

UNOO 140930Z 05007MPS CAVOK M10/M16 Q1033 R07/810545 NOSIG RMK QFE766

UNOO Flight Activity (Flightaware)

Listeners: 2 out of 751 total

Aerodrom Kalachevo: 123.300
Aerodrom Marianovka: 123.000
Emergency/Guard: 121.500
Novosibirsk Control (Sector 7): 132.500
Novosibirsk Control (Sector 8): 132.900
Omsk Approach (FL060-FL265): 131.200
Omsk Apron: 118.800
Omsk Start/Radar: 119.000
Omsk Taxiing: 121.700
Omsk Transit: 131.700
UNOS/OMSK-Severny: 124.000

UNTT Gnd/Info/Radar/Control (Archives)
Tomsk, Russia

Feed Status: UP
Listen in your browser - HTML5 player(in browser, HTML5)
Click here to listen with your own player(launches your MP3 player)

UNTT Flight Activity (Flightaware)

Listeners: 0 out of 751 total

Common Backup Frequency: 129.000
Emergency/Guard: 121.500
Novosibirsk Control (Sector 2): 126.100
Novosibirsk Control (Sector 3): 129.300
Novosibirsk Control (Sector 5): 132.300
Tomsk Ground: 118.800
Tomsk Information 1: 134.500
Tomsk Krug (Radar): 127.300
Tomsk Transit: 131.875
Troynik (Golovino): 122.400

URKK Gnd/Twr/App (Archives)
Krasnodar, Russia

Feed Status: UP
Listen in your browser - HTML5 player(in browser, HTML5)
Click here to listen with your own player(launches your MP3 player)

URKK 140930Z 09006MPS 070V130 CAVOK 14/05 Q1020 R05R/CLRD70 NOSIG RMK QFE762

URKK Flight Activity (Flightaware)

Listeners: 3 out of 751 total

Krasnodar Approach: 129.600
Krasnodar Ground: 119.000
Krasnodar Radar: 121.300
Krasnodar Tower: 118.200

URMT Twr/App/Control (Archives)
Stavropol, Russia

Feed Status: UP
Listen in your browser - HTML5 player(in browser, HTML5)
Click here to listen with your own player(launches your MP3 player)

URMT 140930Z 12010MPS 9999 BKN005 05/03 Q1025 R07/010070 NOSIG RMK QFE728

URMT Flight Activity (Flightaware)

Listeners: 0 out of 751 total

Stavropol Approach: 120.300
Stavropol Control: 118.250
Stavropol Tower: 120.900

URSS Gnd/Twr/App (Archives)
Sochi, Russia

Feed Status: UP
Listen in your browser - HTML5 player(in browser, HTML5)
Click here to listen with your own player(launches your MP3 player)

URSS 140930Z 27003MPS 9999 NSC 20/M00 Q1016 R02/010070 R06/010070 NOSIG RMK R06/27003MPS QFE761

URSS Flight Activity (Flightaware)

Listeners: 1 out of 751 total

Sochi Approach: 118.300
Sochi Approach: 119.700
Sochi District (Small Aircraft): 118.500
Sochi Start: 121.200
Sochi Taxi: 119.000
Sochi Tower: 124.600

USDD Gnd/Twr/App/Control (Archives)
Salekhard, Russia

Feed Status: UP
Listen in your browser - HTML5 player(in browser, HTML5)
Click here to listen with your own player(launches your MP3 player)

USDD 150530Z 05007MPS 9999 -SHRA BKN009CB 09/07 Q1002 R04/290060 NOSIG RMK QFE746/0994

USDD Flight Activity (Flightaware)

Listeners: 1 out of 751 total

Salekhard Control: 132.300
Salekhard Ground: 118.800
Salekhard Info: 125.200
Salekhard Krug: 120.800
Salekhard Tower: 118.600
Salekhard Transit: 131.700

USTR Gnd/Twr/App (Archives)
Tyumen, Russia

Feed Status: UP
Listen in your browser - HTML5 player(in browser, HTML5)
Click here to listen with your own player(launches your MP3 player)

USTR 140930Z 02003MPS CAVOK M14/M17 Q1039 R03/450157 R12/////99 NOSIG RMK QFE769/1026

USTR Flight Activity (Flightaware)

Listeners: 1 out of 751 total

Tyumen Approach: 126.100
Tyumen Control: 132.600
Tyumen Control: 133.600
Tyumen Info (Regional): 133.400
Tyumen Start: 118.200
Tyumen Transit: 131.800

USUU Twr/App/Control
Kurgan, Russia

Feed Status: DOWN
Offline since: 2019-09-20 03:54:23 UTC

Aerodromnaya 50: 164.100
Baggage Handling: 164.025
Kurgan Approach: 120.300
Kurgan Tower: 134.300
Kurgan/USUU Transit: 131.700
Kurtamysh: 122.450
Ural Control Sector 4: 119.700
USUL Tower: 129.600

UUDD Twr/App
Moscow, Russia

Feed Status: DOWN
Offline since: 2019-11-08 09:36:23 UTC

UUDD 140930Z 19005MPS 150V210 CAVOK 06/02 Q1028 WS R14R R88/CLRD60 NOSIG

Domodedovo Tower: 118.600
Moscow Approach: 125.300
Moscow Approach: 127.700

UUEE Twr/App/Radar (Archives)
Moscow, Russia

Feed Status: UP
Listen in your browser - HTML5 player(in browser, HTML5)
Click here to listen with your own player(launches your MP3 player)

UUEE 140930Z 18005G10MPS CAVOK 06/01 Q1027 R24L/190057 R24R/CLRD62 NOSIG

UUEE Flight Activity (Flightaware)

Listeners: 1 out of 751 total

Sheremetyevo Radar: 118.100
Sheremetyevo Radar/Departure: 126.600
Sheremetyevo Tower: 131.500
Sheremetyevo Tower (Rwy 24R/06L): 118.700

VCBI Director
Colombo, Sri Lanka

Feed Status: DOWN
Offline since: 2019-10-09 16:59:40 UTC

VCBI 140910Z 25007KT 220V300 9999 SCT018 30/24 Q1008 NOSIG

Colombo Director: 132.400

VHHH Approach 119.1 #1 (Archives)
Hong Kong, Hong Kong

Feed Status: UP
Listen in your browser - HTML5 player(in browser, HTML5)
Click here to listen with your own player(launches your MP3 player)

VHHH 140930Z 29005KT 9000 FEW045 24/14 Q1017 BECMG 12010KT

VHHH Flight Activity (Flightaware)

Listeners: 0 out of 751 total

Hong Kong Approach: 119.100

VHHH ATIS (Archives)
Hong Kong, Hong Kong

Feed Status: UP
Listen in your browser - HTML5 player(in browser, HTML5)
Click here to listen with your own player(launches your MP3 player)

VHHH 140930Z 29005KT 9000 FEW045 24/14 Q1017 BECMG 12010KT

VHHH Flight Activity (Flightaware)

Listeners: 0 out of 751 total

Hong Kong Arrival ATIS: 128.200

VHHH Clearance Delivery (Archives)
Hong Kong, Hong Kong

Feed Status: UP
Listen in your browser - HTML5 player(in browser, HTML5)
Click here to listen with your own player(launches your MP3 player)

VHHH 140930Z 29005KT 9000 FEW045 24/14 Q1017 BECMG 12010KT

VHHH Flight Activity (Flightaware)

Listeners: 2 out of 751 total

Hong Kong Clearance Delivery: 129.900

VHHH Departure (Primary) (Archives)
Hong Kong, Hong Kong

Feed Status: UP
Listen in your browser - HTML5 player(in browser, HTML5)
Click here to listen with your own player(launches your MP3 player)

VHHH 140930Z 29005KT 9000 FEW045 24/14 Q1017 BECMG 12010KT

VHHH Flight Activity (Flightaware)

Listeners: 2 out of 751 total

Hong Kong Departure: 123.800

VHHH Director #1 (Archives)
Hong Kong, Hong Kong

Feed Status: UP
Listen in your browser - HTML5 player(in browser, HTML5)
Click here to listen with your own player(launches your MP3 player)

VHHH 140930Z 29005KT 9000 FEW045 24/14 Q1017 BECMG 12010KT

VHHH Flight Activity (Flightaware)

Listeners: 0 out of 751 total

Hong Kong Director: 119.500

VHHH Ground (Archives)
Hong Kong, Hong Kong

Feed Status: UP
Listen in your browser - HTML5 player(in browser, HTML5)
Click here to listen with your own player(launches your MP3 player)

VHHH 140930Z 29005KT 9000 FEW045 24/14 Q1017 BECMG 12010KT

VHHH Flight Activity (Flightaware)

Listeners: 0 out of 751 total

Hong Kong Ground (North): 121.600
Hong Kong Ground (South): 122.550

VHHH Ground (North) (Archives)
Hong Kong, Hong Kong

Feed Status: UP
Listen in your browser - HTML5 player(in browser, HTML5)
Click here to listen with your own player(launches your MP3 player)

VHHH 140930Z 29005KT 9000 FEW045 24/14 Q1017 BECMG 12010KT

VHHH Flight Activity (Flightaware)

Listeners: 0 out of 751 total

Hong Kong Ground (North): 121.600

VHHH Ground (South) (Archives)
Hong Kong, Hong Kong

Feed Status: UP
Listen in your browser - HTML5 player(in browser, HTML5)
Click here to listen with your own player(launches your MP3 player)

VHHH 140930Z 29005KT 9000 FEW045 24/14 Q1017 BECMG 12010KT

VHHH Flight Activity (Flightaware)

Listeners: 0 out of 751 total

Hong Kong Ground (South): 122.550

VHHH Hong Kong Radar
Hong Kong, Hong Kong

Feed Status: DOWN
Offline since: 2019-11-02 07:30:22 UTC

VHHH 140930Z 29005KT 9000 FEW045 24/14 Q1017 BECMG 12010KT

Hong Kong Radar: 121.300
Hong Kong Radar: 118.925
Hong Kong Radar: 123.950

VTBS Approach (East) (Archives)
Bangkok, Thailand

Feed Status: UP
Listen in your browser - HTML5 player(in browser, HTML5)
Click here to listen with your own player(launches your MP3 player)

VTBS 140930Z 05009KT 8000 FEW020 BKN080 31/22 Q1009 NOSIG

VTBS Flight Activity (Flightaware)

Listeners: 1 out of 751 total

Bangkok Approach (East): 122.350

VTBS Approach (North) (Archives)
Bangkok, Thailand

Feed Status: UP
Listen in your browser - HTML5 player(in browser, HTML5)
Click here to listen with your own player(launches your MP3 player)

VTBS 140930Z 05009KT 8000 FEW020 BKN080 31/22 Q1009 NOSIG

VTBS Flight Activity (Flightaware)

Listeners: 0 out of 751 total

Bangkok Approach (North): 121.700

VTBS Approach 119.1 (Archives)
Bangkok, Thailand

Feed Status: UP
Listen in your browser - HTML5 player(in browser, HTML5)
Click here to listen with your own player(launches your MP3 player)

VTBS 140930Z 05009KT 8000 FEW020 BKN080 31/22 Q1009 NOSIG

VTBS Flight Activity (Flightaware)

Listeners: 0 out of 751 total

Bangkok Approach: 119.100

VTBS Approach 119.4 (Archives)
Bangkok, Thailand

Feed Status: UP
Listen in your browser - HTML5 player(in browser, HTML5)
Click here to listen with your own player(launches your MP3 player)

VTBS 140930Z 05009KT 8000 FEW020 BKN080 31/22 Q1009 NOSIG

VTBS Flight Activity (Flightaware)

Listeners: 0 out of 751 total

Bangkok Approach: 119.400

VTBS Approach 120.3 (Archives)
Bangkok, Thailand

Feed Status: UP
Listen in your browser - HTML5 player(in browser, HTML5)
Click here to listen with your own player(launches your MP3 player)

VTBS 140930Z 05009KT 8000 FEW020 BKN080 31/22 Q1009 NOSIG

VTBS Flight Activity (Flightaware)

Listeners: 0 out of 751 total

Bangkok Approach: 120.300

VTBS Approach/Arrival (Archives)
Bangkok, Thailand

Feed Status: UP
Listen in your browser - HTML5 player(in browser, HTML5)
Click here to listen with your own player(launches your MP3 player)

VTBS 140930Z 05009KT 8000 FEW020 BKN080 31/22 Q1009 NOSIG

VTBS Flight Activity (Flightaware)

Listeners: 0 out of 751 total

Bangkok Approach: 124.350
Bangkok Approach: 125.200
Bangkok Approach: 124.700
Bangkok Approach: 126.300
Bangkok Approach: 133.400
Bangkok Arrival (VTBD): 125.500

VTBS Arrival 121.1 (Archives)
Bangkok, Thailand

Feed Status: UP
Listen in your browser - HTML5 player(in browser, HTML5)
Click here to listen with your own player(launches your MP3 player)

VTBS 140930Z 05009KT 8000 FEW020 BKN080 31/22 Q1009 NOSIG

VTBS Flight Activity (Flightaware)

Listeners: 1 out of 751 total

Bangkok Arrival: 121.100

VTBS ATIS (Archives)
Bangkok, Thailand

Feed Status: UP
Listen in your browser - HTML5 player(in browser, HTML5)
Click here to listen with your own player(launches your MP3 player)

VTBS 140930Z 05009KT 8000 FEW020 BKN080 31/22 Q1009 NOSIG

VTBS Flight Activity (Flightaware)

Listeners: 0 out of 751 total

Bangkok D-ATIS: 133.600

VTBS Control (FIR) (Archives)
Bangkok, Thailand

Feed Status: UP
Listen in your browser - HTML5 player(in browser, HTML5)
Click here to listen with your own player(launches your MP3 player)

VTBS 140930Z 05009KT 8000 FEW020 BKN080 31/22 Q1009 NOSIG

VTBS Flight Activity (Flightaware)

Listeners: 0 out of 751 total

Bangkok FIR (Sector 3): 135.500

VTBS Departure (Archives)
Bangkok, Thailand

Feed Status: UP
Listen in your browser - HTML5 player(in browser, HTML5)
Click here to listen with your own player(launches your MP3 player)

VTBS 140930Z 05009KT 8000 FEW020 BKN080 31/22 Q1009 NOSIG

VTBS Flight Activity (Flightaware)

Listeners: 0 out of 751 total

Bangkok Departure: 119.250

VTBS Ground (East) (Archives)
Bangkok, Thailand

Feed Status: UP
Listen in your browser - HTML5 player(in browser, HTML5)
Click here to listen with your own player(launches your MP3 player)

VTBS 140930Z 05009KT 8000 FEW020 BKN080 31/22 Q1009 NOSIG

VTBS Flight Activity (Flightaware)

Listeners: 0 out of 751 total

Bangkok Ground (East): 121.650

VTBS Ground (Main) (Archives)
Bangkok, Thailand

Feed Status: UP
Listen in your browser - HTML5 player(in browser, HTML5)
Click here to listen with your own player(launches your MP3 player)

VTBS 140930Z 05009KT 8000 FEW020 BKN080 31/22 Q1009 NOSIG

VTBS Flight Activity (Flightaware)

Listeners: 0 out of 751 total

Bangkok Ground (Main): 121.750

VTBS Ground (West) (Archives)
Bangkok, Thailand

Feed Status: UP
Listen in your browser - HTML5 player(in browser, HTML5)
Click here to listen with your own player(launches your MP3 player)

VTBS 140930Z 05009KT 8000 FEW020 BKN080 31/22 Q1009 NOSIG

VTBS Flight Activity (Flightaware)

Listeners: 0 out of 751 total

Bangkok Ground (West): 121.950

VTBS Tower (Archives)
Bangkok, Thailand

Feed Status: UP
Listen in your browser - HTML5 player(in browser, HTML5)
Click here to listen with your own player(launches your MP3 player)

VTBS 140930Z 05009KT 8000 FEW020 BKN080 31/22 Q1009 NOSIG

VTBS Flight Activity (Flightaware)

Listeners: 0 out of 751 total

Bangkok Tower (Rwy 01L/19R): 119.000
Bangkok Tower (Rwy 01R/19L): 118.200

VTBS Tower (Rwy 01L/19R) (Archives)
Bangkok, Thailand

Feed Status: UP
Listen in your browser - HTML5 player(in browser, HTML5)
Click here to listen with your own player(launches your MP3 player)

VTBS 140930Z 05009KT 8000 FEW020 BKN080 31/22 Q1009 NOSIG

VTBS Flight Activity (Flightaware)

Listeners: 0 out of 751 total

Bangkok Tower (Rwy 01L/19R): 119.000

VTBS Tower (Rwy 01R/19L) (Archives)
Bangkok, Thailand

Feed Status: UP
Listen in your browser - HTML5 player(in browser, HTML5)
Click here to listen with your own player(launches your MP3 player)

VTBS 140930Z 05009KT 8000 FEW020 BKN080 31/22 Q1009 NOSIG

VTBS Flight Activity (Flightaware)

Listeners: 0 out of 751 total

Bangkok Tower (Rwy 01R/19L): 118.200

VTSS Approach (Archives)
Songkhla, Thailand

Feed Status: UP
Listen in your browser - HTML5 player(in browser, HTML5)
Click here to listen with your own player(launches your MP3 player)

VTSS 140930Z 09008KT 9999 FEW020 SCT100 30/25 Q1008 NOSIG

VTSS Flight Activity (Flightaware)

Listeners: 0 out of 751 total

Hat Yai Approach: 126.700

WAHH Approach
Yogyakarta, Indonesia

Feed Status: DOWN
Offline since: 2019-01-09 17:03:03 UTC

Adisutjipto Approach: 123.400

WBKK Gnd/Twr/App (Archives)
Kota Kinabalu, Malaysia

Feed Status: UP
Listen in your browser - HTML5 player(in browser, HTML5)
Click here to listen with your own player(launches your MP3 player)

WBKK 140930Z 30004KT 230V360 9999 FEW014 SCT140 BKN290 30/25 Q1007 NOSIG


Listeners: 0 out of 751 total

Kinabalu Director: 119.100
Kinabalu Ground: 121.600
Kinabalu Radar: 126.100
Kinabalu Radar: 132.450
Kinabalu Tower: 118.300

WBKK Gnd/Twr/Radar/Control (Archives)
Kota Kinabalu, Malaysia

Feed Status: UP
Listen in your browser - HTML5 player(in browser, HTML5)
Click here to listen with your own player(launches your MP3 player)

WBKK 140930Z 30004KT 230V360 9999 FEW014 SCT140 BKN290 30/25 Q1007 NOSIG


Listeners: 0 out of 751 total

Kinabalu Director: 119.100
Kinabalu Ground: 121.600
Kinabalu Radar: 126.100
Kinabalu Radar: 132.450
Kinabalu Radar: 128.300
Kinabalu Tower: 118.300

WBKS Approach (Archives)
Sandakan, Malaysia

Feed Status: UP
Listen in your browser - HTML5 player(in browser, HTML5)
Click here to listen with your own player(launches your MP3 player)

WBKS 140900Z 02007KT 340V050 9999 FEW017 BKN300 30/24 Q1006


Listeners: 0 out of 751 total

Sandakan Approach/Departure: 123.200

WBKS ATIS (Archives)
Sandakan, Malaysia

Feed Status: UP
Listen in your browser - HTML5 player(in browser, HTML5)
Click here to listen with your own player(launches your MP3 player)

WBKS 140900Z 02007KT 340V050 9999 FEW017 BKN300 30/24 Q1006


Listeners: 0 out of 751 total

Sandakan ATIS: 128.200

WBKS Emergency/Guard (Archives)
Sandakan, Malaysia

Feed Status: UP
Listen in your browser - HTML5 player(in browser, HTML5)
Click here to listen with your own player(launches your MP3 player)

WBKS 140900Z 02007KT 340V050 9999 FEW017 BKN300 30/24 Q1006


Listeners: 0 out of 751 total

Emergency/Guard: 121.500

WBKS Gnd/Twr/App/Guard (Archives)
Sandakan, Malaysia

Feed Status: UP
Listen in your browser - HTML5 player(in browser, HTML5)
Click here to listen with your own player(launches your MP3 player)

WBKS 140900Z 02007KT 340V050 9999 FEW017 BKN300 30/24 Q1006


Listeners: 0 out of 751 total

Emergency/Guard: 121.500
Sandakan Approach/Departure: 123.200
Sandakan Ground: 121.900
Sandakan Tower: 122.050

WBKS Ground (Archives)
Sandakan, Malaysia

Feed Status: UP
Listen in your browser - HTML5 player(in browser, HTML5)
Click here to listen with your own player(launches your MP3 player)

WBKS 140900Z 02007KT 340V050 9999 FEW017 BKN300 30/24 Q1006


Listeners: 0 out of 751 total

Sandakan Ground: 121.900

WBKS Tower (Archives)
Sandakan, Malaysia

Feed Status: UP
Listen in your browser - HTML5 player(in browser, HTML5)
Click here to listen with your own player(launches your MP3 player)

WBKS 140900Z 02007KT 340V050 9999 FEW017 BKN300 30/24 Q1006


Listeners: 0 out of 751 total

Sandakan Tower: 122.050

WMKB Radar (Archives)
Penang, Malaysia

Feed Status: UP
Listen in your browser - HTML5 player(in browser, HTML5)
Click here to listen with your own player(launches your MP3 player)

WMKB 140900Z 29007KT 250V320 7000 VCSH FEW017CB SCT140 BKN270 30/25 Q1006 NOSIG


Listeners: 1 out of 751 total

Butterworth Radar: 125.800

WMSA Del/Gnd/Twr/App (Archives)
Subang, Malaysia

Feed Status: UP
Listen in your browser - HTML5 player(in browser, HTML5)
Click here to listen with your own player(launches your MP3 player)

WMSA 140900Z 10006KT 010V170 3000 +TSRA FEW016CB SCT026 29/26 Q1008


Listeners: 0 out of 751 total

Lumpur Approach: 119.450
Lumpur Director: 124.200
Subang Clearance Delivery: 126.000
Subang Ground: 121.900
Subang Tower: 118.200

YADG CTAF (Archives)
Sellicks Hill, South Australia, Australia

Feed Status: UP
Listen in your browser - HTML5 player(in browser, HTML5)
Click here to listen with your own player(launches your MP3 player)

YADG Flight Activity (Flightaware)

Listeners: 0 out of 751 total

Aldinga CTAF: 127.150

YBAF Gnd/Twr #2 (Archives)
Brisbane, Queensland, Australia

Feed Status: UP
Listen in your browser - HTML5 player(in browser, HTML5)
Click here to listen with your own player(launches your MP3 player)

YBAF Flight Activity (Flightaware)

Listeners: 0 out of 751 total

Brisbane Ground: 119.900
Brisbane Tower (North): 123.600
Brisbane Tower/CTAF (South): 118.100

YBAS Tower/Center (Archives)
Alice Springs, Northern Territory, Australia

Feed Status: UP
Listen in your browser - HTML5 player(in browser, HTML5)
Click here to listen with your own player(launches your MP3 player)

YBAS 140930Z AUTO 13008KT 9999 // NCD 29/M10 Q1016 RF00.0/000.0

YBAS Flight Activity (Flightaware)

Listeners: 0 out of 751 total

Alice Tower/CTAF: 118.300
Melbourne Center (above FL280): 128.850
Melbourne Center (below FL280): 119.800

YBBN Gnd/Twr/App/Dep (Archives)
Brisbane, Queensland, Australia

Feed Status: UP
Listen in your browser - HTML5 player(in browser, HTML5)
Click here to listen with your own player(launches your MP3 player)

YBBN 140930Z 06007KT 9999 FEW026 22/19 Q1013 NOSIG

YBBN Flight Activity (Flightaware)

Listeners: 4 out of 751 total

Approach: 123.500
Brisbane Approach: 124.700
Brisbane Approach/Departure: 125.600
Brisbane Departure: 128.300
Brisbane Ground: 121.700
Brisbane Tower: 120.500

YBCG Approach (Archives)
Gold Coast City, Queensland, Australia

Feed Status: UP
Listen in your browser - HTML5 player(in browser, HTML5)
Click here to listen with your own player(launches your MP3 player)

YBCG 140930Z AUTO 02007KT //// // SCT023 SCT029 22/17 Q1014

YBCG Flight Activity (Flightaware)

Listeners: 0 out of 751 total

Brisbane Approach: 123.500

YBCG Area CTAF (Archives)
Gold Coast City, Queensland, Australia

Feed Status: UP
Listen in your browser - HTML5 player(in browser, HTML5)
Click here to listen with your own player(launches your MP3 player)

YBCG 140930Z AUTO 02007KT //// // SCT023 SCT029 22/17 Q1014

YBCG Flight Activity (Flightaware)

Listeners: 0 out of 751 total

Gold Coast Area CTAF: 126.700

YBCG Brisbane Centre (Archives)
Gold Coast City, Queensland, Australia

Feed Status: UP
Listen in your browser - HTML5 player(in browser, HTML5)
Click here to listen with your own player(launches your MP3 player)

YBCG 140930Z AUTO 02007KT //// // SCT023 SCT029 22/17 Q1014

YBCG Flight Activity (Flightaware)

Listeners: 0 out of 751 total

Brisbane Centre/Radar: 119.500

YBCG Ground (Archives)
Gold Coast City, Queensland, Australia

Feed Status: UP
Listen in your browser - HTML5 player(in browser, HTML5)
Click here to listen with your own player(launches your MP3 player)

YBCG 140930Z AUTO 02007KT //// // SCT023 SCT029 22/17 Q1014

YBCG Flight Activity (Flightaware)

Listeners: 0 out of 751 total

Gold Coast Ground: 121.800

YBCG Ground/Tower (Archives)
Gold Coast City, Queensland, Australia

Feed Status: UP
Listen in your browser - HTML5 player(in browser, HTML5)
Click here to listen with your own player(launches your MP3 player)

YBCG 140930Z AUTO 02007KT //// // SCT023 SCT029 22/17 Q1014

YBCG Flight Activity (Flightaware)

Listeners: 0 out of 751 total

Gold Coast Ground: 121.800
Gold Coast Tower: 118.700

YBCG Tower (Archives)
Gold Coast City, Queensland, Australia

Feed Status: UP
Listen in your browser - HTML5 player(in browser, HTML5)
Click here to listen with your own player(launches your MP3 player)

YBCG 140930Z AUTO 02007KT //// // SCT023 SCT029 22/17 Q1014

YBCG Flight Activity (Flightaware)

Listeners: 0 out of 751 total

Gold Coast Tower: 118.700

YBCS App/Dep #1 (Archives)
Cairns, Queensland, Australia

Feed Status: UP
Listen in your browser - HTML5 player(in browser, HTML5)
Click here to listen with your own player(launches your MP3 player)

YBCS 140930Z AUTO 04003KT 9999 // SCT027 OVC035 26/20 Q1011

YBCS Flight Activity (Flightaware)

Listeners: 0 out of 751 total

Cairns Approach/Departure: 118.400

YBCS App/Dep #2 (Archives)
Cairns, Queensland, Australia

Feed Status: UP
Listen in your browser - HTML5 player(in browser, HTML5)
Click here to listen with your own player(launches your MP3 player)

YBCS 140930Z AUTO 04003KT 9999 // SCT027 OVC035 26/20 Q1011

YBCS Flight Activity (Flightaware)

Listeners: 0 out of 751 total

Cairns Approach/Departure: 126.100

YBCS App/Dep (all) (Archives)
Cairns, Queensland, Australia

Feed Status: UP
Listen in your browser - HTML5 player(in browser, HTML5)
Click here to listen with your own player(launches your MP3 player)

YBCS 140930Z AUTO 04003KT 9999 // SCT027 OVC035 26/20 Q1011

YBCS Flight Activity (Flightaware)

Listeners: 0 out of 751 total

Cairns Approach/Departure: 126.100
Cairns Approach/Departure: 118.400

YBCS Brisbane Centre (Archives)
Cairns, Queensland, Australia

Feed Status: UP
Listen in your browser - HTML5 player(in browser, HTML5)
Click here to listen with your own player(launches your MP3 player)

YBCS 140930Z AUTO 04003KT 9999 // SCT027 OVC035 26/20 Q1011

YBCS Flight Activity (Flightaware)

Listeners: 0 out of 751 total

Brisbane Centre: 121.200

YBCS Emergency/Guard (Archives)
Cairns, Queensland, Australia

Feed Status: UP
Listen in your browser - HTML5 player(in browser, HTML5)
Click here to listen with your own player(launches your MP3 player)

YBCS 140930Z AUTO 04003KT 9999 // SCT027 OVC035 26/20 Q1011

YBCS Flight Activity (Flightaware)

Listeners: 0 out of 751 total

Emergency/Guard: 121.500

YBCS Ground (Archives)
Cairns, Queensland, Australia

Feed Status: UP
Listen in your browser - HTML5 player(in browser, HTML5)
Click here to listen with your own player(launches your MP3 player)

YBCS 140930Z AUTO 04003KT 9999 // SCT027 OVC035 26/20 Q1011

YBCS Flight Activity (Flightaware)

Listeners: 0 out of 751 total

Cairns Ground: 121.700

YBCS Ground/Tower (Archives)
Cairns, Queensland, Australia

Feed Status: UP
Listen in your browser - HTML5 player(in browser, HTML5)
Click here to listen with your own player(launches your MP3 player)

YBCS 140930Z AUTO 04003KT 9999 // SCT027 OVC035 26/20 Q1011

YBCS Flight Activity (Flightaware)

Listeners: 0 out of 751 total

Cairns Ground: 121.700
Cairns Tower: 124.900

YBCS Tower (Archives)
Cairns, Queensland, Australia

Feed Status: UP
Listen in your browser - HTML5 player(in browser, HTML5)
Click here to listen with your own player(launches your MP3 player)

YBCS 140930Z AUTO 04003KT 9999 // SCT027 OVC035 26/20 Q1011

YBCS Flight Activity (Flightaware)

Listeners: 0 out of 751 total

Cairns Tower: 124.900

YBCV CTAF/Brisbane Center (Archives)
Charleville, Queensland, Australia

Feed Status: UP
Listen in your browser - HTML5 player(in browser, HTML5)
Click here to listen with your own player(launches your MP3 player)

YBCV 140900Z AUTO 19006KT 9999 // NCD 27/M09 Q1013

YBCV Flight Activity (Flightaware)

Listeners: 0 out of 751 total

Brisbane Center: 124.800
Charleville CTAF/UNICOM: 126.700

YBOK Del/Gnd/Twr/App (Archives)
Oakey, Queensland, Australia

Feed Status: UP
Listen in your browser - HTML5 player(in browser, HTML5)
Click here to listen with your own player(launches your MP3 player)

YBOK Flight Activity (Flightaware)

Listeners: 0 out of 751 total

Brisbane Center/FSS: 121.200
Oakey Approach: 125.400
Oakey Approach: 123.700
Oakey Approach (Final): 135.850
Oakey Clearance Delivery: 133.350
Oakey CTAF (+YTWB/YBWW): 127.650
Oakey Ground: 121.900
Oakey Tower: 120.100

YBTL Approach/Departure (Archives)
Townsville, Queensland, Australia

Feed Status: UP
Listen in your browser - HTML5 player(in browser, HTML5)
Click here to listen with your own player(launches your MP3 player)

YBTL 140930Z 05011KT 9999 FEW040 26/20 Q1011 NOSIG

YBTL Flight Activity (Flightaware)

Listeners: 0 out of 751 total

Townsville Approach/Departure: 126.800

YBTL ATIS (Archives)
Townsville, Queensland, Australia

Feed Status: UP
Listen in your browser - HTML5 player(in browser, HTML5)
Click here to listen with your own player(launches your MP3 player)

YBTL 140930Z 05011KT 9999 FEW040 26/20 Q1011 NOSIG

YBTL Flight Activity (Flightaware)

Listeners: 0 out of 751 total

Townsville ATIS: 133.500

YBTL Brisbane Center (Archives)
Townsville, Queensland, Australia

Feed Status: UP
Listen in your browser - HTML5 player(in browser, HTML5)
Click here to listen with your own player(launches your MP3 player)

YBTL 140930Z 05011KT 9999 FEW040 26/20 Q1011 NOSIG

YBTL Flight Activity (Flightaware)

Listeners: 0 out of 751 total

Brisbane Center: 120.550

YBTL Clearance Delivery (Archives)
Townsville, Queensland, Australia

Feed Status: UP
Listen in your browser - HTML5 player(in browser, HTML5)
Click here to listen with your own player(launches your MP3 player)

YBTL 140930Z 05011KT 9999 FEW040 26/20 Q1011 NOSIG

YBTL Flight Activity (Flightaware)

Listeners: 0 out of 751 total

Townsville Clearance Delivery: 128.100

YBTL Ground (Archives)
Townsville, Queensland, Australia

Feed Status: UP
Listen in your browser - HTML5 player(in browser, HTML5)
Click here to listen with your own player(launches your MP3 player)

YBTL 140930Z 05011KT 9999 FEW040 26/20 Q1011 NOSIG

YBTL Flight Activity (Flightaware)

Listeners: 0 out of 751 total

Townsville Ground: 119.450

YBTL Tower (Archives)
Townsville, Queensland, Australia

Feed Status: UP
Listen in your browser - HTML5 player(in browser, HTML5)
Click here to listen with your own player(launches your MP3 player)

YBTL 140930Z 05011KT 9999 FEW040 26/20 Q1011 NOSIG

YBTL Flight Activity (Flightaware)

Listeners: 0 out of 751 total

Townsville Tower: 118.300

YGAW CTAF (Archives)
Gawler, South Australia, Australia

Feed Status: UP
Listen in your browser - HTML5 player(in browser, HTML5)
Click here to listen with your own player(launches your MP3 player)

METAR NOT AVAILABLE

YGAW Flight Activity (Flightaware)

Listeners: 0 out of 751 total

Gawler CTAF: 126.550

YGLA CTAF (Archives)
Gladstone, Queensland, Australia

Feed Status: UP
Listen in your browser - HTML5 player(in browser, HTML5)
Click here to listen with your own player(launches your MP3 player)

YGLA 140930Z AUTO 03006KT 9999 // NCD 25/20 Q1013 RF00.0////./

YGLA Flight Activity (Flightaware)

Listeners: 0 out of 751 total

Gladstone CTF/Multicom: 118.800

YMHB Gnd/Twr/Centre (Archives)
Cambridge, Tasmania, Australia

Feed Status: UP
Listen in your browser - HTML5 player(in browser, HTML5)
Click here to listen with your own player(launches your MP3 player)

YMHB 140930Z 28022G32KT 9999 FEW050 15/02 Q0997

YMHB Flight Activity (Flightaware)

Listeners: 0 out of 751 total

Hobart Ground: 121.700
Hobart Tower: 118.100
Melbourne Centre: 125.550

YMIA CTAF/Melbourne Center (Archives)
Mildura, Victoria, Australia

Feed Status: UP
Listen in your browser - HTML5 player(in browser, HTML5)
Click here to listen with your own player(launches your MP3 player)

YMIA 140900Z AUTO 26006KT 9999 // NCD 23/03 Q1014

YMIA Flight Activity (Flightaware)

Listeners: 0 out of 751 total

Melbourne Center: 112.100
Melbourne Center: 132.600
Mildura CTAF: 118.800

YMML Twr/App/Center (Archives)
Melbourne, Victoria, Australia

Feed Status: UP
Listen in your browser - HTML5 player(in browser, HTML5)
Click here to listen with your own player(launches your MP3 player)

YMML 140930Z 24012KT CAVOK 17/08 Q1012 FM0930 MOD TURB BLW 5000FT

YMML Flight Activity (Flightaware)

Listeners: 4 out of 751 total

Air Ambulance: 132.750
DSE & Other Company: 119.100
Essendon Tower: 125.100
Inter-Pilot: 123.450
Jetstar Company: 130.925
Melbourne ACD: 127.200
Melbourne Approach: 132.000
Melbourne Centre: 130.300
Melbourne Centre: 128.500
Melbourne Centre: 126.800
Melbourne Centre: 125.800
Melbourne Centre: 125.700
Melbourne Centre: 125.200
Melbourne Centre: 123.750
Melbourne Centre: 122.400
Melbourne Departure: 118.900
Melbourne Departure: 129.400
Melbourne Tower: 120.500
Moorabbin Tower (East): 118.100
Moorabbin Tower (West): 123.000
Police Air Wing: 131.600
Qantas Company: 130.850
Qantas Company: 129.500
Rex Company: 126.450
Royal Victorian Aero Club Company: 128.700
Royal Victorian Aero Club Company: 133.400

YPAD Del/Gnd/Twr/App (Archives)
Adelaide, South Australia, Australia

Feed Status: UP
Listen in your browser - HTML5 player(in browser, HTML5)
Click here to listen with your own player(launches your MP3 player)

YPAD 140930Z 23016KT 9999 SCT045 16/09 Q1017 NOSIG

YPAD Flight Activity (Flightaware)

Listeners: 2 out of 751 total

Adelaide Approach (East of Adelaide): 118.200
Adelaide Approach (East of Adelaide): 130.450
Adelaide Approach (Kangaroo Island): 123.050
Adelaide Approach (North of Adelaide): 128.600
Adelaide Approach (West of Adelaide): 124.200
Adelaide Clearance Delivery: 126.100
Adelaide Ground: 121.700
Adelaide Tower: 120.500

YPAD Gnd/Twr/App/Center (Archives)
Adelaide, South Australia, Australia

Feed Status: UP
Listen in your browser - HTML5 player(in browser, HTML5)
Click here to listen with your own player(launches your MP3 player)

YPAD 140930Z 23016KT 9999 SCT045 16/09 Q1017 NOSIG

YPAD Flight Activity (Flightaware)

Listeners: 0 out of 751 total

Adelaide Approach (East of Adelaide): 118.200
Adelaide Approach (East of Adelaide): 130.450
Adelaide Approach (Kangaroo Island): 123.050
Adelaide Approach (North of Adelaide): 128.600
Adelaide Approach (West of Adelaide): 124.200
Adelaide Clearance Delivery: 126.100
Adelaide Ground: 121.700
Adelaide Tower: 120.500
Flight Watch: 135.750
Melbourne Centre: 124.300
Melbourne Centre ( East of Adelaide): 125.300
Melbourne Centre ( Pt Augusta, Pt Pirie, Whyalla): 123.900
Melbourne Centre (Mildura): 122.100
Melbourne Centre (North of Adelaide): 122.400
Melbourne Centre (Pt Lincoln): 125.900
Melbourne Centre (West of Adelaide ): 127.050

YPDN Gnd/Twr/App/Dep (Archives)
Darwin, Northern Territory, Australia

Feed Status: UP
Listen in your browser - HTML5 player(in browser, HTML5)
Click here to listen with your own player(launches your MP3 player)

YPDN 140930Z 24007KT 9999 -SHRA FEW026TCU SCT097 BKN115 30/24 Q1008 FM1030 28008KT CAVOK

YPDN Flight Activity (Flightaware)

Listeners: 0 out of 751 total

Darwin Approach: 134.100
Darwin Arrival: 125.200
Darwin Departure: 119.550
Darwin Ground: 121.800
Darwin Tower: 133.100

YPJT Gnd/Twr (Archives)
Perth, Western Australia, Australia

Feed Status: UP
Listen in your browser - HTML5 player(in browser, HTML5)
Click here to listen with your own player(launches your MP3 player)

YPJT 140930Z AUTO 21013KT 9999 // NCD 35/13 Q1011 RF00.0/000.0

YPJT Flight Activity (Flightaware)

Listeners: 1 out of 751 total

Jandakot Ground: 124.300
Jandakot Tower: 119.400
Jandakot Tower/CTAF: 118.100

YPMQ CTAF (Archives)
Port Macquarie, New South Wales, Australia

Feed Status: UP
Listen in your browser - HTML5 player(in browser, HTML5)
Click here to listen with your own player(launches your MP3 player)

YPMQ Flight Activity (Flightaware)

Listeners: 0 out of 751 total

Port Macquarie CTAF/Multicom: 118.100

YPPF Ground (Archives)
Parafield, South Australia, Australia

Feed Status: UP
Listen in your browser - HTML5 player(in browser, HTML5)
Click here to listen with your own player(launches your MP3 player)

YPPF Flight Activity (Flightaware)

Listeners: 0 out of 751 total

Parafield Ground: 119.900

YPPF Tower #1 (Archives)
Parafield, South Australia, Australia

Feed Status: UP
Listen in your browser - HTML5 player(in browser, HTML5)
Click here to listen with your own player(launches your MP3 player)

YPPF Flight Activity (Flightaware)

Listeners: 0 out of 751 total

Parafield Tower: 118.700

YPPF Tower #2 (Archives)
Parafield, South Australia, Australia

Feed Status: UP
Listen in your browser - HTML5 player(in browser, HTML5)
Click here to listen with your own player(launches your MP3 player)

YPPF Flight Activity (Flightaware)

Listeners: 0 out of 751 total

Parafield Tower: 124.600

YPPH Approach (Archives)
Perth, Western Australia, Australia

Feed Status: UP
Listen in your browser - HTML5 player(in browser, HTML5)
Click here to listen with your own player(launches your MP3 player)

YPPH 140930Z 18016KT CAVOK 36/06 Q1011 NOSIG

YPPH Flight Activity (Flightaware)

Listeners: 0 out of 751 total

Perth Approach: 123.600

YPPH Departure (Archives)
Perth, Western Australia, Australia

Feed Status: UP
Listen in your browser - HTML5 player(in browser, HTML5)
Click here to listen with your own player(launches your MP3 player)

YPPH 140930Z 18016KT CAVOK 36/06 Q1011 NOSIG

YPPH Flight Activity (Flightaware)

Listeners: 0 out of 751 total

Perth Departure: 118.700

YPPH Ground (Archives)
Perth, Western Australia, Australia

Feed Status: UP
Listen in your browser - HTML5 player(in browser, HTML5)
Click here to listen with your own player(launches your MP3 player)

YPPH 140930Z 18016KT CAVOK 36/06 Q1011 NOSIG

YPPH Flight Activity (Flightaware)

Listeners: 0 out of 751 total

Perth Ground: 121.700

YPPH Tower (Archives)
Perth, Western Australia, Australia

Feed Status: UP
Listen in your browser - HTML5 player(in browser, HTML5)
Click here to listen with your own player(launches your MP3 player)

YPPH 140930Z 18016KT CAVOK 36/06 Q1011 NOSIG

YPPH Flight Activity (Flightaware)

Listeners: 0 out of 751 total

Perth Tower: 127.400

YRYW 122.5 (Archives)
Raywood, Victoria, Australia

Feed Status: UP
Listen in your browser - HTML5 player(in browser, HTML5)
Click here to listen with your own player(launches your MP3 player)

METAR NOT AVAILABLE

YRYW Flight Activity (Flightaware)

Listeners: 0 out of 751 total


YRYW 122.7 (Archives)
Raywood, Victoria, Australia

Feed Status: UP
Listen in your browser - HTML5 player(in browser, HTML5)
Click here to listen with your own player(launches your MP3 player)

METAR NOT AVAILABLE

YRYW Flight Activity (Flightaware)

Listeners: 0 out of 751 total


YRYW 122.9 (Archives)
Raywood, Victoria, Australia

Feed Status: UP
Listen in your browser - HTML5 player(in browser, HTML5)
Click here to listen with your own player(launches your MP3 player)

METAR NOT AVAILABLE

YRYW Flight Activity (Flightaware)

Listeners: 0 out of 751 total


YRYW CTAF (Archives)
Raywood, Victoria, Australia

Feed Status: UP
Listen in your browser - HTML5 player(in browser, HTML5)
Click here to listen with your own player(launches your MP3 player)

METAR NOT AVAILABLE

YRYW Flight Activity (Flightaware)

Listeners: 0 out of 751 total

Raywood CTAF: 126.700

YSBK ATIS (Archives)
Bankstown, New South Wales, Australia

Feed Status: UP
Listen in your browser - HTML5 player(in browser, HTML5)
Click here to listen with your own player(launches your MP3 player)

YSBK Flight Activity (Flightaware)

Listeners: 0 out of 751 total

Bankstown ATIS: 120.900

YSBK Tower (Archives)
Bankstown, New South Wales, Australia

Feed Status: UP
Listen in your browser - HTML5 player(in browser, HTML5)
Click here to listen with your own player(launches your MP3 player)

YSBK Flight Activity (Flightaware)

Listeners: 2 out of 751 total

Bankstown Tower: 132.800

YSCB App/Dep (Archives)
Canberra, Australian Capital Territory, Australia

Feed Status: UP
Listen in your browser - HTML5 player(in browser, HTML5)
Click here to listen with your own player(launches your MP3 player)

YSCB 140930Z AUTO 27011KT 9999 // NCD 18/05 Q1013 RF00.0/000.0

YSCB Flight Activity (Flightaware)

Listeners: 0 out of 751 total

Canberra Approach/Departure: 124.500

YSCB App/Dep/Center (Archives)
Canberra, Australian Capital Territory, Australia

Feed Status: UP
Listen in your browser - HTML5 player(in browser, HTML5)
Click here to listen with your own player(launches your MP3 player)

YSCB 140930Z AUTO 27011KT 9999 // NCD 18/05 Q1013 RF00.0/000.0

YSCB Flight Activity (Flightaware)

Listeners: 0 out of 751 total

Melbourne Center: 125.900

YSCB ATIS (Archives)
Canberra, Australian Capital Territory, Australia

Feed Status: UP
Listen in your browser - HTML5 player(in browser, HTML5)
Click here to listen with your own player(launches your MP3 player)

YSCB 140930Z AUTO 27011KT 9999 // NCD 18/05 Q1013 RF00.0/000.0

YSCB Flight Activity (Flightaware)

Listeners: 0 out of 751 total

Canberra ATIS: 127.450

YSCB Ground/Tower (Archives)
Canberra, Australian Capital Territory, Australia

Feed Status: UP
Listen in your browser - HTML5 player(in browser, HTML5)
Click here to listen with your own player(launches your MP3 player)

YSCB 140930Z AUTO 27011KT 9999 // NCD 18/05 Q1013 RF00.0/000.0

YSCB Flight Activity (Flightaware)

Listeners: 0 out of 751 total

Canberra Ground: 121.700
Canberra Tower: 118.700

YSCB Melbourne Center (Archives)
Canberra, Australian Capital Territory, Australia

Feed Status: UP
Listen in your browser - HTML5 player(in browser, HTML5)
Click here to listen with your own player(launches your MP3 player)

YSCB 140930Z AUTO 27011KT 9999 // NCD 18/05 Q1013 RF00.0/000.0

YSCB Flight Activity (Flightaware)

Listeners: 0 out of 751 total

Melbourne Center: 128.400

YSCN Tower/CTAF (Archives)
Camden, New South Wales, Australia

Feed Status: UP
Listen in your browser - HTML5 player(in browser, HTML5)
Click here to listen with your own player(launches your MP3 player)

YSCN Flight Activity (Flightaware)

Listeners: 0 out of 751 total

Camden Tower/CTAF: 120.100

YSNW Gnd/CTAF/App/Center (Archives)
Nowra, New South Wales, Australia

Feed Status: UP
Listen in your browser - HTML5 player(in browser, HTML5)
Click here to listen with your own player(launches your MP3 player)

YSNW 140900Z 29015KT CAVOK 25/03 Q1009 FM0900 MOD TURB BLW 5000FT

YSNW Flight Activity (Flightaware)

Listeners: 0 out of 751 total

Enroute: 132.300
Nowra Approach: 123.500
Nowra CTAF: 118.850
Nowra Ground: 135.850

Australia - ATC Satellite Feed (Archives)
Sydney, New South Wales, Australia

Feed Status: UP
Listen in your browser - HTML5 player(in browser, HTML5)
Click here to listen with your own player(launches your MP3 player)


Listeners: 2 out of 751 total

Brisbane Center: 123.400
Brisbane Center: 128.600
Melbourne Center: 133.500
Melbourne Center: 118.500
Sydney Departures: 118.400

YSSY Approach (North/East) (Archives)
Sydney, New South Wales, Australia

Feed Status: UP
Listen in your browser - HTML5 player(in browser, HTML5)
Click here to listen with your own player(launches your MP3 player)

YSSY 140930Z 03008KT CAVOK 20/10 Q1011 FM0930 03010KT 8000 FU NSC

YSSY Flight Activity (Flightaware)

Listeners: 0 out of 751 total

Sydney Approach (North/East): 124.400

YSSY Approach (South) (Archives)
Sydney, New South Wales, Australia

Feed Status: UP
Listen in your browser - HTML5 player(in browser, HTML5)
Click here to listen with your own player(launches your MP3 player)

YSSY 140930Z 03008KT CAVOK 20/10 Q1011 FM0930 03010KT 8000 FU NSC

YSSY Flight Activity (Flightaware)

Listeners: 1 out of 751 total

Sydney Approach (South/West): 128.300

YSSY ATIS (Archives)
Sydney, New South Wales, Australia

Feed Status: UP
Listen in your browser - HTML5 player(in browser, HTML5)
Click here to listen with your own player(launches your MP3 player)

YSSY 140930Z 03008KT CAVOK 20/10 Q1011 FM0930 03010KT 8000 FU NSC

YSSY Flight Activity (Flightaware)

Listeners: 0 out of 751 total

Sydney ATIS: 118.550

YSSY Center (South/West) (Archives)
Sydney, New South Wales, Australia

Feed Status: UP
Listen in your browser - HTML5 player(in browser, HTML5)
Click here to listen with your own player(launches your MP3 player)

YSSY 140930Z 03008KT CAVOK 20/10 Q1011 FM0930 03010KT 8000 FU NSC

YSSY Flight Activity (Flightaware)

Listeners: 0 out of 751 total

Sydney Center: 124.550

YSSY Del/Gnd (Archives)
Sydney, New South Wales, Australia

Feed Status: UP
Listen in your browser - HTML5 player(in browser, HTML5)
Click here to listen with your own player(launches your MP3 player)

YSSY 140930Z 03008KT CAVOK 20/10 Q1011 FM0930 03010KT 8000 FU NSC

YSSY Flight Activity (Flightaware)

Listeners: 1 out of 751 total

Sydney Clearance Delivery: 133.800
Sydney Ground (East of Rwys 16R/34L): 121.700
Sydney Ground (West of Rwys 16R/34L): 126.500

YSSY Departure (North/East) (Archives)
Sydney, New South Wales, Australia

Feed Status: UP
Listen in your browser - HTML5 player(in browser, HTML5)
Click here to listen with your own player(launches your MP3 player)

YSSY 140930Z 03008KT CAVOK 20/10 Q1011 FM0930 03010KT 8000 FU NSC

YSSY Flight Activity (Flightaware)

Listeners: 0 out of 751 total

Sydney Departure (North/East): 123.000

YSSY Departure (South/West) (Archives)
Sydney, New South Wales, Australia

Feed Status: UP
Listen in your browser - HTML5 player(in browser, HTML5)
Click here to listen with your own player(launches your MP3 player)

YSSY 140930Z 03008KT CAVOK 20/10 Q1011 FM0930 03010KT 8000 FU NSC

YSSY Flight Activity (Flightaware)

Listeners: 0 out of 751 total

Sydney Departure (Rte S, W and NW): 129.700

YSSY Director (Both) (Archives)
Sydney, New South Wales, Australia

Feed Status: UP
Listen in your browser - HTML5 player(in browser, HTML5)
Click here to listen with your own player(launches your MP3 player)

YSSY 140930Z 03008KT CAVOK 20/10 Q1011 FM0930 03010KT 8000 FU NSC

YSSY Flight Activity (Flightaware)

Listeners: 1 out of 751 total

Sydney Director (East): 125.300
Sydney Director (West): 126.100

YSSY Director (East) (Archives)
Sydney, New South Wales, Australia

Feed Status: UP
Listen in your browser - HTML5 player(in browser, HTML5)
Click here to listen with your own player(launches your MP3 player)

YSSY 140930Z 03008KT CAVOK 20/10 Q1011 FM0930 03010KT 8000 FU NSC

YSSY Flight Activity (Flightaware)

Listeners: 1 out of 751 total

Sydney Director (East): 125.300

YSSY Tower (Both) (Archives)
Sydney, New South Wales, Australia

Feed Status: UP
Listen in your browser - HTML5 player(in browser, HTML5)
Click here to listen with your own player(launches your MP3 player)

YSSY 140930Z 03008KT CAVOK 20/10 Q1011 FM0930 03010KT 8000 FU NSC

YSSY Flight Activity (Flightaware)

Listeners: 1 out of 751 total

Sydney Tower (Rwy 16L/34R): 124.700
Sydney Tower (Rwy 16R/34L, Rwy 07/25): 120.500

YSSY Tower (Rwy 16L/34R) (Archives)
Sydney, New South Wales, Australia

Feed Status: UP
Listen in your browser - HTML5 player(in browser, HTML5)
Click here to listen with your own player(launches your MP3 player)

YSSY 140930Z 03008KT CAVOK 20/10 Q1011 FM0930 03010KT 8000 FU NSC

YSSY Flight Activity (Flightaware)

Listeners: 0 out of 751 total

Sydney Tower (Rwy 16L/34R): 124.700

YSSY Tower (Rwys 16R/34L,7/25) (Archives)
Sydney, New South Wales, Australia

Feed Status: UP
Listen in your browser - HTML5 player(in browser, HTML5)
Click here to listen with your own player(launches your MP3 player)

YSSY 140930Z 03008KT CAVOK 20/10 Q1011 FM0930 03010KT 8000 FU NSC

YSSY Flight Activity (Flightaware)

Listeners: 4 out of 751 total

Sydney Tower (Rwy 16R/34L, Rwy 07/25): 120.500

ZBAA Tower (Archives)
Beijing, China

Feed Status: UP
Listen in your browser - HTML5 player(in browser, HTML5)
Click here to listen with your own player(launches your MP3 player)

ZBAA 140930Z 00000MPS CAVOK 03/M06 Q1014 NOSIG


Listeners: 11 out of 751 total

Beijing Tower (Rwy 01/19): 118.600

ZHNY Tower
Nanyang, China

Feed Status: DOWN
Offline since: 2019-11-14 08:24:23 UTC

Nanyang Tower: 118.500

ZYCY Tower (Archives)
Chaoyang, China

Feed Status: UP
Listen in your browser - HTML5 player(in browser, HTML5)
Click here to listen with your own player(launches your MP3 player)

ZYCY 140700Z 25002MPS CAVOK 29/16 Q1006 NOSIG


Listeners: 0 out of 751 total

Chaoyang Tower: 118.350